GFSMA_850_thetae_000.txt.gz
Theta_e
330 332 333 332 331 329 328 327 327 325 321 315 313 313 313 313 314 319 322 321 315 315 317 319 322 323 325 327 328 328 327 325 325 321 322 322 322 324 326 328 326 321 321
331 332 330 329 327 327 326 323 317 313 312 312 312 311 310 310 311 312 313 311 312 317 318 318 318 319 320 325 328 326 324 322 322 323 326 326 324 324 324 325 327 327 326
331 330 328 327 327 320 313 312 312 311 310 308 307 305 305 306 306 306 308 313 314 313 313 314 314 316 317 318 318 318 320 321 322 321 321 320 321 319 317 320 325 326 327
329 327 326 315 310 311 311 310 308 306 305 304 304 304 304 304 305 309 308 311 312 311 310 310 310 311 312 313 312 311 312 313 314 314 314 315 315 316 315 315 314 315 320
326 317 310 310 309 307 306 305 304 303 303 303 302 303 303 305 305 303 306 306 304 303 304 306 307 308 308 306 305 306 306 306 309 312 312 310 312 314 316 317 315 316 318
309 310 309 308 308 307 305 303 303 302 300 300 301 301 301 303 300 306 300 300 299 299 301 299 298 299 299 299 300 300 299 303 308 309 307 312 313 314 314 315 317 317 318
310 309 309 309 308 307 304 302 301 301 299 298 299 300 299 298 301 304 298 298 297 298 297 297 297 296 297 296 296 298 300 301 304 306 307 308 309 309 309 310 312 313 314
310 310 311 310 309 306 303 301 300 299 298 296 296 297 297 297 300 296 298 295 298 296 296 295 295 295 294 295 296 296 293 296 298 302 304 305 306 307 307 307 309 309 311
311 311 311 309 307 303 301 299 298 297 297 296 294 294 295 297 294 296 294 296 294 294 293 293 293 294 294 294 292 292 294 296 298 301 303 303 304 304 305 305 305 306 308
311 311 310 308 305 301 299 297 296 296 296 295 294 293 293 293 294 294 293 292 293 292 292 292 292 292 292 291 292 294 296 295 297 298 300 301 301 301 302 302 304 303 304
311 310 308 306 303 300 298 296 296 295 294 293 293 293 293 292 291 291 291 292 291 291 291 291 291 291 291 292 293 294 294 294 296 296 297 297 298 299 300 301 300 301 302
309 308 306 304 301 298 297 296 294 293 292 292 292 292 291 290 290 290 290 290 290 290 291 291 290 290 291 292 292 292 291 293 293 293 294 295 296 296 296 296 297 298 298
307 306 305 303 299 297 295 293 292 292 292 292 292 291 290 290 289 289 289 288 289 289 290 290 290 291 291 291 290 291 291 290 290 291 291 292 293 294 294 294 295 296 297
306 305 304 301 298 296 293 291 291 292 292 292 291 290 289 289 288 288 288 287 287 288 289 290 290 290 289 290 289 289 288 288 288 289 290 291 291 292 292 293 293 295 295
306 305 303 300 296 293 291 291 291 292 291 291 290 289 289 288 288 287 287 286 287 289 289 288 288 289 289 288 288 287 288 287 288 289 289 290 290 291 292 292 293 293 294
305 303 301 297 293 291 291 291 292 291 290 290 289 288 288 288 287 287 286 285 286 287 288 288 288 288 288 288 287 287 287 287 288 288 288 289 289 289 291 291 291 292 292
303 301 298 294 291 291 292 291 290 290 289 289 288 288 288 287 286 285 286 287 288 288 288 288 288 288 288 287 286 287 287 286 286 286 287 287 288 289 290 290 289 289 290
301 298 293 291 291 292 291 290 289 289 289 288 288 288 287 287 286 285 286 287 287 288 288 288 288 287 286 287 287 287 285 284 284 284 285 287 287 287 287 288 288 289 290
297 293 291 291 292 291 290 290 289 288 288 288 287 287 287 286 285 285 286 287 287 287 287 287 286 286 287 287 286 285 284 283 283 283 284 285 286 286 287 288 289 288 288
293 291 291 292 291 290 290 289 288 288 287 287 287 286 286 285 285 285 286 287 286 285 286 286 287 286 288 286 284 283 283 282 283 284 284 284 285 285 286 285 286 286 287
291 291 292 292 291 290 289 288 287 287 287 286 286 286 285 285 285 286 286 286 286 286 287 287 286 286 285 284 283 283 282 283 284 284 283 283 283 283 283 283 284 285 286
290 292 291 291 290 289 288 287 286 287 286 286 285 286 285 285 285 285 285 285 286 287 286 286 286 284 283 283 282 283 284 284 282 282 282 282 283 282 283 283 283 285 286
291 291 291 290 289 288 287 286 286 286 286 285 285 285 285 284 284 284 284 285 285 285 285 284 283 283 283 283 284 282 282 282 282 282 282 282 282 282 282 282 283 284 285
291 291 290 289 288 287 285 285 285 285 284 284 284 284 284 284 283 284 285 285 286 284 283 282 282 283 283 282 282 282 282 282 282 281 281 282 281 281 282 282 283 284 285
290 290 289 288 286 285 284 283 285 284 284 283 283 284 284 283 284 285 286 285 283 283 282 283 282 282 281 281 282 282 281 281 280 280 281 281 281 281 282 282 283 284 285
289 289 288 286 285 284 283 283 284 284 284 284 284 284 284 284 285 285 284 283 282 282 283 282 281 281 281 281 281 280 280 280 280 280 281 281 281 282 283 283 283 283 283

GFSMA_850_thetae_003.txt.gz
Theta_e
329 329 333 330 330 328 327 326 325 323 316 311 311 311 311 310 309 310 312 314 315 313 313 315 318 320 322 323 327 328 326 325 324 324 324 324 325 326 326 324 324 325 327
331 331 330 328 327 326 325 321 314 311 311 311 310 308 306 305 305 306 306 309 311 312 313 313 314 315 317 319 320 323 323 322 321 320 320 320 320 320 322 324 323 323 325
330 327 327 327 326 320 311 310 310 310 307 306 305 304 304 304 304 305 307 309 311 311 311 310 310 310 312 312 314 315 315 316 317 318 318 317 316 317 317 317 316 315 315
327 326 326 320 309 310 309 307 306 304 303 303 303 303 303 303 304 306 307 307 308 307 306 307 307 307 307 308 309 309 308 310 308 308 311 311 311 311 312 314 315 315 316
325 323 310 309 308 308 307 306 304 303 302 302 302 302 302 302 306 302 302 302 302 300 300 302 301 300 300 300 300 299 299 302 308 309 309 309 310 309 309 310 311 313 315
310 309 309 309 309 309 307 304 302 301 300 300 301 301 300 302 303 300 301 299 299 298 299 297 297 297 297 297 297 297 297 297 298 303 305 306 308 309 310 310 310 311 312
310 310 310 310 310 308 304 302 300 300 299 299 299 300 299 299 298 301 301 298 298 297 298 296 296 296 296 296 296 296 296 296 301 299 303 305 307 307 307 308 308 308 309
310 311 311 311 309 305 302 300 298 298 297 296 296 296 296 297 299 302 297 298 296 296 296 295 295 295 295 295 295 294 294 293 297 301 303 304 304 305 305 306 306 306 307
312 312 311 310 307 303 300 298 297 296 295 295 293 293 294 294 293 295 294 294 294 294 294 294 293 293 293 293 293 293 293 294 297 300 302 302 302 302 303 303 304 304 305
312 311 310 308 306 302 300 298 296 296 294 293 293 293 292 292 291 292 292 293 292 292 292 292 292 292 292 291 291 292 292 294 297 298 299 299 299 299 300 301 301 302 303
311 310 308 307 305 302 299 297 296 294 293 292 292 292 292 291 290 290 289 290 291 291 291 290 290 290 290 290 291 292 292 292 294 295 296 296 297 298 299 299 300 300 300
310 308 307 306 304 300 298 296 294 292 292 292 292 291 290 289 289 288 288 288 288 288 288 289 289 289 289 291 291 291 291 291 293 292 293 294 295 296 296 297 297 298 299
309 307 306 304 302 299 296 293 292 291 292 292 291 291 290 289 288 288 287 287 287 287 287 287 288 289 289 289 290 289 289 290 290 290 291 293 293 294 294 294 295 296 296
307 306 305 303 300 296 293 292 291 291 292 291 290 290 289 289 288 288 287 286 286 286 286 287 287 287 288 289 289 289 288 288 288 289 290 291 292 292 292 292 293 294 295
305 305 304 301 297 294 292 291 291 292 291 290 290 290 289 288 288 287 287 286 285 286 286 287 287 288 288 288 288 288 287 287 288 289 290 290 290 291 291 291 291 292 293
304 304 302 299 295 292 291 291 292 291 291 291 290 289 288 288 287 287 286 285 285 287 287 287 287 287 287 287 287 287 286 287 287 288 288 288 288 288 289 289 290 291 293
304 303 300 296 293 291 292 292 291 291 290 289 289 288 288 287 286 286 285 285 285 286 287 287 287 287 286 286 286 286 286 287 286 286 286 286 286 287 288 289 290 290 291
302 300 296 293 291 292 292 291 290 290 289 289 288 287 287 286 285 285 285 285 285 286 287 287 286 285 285 287 285 285 287 285 283 283 284 285 286 287 288 288 288 289 289
300 296 293 292 292 292 291 291 290 289 288 288 287 286 286 285 285 285 285 285 286 286 286 285 285 286 287 285 285 286 284 283 282 283 283 284 285 286 286 287 287 288 289
297 293 291 292 291 291 291 290 289 288 288 287 286 285 285 285 285 285 285 286 286 285 285 285 286 286 285 285 284 283 283 283 283 282 283 284 283 284 284 285 285 286 286
294 291 291 291 291 291 290 289 288 287 287 286 285 285 285 285 285 285 285 286 285 285 286 287 286 286 284 283 283 282 283 283 283 282 282 282 282 282 282 283 283 284 284
291 291 291 291 291 290 290 288 286 286 286 284 284 284 283 283 283 284 284 284 285 286 286 286 285 283 282 282 282 283 283 282 282 282 282 282 282 282 281 282 283 284 285
290 290 291 290 290 290 288 286 285 286 284 284 283 283 283 283 283 283 284 285 286 285 284 284 282 282 282 283 283 282 282 282 282 282 281 281 281 281 282 282 282 283 284
289 290 290 290 289 287 286 284 285 284 284 284 283 283 284 284 283 284 286 285 284 283 282 282 282 283 283 282 282 282 282 282 281 281 281 281 281 281 282 282 283 283 284
288 289 289 289 287 286 284 283 284 284 284 284 284 284 284 284 283 286 285 283 282 282 282 282 282 282 281 281 281 282 281 280 280 280 280 280 281 281 281 282 282 283 284
288 288 288 287 285 284 283 283 284 284 284 284 285 284 283 284 285 285 284 282 282 281 283 282 281 281 281 281 281 281 281 280 280 280 280 280 281 281 282 282 282 282 283

GFSMA_850_thetae_006.txt.gz
Theta_e
328 328 331 328 327 327 326 326 324 318 313 311 311 311 310 308 306 305 305 307 309 310 312 315 317 318 319 321 324 325 326 325 324 324 323 322 323 323 323 323 324 324 324
330 332 328 327 325 325 325 320 310 310 310 310 308 305 304 304 304 304 305 307 309 310 310 311 311 312 313 315 317 318 320 322 321 320 319 319 318 316 315 316 320 323 323
328 325 325 325 326 319 310 309 308 307 306 305 303 303 303 303 303 304 306 307 308 309 309 309 309 308 309 309 309 312 312 314 313 312 312 313 313 313 314 314 315 316 318
327 326 326 324 310 309 309 308 307 306 304 303 303 302 302 302 303 304 304 304 305 306 304 303 304 304 304 303 304 305 305 306 306 307 308 308 308 308 310 311 311 312 314
324 324 320 309 309 309 309 307 304 303 302 302 302 302 302 302 302 304 302 300 299 300 298 299 298 297 297 297 297 298 298 298 298 300 304 305 304 307 308 309 310 309 309
323 310 309 309 310 309 307 304 302 301 300 301 301 302 301 300 302 304 300 301 298 299 297 297 298 296 296 296 296 296 296 296 297 302 302 304 307 308 309 309 309 310 310
309 310 310 311 310 308 305 302 301 301 300 300 300 300 299 299 299 298 299 302 298 298 297 296 296 295 295 295 295 295 295 295 296 303 302 304 305 306 306 307 308 308 308
310 311 312 311 309 307 305 302 300 300 298 297 295 296 296 297 298 298 297 298 297 296 295 295 295 294 294 294 294 294 294 294 294 298 302 303 304 304 304 305 305 306 306
310 312 311 310 309 307 305 301 299 298 297 295 293 293 293 293 292 294 295 295 294 294 293 293 294 293 293 293 293 292 292 292 293 298 300 302 302 302 302 303 303 304 304
312 311 311 310 309 307 305 301 299 297 294 293 293 293 292 291 290 291 292 293 292 292 293 293 292 292 292 292 291 291 290 291 295 296 297 298 299 300 300 301 302 302 303
311 311 310 308 308 306 304 301 297 294 293 292 292 292 292 291 290 289 289 291 292 292 291 291 290 291 290 290 289 290 290 292 293 294 295 296 297 298 298 300 300 301 301
310 310 308 307 306 305 302 299 295 293 292 292 292 291 290 289 289 288 287 288 288 289 290 290 290 290 289 288 288 288 289 291 291 293 293 294 295 296 297 298 298 298 299
309 308 306 306 305 303 300 296 293 292 292 292 292 291 291 290 289 288 288 288 287 287 288 287 288 288 288 288 287 287 288 290 290 290 291 293 293 294 294 295 295 296 296
307 306 306 305 303 301 297 294 292 292 292 292 291 290 290 289 289 288 287 286 286 286 286 286 287 287 287 287 287 288 287 287 288 289 290 291 291 292 292 292 293 293 294
305 305 305 304 302 299 296 293 292 292 292 291 291 290 290 289 288 288 287 286 285 285 285 286 286 286 286 286 286 286 286 286 287 288 288 289 290 289 289 290 290 290 291
305 304 304 302 299 296 293 292 292 292 291 291 291 290 290 288 288 287 286 285 285 285 285 285 285 285 286 285 285 286 286 286 286 287 288 288 287 287 287 288 288 289 290
304 304 303 300 297 293 292 292 292 292 292 292 291 290 289 287 286 286 285 285 285 285 285 285 285 285 285 284 286 285 285 285 285 286 286 285 286 286 286 287 288 289 290
303 303 301 298 294 292 292 292 292 292 292 291 290 288 287 286 285 285 285 285 285 285 285 285 285 284 284 286 285 285 285 284 284 283 284 284 285 285 286 287 287 288 288
303 302 298 294 292 292 292 292 292 291 290 289 288 286 285 285 285 284 285 285 285 285 285 285 284 285 285 286 285 284 283 282 282 282 283 283 284 284 285 286 286 287 287
301 298 294 292 292 292 292 291 291 290 289 287 286 285 284 284 283 284 284 285 285 284 284 285 285 285 286 285 283 283 282 282 282 282 282 282 283 283 283 284 284 284 285
298 294 292 291 291 291 291 290 289 288 287 286 285 284 284 283 283 284 285 284 284 285 286 287 285 284 284 283 282 282 282 282 282 282 282 282 282 282 282 282 282 282 283
294 291 290 290 290 290 290 289 287 286 285 285 284 284 283 283 283 284 283 284 286 286 285 284 283 283 282 282 282 283 283 282 282 282 282 282 282 281 281 281 282 282 284
291 290 289 289 289 290 289 287 285 285 285 284 284 284 284 284 283 283 284 285 285 284 283 282 281 282 282 283 283 282 282 281 281 281 281 281 281 281 281 282 282 282 283
290 289 288 288 289 289 287 285 284 284 284 284 284 284 284 283 283 284 285 285 284 283 282 281 282 282 283 282 282 282 281 282 281 281 280 280 281 281 281 281 282 282 283
288 287 288 289 289 286 285 284 283 284 284 284 284 284 283 283 283 285 285 284 283 282 281 282 282 281 281 281 281 282 281 280 280 281 281 280 280 280 281 281 282 282 283
286 287 289 288 285 284 284 283 283 284 284 284 285 284 283 283 284 284 284 282 282 281 283 282 281 282 282 282 282 281 281 280 280 280 282 280 281 281 281 281 282 283 283

GFSMA_850_thetae_009.txt.gz
Theta_e
327 328 329 328 326 325 326 325 323 316 310 310 309 308 306 305 304 304 304 305 307 309 311 314 314 316 317 319 321 322 324 324 324 324 323 322 321 321 323 323 322 322 324
329 330 328 326 325 325 325 318 309 309 308 306 304 304 303 303 303 303 304 306 308 309 310 310 310 310 311 312 313 315 316 318 319 319 319 318 318 318 317 316 315 314 315
328 327 326 324 325 322 310 309 308 307 306 304 303 302 302 302 302 303 304 306 306 307 307 307 308 308 308 308 308 309 309 311 311 312 312 312 312 312 312 312 312 313 313
327 326 324 324 317 309 309 309 308 306 304 303 302 302 302 301 301 302 302 302 302 302 301 300 300 301 300 299 300 300 300 301 303 304 304 304 306 307 308 308 309 310 311
326 324 324 314 309 309 309 307 304 302 302 302 302 302 302 301 301 302 303 301 300 298 299 298 297 298 297 296 296 296 296 297 297 297 298 303 303 304 306 308 310 309 309
325 323 311 309 310 310 307 304 302 301 301 302 302 301 301 300 300 302 304 300 299 300 297 297 296 296 296 296 295 295 295 295 296 296 300 306 305 307 308 309 309 309 310
325 309 309 311 311 309 307 305 302 301 301 301 301 300 299 299 298 299 298 298 297 298 297 296 296 296 296 296 295 295 295 295 295 295 302 304 304 306 306 307 307 307 308
311 310 311 312 311 310 308 306 304 302 300 299 297 297 297 297 298 298 297 296 296 296 296 296 296 295 295 295 295 294 294 294 294 294 301 302 303 304 305 305 305 306 306
309 310 312 311 310 309 308 307 305 302 299 297 296 295 294 294 293 296 296 296 296 295 295 295 295 294 294 294 294 293 293 293 292 295 299 300 301 302 302 303 304 304 305
310 312 311 310 309 309 308 306 304 301 298 296 295 294 293 292 291 292 292 293 293 294 295 294 294 294 293 293 292 292 291 291 292 296 297 299 299 300 301 301 302 302 302
310 311 310 309 308 308 307 305 302 299 296 294 293 293 293 292 291 290 290 292 292 293 293 292 293 292 291 291 290 290 289 288 292 294 296 296 298 299 299 299 300 301 301
310 310 309 308 307 307 306 304 301 297 295 293 293 292 291 291 290 289 288 289 289 289 291 291 291 290 289 289 288 287 287 288 291 292 294 294 295 296 297 298 299 299 299
310 309 308 307 306 306 305 302 299 295 293 293 292 292 292 291 291 290 289 288 288 288 287 287 287 287 287 287 286 286 287 288 289 290 291 292 293 293 294 295 295 296 296
309 308 306 306 306 305 303 300 296 294 293 292 292 292 292 291 290 289 288 287 287 288 287 287 286 286 286 286 286 287 286 287 287 288 289 290 290 290 291 292 292 293 293
308 307 305 305 305 303 301 298 294 293 293 292 292 292 291 290 290 288 287 287 286 286 286 286 286 286 286 286 286 286 286 286 286 287 287 288 288 289 290 290 290 290 290
306 305 304 304 303 301 298 295 293 293 293 292 292 291 291 289 288 287 286 286 285 285 285 286 286 286 286 285 285 285 285 285 286 286 287 287 288 287 288 288 288 288 289
305 304 303 303 301 299 295 293 293 293 292 292 291 291 289 288 287 286 285 285 285 285 285 285 285 285 285 285 285 285 286 285 285 285 286 286 286 286 286 287 287 288 288
303 303 303 301 299 296 293 292 292 292 292 291 291 289 288 286 285 285 284 284 284 284 285 285 285 285 285 286 286 285 285 285 284 284 284 284 285 286 286 286 286 287 287
302 302 301 298 296 294 292 292 291 291 291 290 288 287 286 285 284 284 284 284 285 285 285 284 285 286 285 285 285 284 283 283 282 283 283 283 284 284 285 285 286 286 286
302 300 298 296 294 292 291 290 290 290 290 288 287 285 284 284 284 284 284 285 285 285 285 285 286 285 284 284 283 282 282 282 283 283 283 283 284 284 284 284 284 284 285
300 298 296 294 292 290 290 290 290 288 287 286 285 284 284 284 284 284 285 285 285 285 286 286 285 284 283 282 282 282 282 283 283 282 282 283 283 282 282 283 283 283 283
298 296 294 291 289 289 289 290 288 286 285 285 284 284 284 284 284 284 284 284 285 286 285 284 283 283 282 282 282 283 282 282 282 283 283 282 282 282 282 282 282 283 283
296 293 291 289 288 289 290 288 286 285 284 284 284 284 284 284 283 283 284 284 286 284 283 283 282 282 282 282 282 282 282 282 282 282 282 281 282 282 282 282 282 282 283
293 290 288 287 289 289 287 286 284 284 283 284 284 284 284 283 283 284 285 285 284 283 282 282 282 282 283 282 282 282 282 282 282 282 282 281 282 281 281 282 283 283 283
290 288 287 289 289 287 285 284 283 283 283 284 284 284 284 284 284 285 285 284 283 282 281 282 282 282 281 282 282 281 282 281 281 281 282 281 282 281 282 283 283 283 283
287 287 289 288 286 284 284 283 282 283 284 284 284 284 283 283 284 284 283 283 282 281 282 282 281 282 282 283 283 282 282 280 279 280 282 281 281 282 282 283 284 285 286

GFSMA_850_thetae_012.txt.gz
Theta_e
326 327 326 326 326 326 325 325 324 314 309 309 307 306 305 304 303 304 307 305 306 308 310 311 314 313 314 316 318 318 320 321 323 323 322 322 322 321 320 320 321 323 323
329 327 327 327 325 324 324 320 309 309 308 307 305 304 303 302 302 303 304 305 307 308 308 309 309 309 309 309 310 311 312 313 314 316 317 317 317 317 317 317 317 317 316
327 328 327 326 325 325 313 309 309 308 306 304 303 302 302 301 301 302 303 304 305 305 305 305 305 305 305 305 305 305 306 305 307 309 309 310 311 312 312 312 312 312 313
328 327 326 324 324 311 309 309 307 304 303 302 302 302 302 301 301 301 302 301 301 300 300 299 299 298 298 298 298 297 297 297 297 298 298 299 300 304 303 303 306 307 307
327 326 325 324 312 309 309 307 304 303 302 302 302 301 301 301 300 301 301 301 301 301 300 299 298 297 297 297 297 296 297 296 297 297 297 297 297 301 301 304 309 310 310
327 325 324 314 309 310 309 307 306 304 302 301 301 300 300 300 300 301 302 302 298 298 298 299 298 297 297 297 297 296 296 296 296 296 296 296 303 307 307 307 309 309 310
326 325 315 309 311 310 310 309 308 306 303 301 300 300 299 298 298 301 298 297 297 297 296 296 296 296 296 296 296 296 296 295 295 295 295 296 304 305 306 306 307 308 308
324 321 309 311 312 311 311 310 308 306 303 300 298 298 300 300 299 297 297 296 296 296 296 296 296 296 296 295 295 295 295 295 295 294 295 300 302 303 304 305 306 307 307
319 309 310 312 312 311 310 310 309 306 302 299 297 296 298 299 296 297 297 296 295 296 296 296 296 295 295 294 294 293 293 293 293 293 296 300 301 302 303 303 304 304 305
310 309 311 311 311 311 310 309 308 305 302 297 295 295 294 293 295 296 296 295 294 293 294 293 294 294 293 292 292 291 291 291 290 291 296 298 300 300 301 302 302 303 304
309 310 311 311 310 310 309 308 307 304 300 297 295 294 293 293 293 293 294 295 294 293 292 291 291 291 290 290 290 290 288 288 290 293 294 296 297 298 299 299 300 301 301
309 310 310 309 309 308 308 307 305 302 299 296 294 293 293 292 293 292 293 293 293 293 292 291 290 290 290 289 289 289 287 288 290 291 292 293 294 295 296 297 297 298 299
309 310 309 308 307 307 306 305 303 300 296 294 293 293 293 292 292 291 291 292 292 291 291 290 290 289 289 289 288 287 287 288 288 289 290 292 292 292 293 293 294 295 295
309 309 308 306 306 306 305 303 301 298 295 294 293 293 293 292 291 290 290 290 290 291 290 290 290 289 288 288 288 287 287 288 288 288 289 289 290 290 290 291 291 293 293
308 308 307 305 305 304 303 302 299 296 294 293 293 292 292 291 291 289 289 289 289 289 289 289 289 289 288 288 287 287 287 287 287 288 288 288 289 289 289 289 290 290 291
307 306 305 304 303 303 302 300 297 295 293 293 292 292 291 290 289 288 288 288 288 288 288 288 288 288 287 287 287 287 287 287 287 287 287 288 288 288 288 288 289 289 289
305 304 303 303 302 301 300 297 295 293 293 292 291 291 290 289 287 287 287 287 287 287 287 287 287 287 287 287 287 287 287 286 286 286 286 286 286 287 287 288 288 288 288
304 303 302 302 301 299 297 295 293 292 291 291 291 290 288 287 286 286 286 286 286 286 287 287 287 286 287 287 287 287 286 285 285 285 285 285 286 286 286 287 287 287 288
302 301 301 301 299 297 295 292 291 290 290 291 289 288 287 286 285 285 285 286 286 286 286 286 286 286 287 287 286 285 285 284 285 285 285 285 285 286 286 287 287 287 287
301 301 300 299 297 295 292 290 289 290 290 289 288 286 286 285 285 285 286 286 286 286 286 286 286 287 287 286 285 284 284 284 284 285 284 285 285 285 286 286 286 286 286
300 299 298 297 294 291 290 289 290 289 288 288 287 286 286 285 284 285 286 286 286 285 285 286 288 286 285 285 284 284 284 284 284 284 284 284 285 284 284 285 285 285 285
299 298 296 294 291 289 288 290 290 287 287 287 286 286 286 286 285 285 285 285 285 286 286 286 285 285 284 284 284 284 284 283 283 284 284 284 284 284 284 284 284 285 285
297 296 293 291 288 288 290 289 287 285 286 286 285 286 286 285 285 285 284 285 285 285 285 285 284 284 283 284 283 284 283 283 283 283 284 283 284 284 284 284 284 285 285
295 292 290 288 289 290 289 286 285 285 285 286 285 285 285 285 285 285 285 285 285 284 284 284 283 283 283 283 283 283 282 282 283 283 283 283 283 283 284 284 285 286 285
291 289 288 290 290 287 286 285 284 284 285 285 285 285 285 285 284 285 285 284 284 284 283 283 283 284 283 283 282 282 282 282 282 282 283 283 284 283 283 285 286 286 286
288 288 290 289 287 285 285 284 284 284 285 285 285 285 285 284 284 284 284 284 283 283 282 283 283 282 282 282 282 282 282 282 281 281 283 282 282 282 283 284 286 288 289

GFSMA_850_thetae_015.txt.gz
Theta_e
326 329 330 326 325 326 325 324 324 314 309 309 307 306 305 304 305 306 308 305 305 307 308 309 310 311 312 313 314 314 315 315 317 318 320 320 320 320 320 320 319 319 319
330 330 326 326 326 325 325 324 311 309 308 306 304 303 303 303 303 304 307 304 305 306 307 308 308 308 308 308 308 308 309 309 309 310 312 313 313 314 315 315 315 316 316
331 327 327 327 326 325 324 310 309 308 305 303 303 303 302 302 303 304 304 304 304 305 305 305 304 303 302 300 299 299 299 299 299 299 300 301 302 304 306 307 309 310 310
327 327 328 326 325 324 310 310 308 305 303 302 302 302 302 302 302 302 302 302 302 300 300 300 299 299 299 298 298 298 298 298 298 298 298 298 298 298 298 299 299 299 300
328 327 326 325 324 311 310 309 308 306 305 303 302 301 301 301 302 301 301 301 302 302 300 298 299 299 300 299 298 298 298 297 297 297 297 297 297 297 299 310 307 303 308
328 327 326 325 318 310 311 310 309 308 306 305 302 301 301 302 302 302 302 301 300 299 298 297 297 297 297 297 297 297 297 297 296 296 296 296 297 297 304 309 308 309 309
328 326 325 323 310 312 311 311 311 310 308 306 302 301 302 301 301 304 303 299 298 297 296 296 296 297 297 297 297 296 296 296 296 296 295 296 299 303 305 306 306 307 308
327 325 324 310 311 312 312 312 311 309 308 306 302 301 302 302 301 300 300 298 297 296 296 296 297 296 296 296 295 295 295 295 294 294 294 295 298 302 304 305 305 306 307
326 323 316 310 312 312 312 311 311 309 307 305 301 299 300 301 299 299 298 298 297 297 296 296 295 295 295 294 294 293 292 292 293 292 292 294 299 300 302 303 304 305 305
324 318 310 311 312 311 311 311 310 309 307 303 299 298 296 295 296 297 298 298 297 296 295 295 295 295 294 293 292 292 291 292 291 290 292 297 298 299 300 301 302 303 303
320 312 310 311 311 311 310 310 309 308 306 303 299 297 295 295 295 295 295 296 296 295 295 294 293 293 292 291 291 291 291 291 291 293 294 295 296 297 297 298 299 300 300
312 309 310 311 310 310 309 309 308 307 305 301 298 296 295 294 294 294 294 294 294 294 294 293 293 292 291 291 290 290 290 290 290 292 293 294 295 295 296 296 296 297 297
310 309 309 310 309 309 308 307 307 306 303 299 296 295 294 294 293 293 292 292 292 292 292 292 292 292 291 290 290 289 289 289 290 291 292 293 293 293 293 293 293 294 294
312 309 309 309 308 308 307 306 305 304 301 297 295 294 294 294 293 292 292 291 291 291 291 291 291 291 290 290 289 289 288 288 289 290 290 291 291 291 291 291 292 292 292
311 308 308 308 307 306 305 305 303 301 298 295 294 293 293 292 292 291 291 290 290 290 290 290 290 290 289 289 288 288 288 288 289 289 289 289 289 289 290 290 290 290 291
308 308 307 306 305 305 304 303 301 299 296 293 293 292 292 292 291 290 289 289 289 289 289 289 289 288 288 288 288 288 288 288 288 288 288 288 288 289 288 289 289 289 290
307 307 306 304 304 304 303 301 298 296 294 292 291 291 291 291 290 288 288 287 287 287 288 288 288 288 288 287 287 287 288 287 287 287 287 287 287 288 288 288 289 289 289
306 305 304 303 303 302 301 299 296 293 292 291 291 291 291 289 288 287 287 287 287 287 287 288 288 287 288 287 287 288 287 286 285 285 286 287 287 288 288 288 288 289 289
304 303 303 302 302 301 299 296 293 291 290 290 291 290 289 288 287 287 287 287 287 287 287 287 287 287 286 287 288 287 286 286 285 285 285 286 286 286 287 288 288 288 288
303 302 302 302 301 299 297 293 291 290 290 291 290 289 288 287 287 286 286 286 287 286 286 286 286 286 287 287 286 286 285 284 285 284 285 285 286 286 286 287 287 287 287
301 301 301 300 300 298 294 291 289 290 290 289 288 288 288 287 286 286 287 286 286 285 285 285 286 287 286 285 285 284 284 284 284 285 284 284 285 284 285 285 285 286 286
301 300 300 299 297 293 291 289 291 289 287 287 287 287 287 286 286 286 287 286 286 286 286 286 287 286 285 285 284 284 283 284 285 284 284 284 284 284 284 284 285 286 286
299 299 298 296 293 290 290 290 289 286 286 286 286 286 286 286 286 286 285 285 285 285 286 285 285 285 284 283 283 284 284 284 283 283 283 284 284 284 284 284 285 286 286
298 297 295 292 289 291 290 287 286 286 285 286 286 286 286 286 286 286 285 285 285 284 284 284 284 284 283 284 285 285 283 283 283 283 283 283 284 284 284 284 286 287 287
297 294 291 290 291 288 287 286 286 285 285 286 286 286 286 286 285 285 285 285 284 283 283 283 283 284 284 284 284 283 283 283 283 283 283 282 283 283 283 286 286 286 287
292 290 291 290 288 286 286 286 284 283 285 285 285 285 285 285 285 285 285 284 283 282 282 282 283 282 282 282 283 283 283 283 283 282 284 283 282 282 282 283 285 287 288

GFSMA_850_thetae_018.txt.gz
Theta_e
319 323 329 330 329 325 323 324 324 316 310 309 307 305 304 304 304 305 306 306 305 306 307 308 309 309 309 309 309 309 309 310 310 311 311 312 313 315 315 316 317 318 318
325 330 330 328 324 324 325 325 316 310 309 305 304 303 303 303 303 304 306 305 304 305 306 306 306 306 306 305 303 302 301 300 300 301 301 303 306 308 310 311 311 313 313
330 329 329 325 325 325 324 318 310 309 306 304 303 303 303 303 302 303 304 304 303 303 304 304 302 300 300 299 299 299 299 299 299 299 299 299 299 299 299 299 299 300 302
330 330 327 327 326 325 322 310 310 308 307 305 303 302 302 302 302 302 303 302 302 301 302 302 301 299 299 300 300 299 299 298 298 298 298 298 299 298 298 298 299 300 299
331 327 327 327 325 324 310 311 310 310 309 307 305 303 302 302 303 302 302 301 301 302 301 299 298 298 298 298 298 298 298 298 297 297 297 297 297 297 298 298 306 310 309
329 327 327 326 325 317 311 311 312 312 311 309 306 304 302 301 302 302 302 302 300 299 298 297 298 298 298 298 297 297 297 297 296 296 296 296 297 297 299 299 307 308 309
329 328 327 326 325 310 312 312 312 312 311 310 306 303 303 302 301 301 303 303 299 298 298 297 297 297 297 297 296 296 296 296 296 295 295 295 295 296 303 304 306 307 307
329 328 326 325 318 311 312 312 312 312 312 310 307 303 302 301 301 301 300 299 299 298 297 297 297 297 297 296 296 295 295 294 294 294 293 294 296 300 301 303 304 305 306
329 328 326 324 311 312 312 312 312 311 311 310 307 303 300 301 301 299 299 298 298 297 297 297 297 296 296 295 294 294 293 293 292 293 294 297 298 299 300 301 302 303 304
329 327 325 319 310 312 312 312 311 311 310 309 307 302 299 298 297 297 298 298 297 297 297 296 296 296 295 294 293 293 292 291 292 295 295 296 298 299 299 300 301 301 302
328 324 323 314 311 312 312 311 311 310 309 308 306 302 298 297 296 296 296 296 296 296 295 295 294 294 293 292 292 292 291 291 291 293 294 295 297 297 298 299 299 299 299
325 321 319 311 311 311 311 310 309 309 308 307 304 301 298 296 295 295 294 295 294 295 294 294 293 292 292 292 291 291 290 291 291 292 293 294 295 296 296 296 296 296 296
322 321 318 310 310 311 310 309 308 308 307 305 303 299 296 295 294 294 293 293 293 293 293 293 291 291 291 291 291 290 290 290 290 291 292 293 294 294 293 293 294 294 294
323 318 314 309 310 310 309 308 307 307 306 304 301 298 296 295 294 293 292 292 291 291 290 290 290 289 290 290 290 289 289 288 289 289 291 292 291 291 291 291 292 292 293
320 316 311 308 309 309 308 307 306 306 304 302 299 296 294 293 292 292 291 291 290 289 289 289 289 289 288 288 288 288 288 288 288 289 290 290 289 290 290 290 290 291 291
319 312 310 307 308 307 306 305 305 304 302 299 296 294 293 292 292 291 290 290 288 288 288 287 287 287 287 287 287 288 287 287 287 288 288 288 288 289 289 289 290 290 291
312 310 308 307 306 306 305 305 304 303 300 297 294 292 291 291 291 291 289 288 287 287 287 287 287 287 287 287 287 287 286 288 287 287 287 287 288 288 289 289 289 290 290
309 307 305 305 305 305 304 304 302 300 297 294 292 291 291 291 290 289 288 287 287 287 287 287 287 287 287 286 285 286 287 287 285 285 286 286 287 287 288 288 289 289 289
305 304 304 304 304 303 303 301 300 296 293 291 291 291 291 290 289 288 287 287 286 286 286 286 286 285 285 285 286 286 285 285 285 284 285 285 285 286 287 288 288 288 288
304 303 303 303 303 302 302 300 296 293 291 291 291 290 289 288 288 287 287 287 287 286 286 286 285 285 285 286 286 285 284 284 284 284 284 285 285 285 285 286 286 286 287
303 302 302 302 302 302 300 296 292 291 291 291 289 287 288 288 287 287 287 287 287 287 286 286 285 285 286 285 285 284 284 283 284 284 284 284 284 285 285 286 285 286 286
301 302 302 303 302 301 296 292 291 291 290 288 287 287 287 286 286 287 287 287 287 287 286 285 286 285 284 284 284 284 283 284 284 284 284 284 285 285 285 285 285 285 286
303 302 301 301 299 297 292 291 290 288 287 287 286 286 286 286 286 286 285 286 285 285 285 285 284 284 284 284 284 284 285 285 284 284 283 284 285 284 285 285 285 285 286
300 301 302 300 295 291 292 290 288 287 287 286 285 286 286 286 285 286 286 286 285 285 284 284 284 284 284 284 285 285 284 284 283 284 283 283 285 284 284 285 285 286 287
301 302 298 292 291 290 289 288 287 286 285 284 284 285 285 285 285 286 286 285 285 284 283 283 283 283 284 284 284 283 283 283 283 283 283 282 284 283 284 285 285 285 285
299 295 291 291 290 288 287 286 286 285 283 283 284 284 284 284 285 286 285 285 284 283 283 283 283 283 283 283 283 283 282 283 282 283 284 282 282 281 282 282 284 285 286

GFSMA_850_thetae_021.txt.gz
Theta_e
320 318 325 328 326 327 323 322 323 322 311 310 307 305 304 303 304 304 305 305 305 305 307 307 307 307 307 306 306 305 304 303 303 303 303 305 306 308 310 312 313 315 316
319 323 327 329 329 326 323 324 324 311 310 307 305 304 303 303 303 303 304 305 304 304 305 305 305 304 303 301 300 299 299 299 300 299 299 299 299 299 299 301 303 306 308
324 324 328 330 328 323 324 324 314 310 308 306 304 304 303 303 302 303 303 303 303 303 303 303 302 302 301 300 300 300 300 300 300 299 299 299 299 299 299 299 298 298 300
329 329 329 329 325 325 325 321 310 309 309 308 306 304 303 302 302 303 303 302 302 302 302 302 301 299 299 298 298 298 298 298 298 298 298 298 298 298 298 299 299 299 309
330 330 329 328 326 326 324 311 310 311 311 310 308 305 303 302 302 302 302 302 301 301 300 299 299 298 298 298 298 298 298 298 297 297 297 297 297 297 298 298 300 302 308
330 330 329 326 326 325 321 311 311 312 312 311 308 305 303 302 302 302 301 301 302 300 299 299 298 298 298 298 298 297 297 296 297 296 296 296 297 299 300 301 303 305 307
330 331 328 326 325 325 314 312 312 313 312 311 309 305 303 302 302 302 302 302 302 299 299 298 298 298 298 297 297 296 296 295 295 295 295 296 298 300 301 302 303 305 305
331 331 328 327 326 325 311 312 313 313 312 312 310 306 303 302 302 302 301 300 300 299 298 298 297 297 297 296 296 295 294 294 293 294 294 298 299 299 301 302 303 303 304
332 330 328 326 325 321 311 313 313 313 312 312 311 308 303 301 301 299 299 299 298 298 298 297 297 296 296 295 294 294 293 293 292 295 298 299 299 299 300 301 302 303 303
332 329 328 326 323 316 312 313 313 312 312 311 310 309 305 302 299 299 298 298 298 297 297 297 296 295 294 293 293 292 292 292 292 295 297 297 298 299 300 300 301 301 301
331 329 326 325 318 311 312 313 312 312 311 311 310 308 305 301 299 297 297 298 297 297 296 295 295 294 293 292 292 292 291 291 292 294 295 296 297 297 298 299 299 299 300
328 328 326 324 315 311 312 312 312 311 310 310 309 307 304 300 297 296 295 295 295 295 295 295 294 292 291 290 291 291 290 290 292 293 293 294 295 296 296 296 296 297 297
328 326 323 323 313 311 311 311 311 310 309 309 308 306 303 298 296 295 294 293 293 294 294 294 292 290 290 289 290 290 290 290 289 291 291 293 293 294 294 293 294 294 294
327 324 324 318 311 310 310 309 309 309 308 308 306 304 300 296 295 294 293 292 292 292 292 291 290 289 289 289 288 288 288 288 287 289 290 291 291 291 291 291 292 292 293
325 322 320 313 309 309 309 308 308 307 307 306 305 302 298 295 293 292 292 291 291 289 289 289 288 288 288 287 287 287 287 287 288 288 289 290 290 289 290 290 291 291 292
324 318 314 310 308 308 307 307 307 306 306 305 303 299 295 293 292 291 292 291 290 288 287 287 287 287 286 286 287 286 286 285 286 287 288 288 288 289 289 289 290 290 291
319 313 312 312 307 307 305 306 305 305 304 303 299 295 292 291 292 292 291 290 288 287 287 287 287 286 286 286 285 285 285 286 286 285 286 287 288 288 288 289 289 289 290
312 311 309 306 305 306 304 305 304 304 302 299 294 292 291 292 291 290 289 288 288 287 286 286 286 286 285 285 285 285 286 285 284 284 285 286 286 287 287 287 288 289 289
312 311 304 304 304 303 304 303 303 302 298 295 292 291 292 291 290 289 288 288 287 287 287 286 286 286 285 285 286 286 284 284 284 284 284 285 285 286 286 287 287 287 288
309 304 304 304 303 303 303 303 302 299 294 292 292 291 289 288 288 288 287 287 287 287 287 286 286 286 285 285 285 284 284 284 284 284 284 285 285 285 285 285 285 286 286
306 305 302 302 302 302 302 303 298 294 292 292 290 288 287 287 287 287 287 287 287 287 286 286 285 285 285 284 284 284 283 283 284 285 284 284 284 285 285 286 286 286 286
301 301 300 302 301 302 302 296 293 292 292 290 289 288 287 287 286 286 286 286 287 286 287 285 285 285 284 283 283 283 283 284 284 284 284 283 284 285 285 285 285 285 285
298 299 301 300 301 300 296 293 292 291 289 288 288 286 286 286 286 285 285 286 286 286 286 285 284 283 283 283 283 284 284 284 283 283 283 283 284 285 285 285 285 286 286
300 301 300 299 297 293 292 292 291 289 288 287 286 285 285 285 285 285 286 286 286 285 284 284 283 283 283 284 284 284 283 283 283 284 284 282 284 284 284 284 285 286 286
302 298 296 292 291 292 291 290 289 288 287 286 284 284 284 284 284 285 286 286 285 285 284 283 283 283 283 283 283 283 283 282 283 283 285 283 284 283 283 285 285 285 285
296 294 290 291 291 289 288 288 288 287 285 284 284 284 283 284 284 285 286 285 284 284 283 283 283 283 283 284 284 284 283 282 282 281 285 282 282 282 282 283 283 285 286

GFSMA_850_thetae_024.txt.gz
Theta_e
321 322 322 323 323 324 324 322 322 323 318 310 308 305 304 303 303 304 304 305 305 306 307 307 306 306 305 304 303 302 301 300 300 299 299 299 300 300 303 307 310 312 313
323 322 321 326 326 325 325 322 323 323 311 309 305 304 303 303 303 303 303 304 304 304 304 304 304 303 301 300 300 300 300 300 300 300 300 300 300 300 299 299 299 300 303
329 320 320 326 328 328 325 323 323 317 310 307 306 304 303 303 303 303 303 303 303 303 302 302 301 302 299 298 298 299 299 299 299 299 299 299 299 299 299 299 299 299 299
331 324 321 325 328 329 323 324 323 311 309 309 307 305 303 302 302 302 303 302 302 302 301 301 299 299 298 298 298 298 299 299 298 298 298 298 298 298 298 298 299 302 302
332 329 326 327 329 328 325 324 317 310 310 311 309 306 304 302 302 302 302 302 301 301 300 299 299 298 298 298 298 298 298 297 297 297 297 297 297 297 297 298 301 304 306
332 330 329 329 329 327 325 324 311 311 312 311 309 306 303 303 302 302 302 301 302 302 300 299 298 298 298 298 298 297 297 296 296 296 296 297 299 300 301 302 303 304 306
332 329 329 329 329 326 325 321 311 312 312 312 310 305 304 303 302 302 302 302 302 301 299 298 298 298 298 297 297 296 296 295 294 297 295 298 301 302 302 303 303 304 305
332 331 329 330 328 325 325 318 311 313 313 312 311 307 304 303 302 302 301 302 301 300 299 298 298 297 297 296 296 295 294 294 293 294 297 299 301 301 301 302 303 304 304
332 332 330 330 328 325 324 316 312 313 313 312 312 310 306 303 303 301 300 299 299 298 298 298 297 296 295 295 295 294 293 293 292 295 298 299 300 300 301 301 302 303 303
331 331 330 330 328 325 323 313 312 313 313 312 312 311 310 308 303 300 299 299 298 298 298 297 296 295 295 294 293 293 292 292 293 296 297 298 299 299 300 300 301 302 302
331 330 330 331 327 325 318 312 312 313 312 312 311 311 310 308 305 301 300 298 298 297 297 296 295 295 294 293 292 291 291 291 292 294 295 297 297 297 298 299 299 300 300
330 331 331 331 327 324 318 311 312 312 312 311 311 310 309 307 303 300 298 297 297 297 296 295 295 294 292 291 290 290 290 290 290 291 293 294 295 296 296 296 297 298 297
329 330 330 330 325 322 313 311 311 311 311 310 309 309 307 305 302 298 296 295 294 294 294 295 293 292 290 290 289 289 289 288 288 288 291 293 293 293 293 294 294 294 295
328 329 329 327 321 319 310 310 310 310 309 309 308 308 306 303 299 296 295 293 292 292 293 293 291 290 289 288 288 288 287 287 287 288 290 290 290 291 292 292 292 292 293
328 329 326 325 316 312 309 309 309 308 308 307 307 306 304 301 297 295 293 292 291 290 290 290 289 289 288 288 287 286 286 286 285 286 287 289 289 290 290 290 291 292 292
328 328 324 321 316 309 306 307 309 307 307 305 306 305 302 297 294 293 292 292 291 290 288 288 288 288 287 287 286 286 285 285 285 286 286 287 288 288 289 290 290 290 291
328 325 323 318 310 307 309 307 306 304 306 303 304 302 298 295 293 292 292 291 290 289 288 287 287 287 287 286 286 285 285 286 285 285 286 286 287 288 288 288 289 289 290
326 322 320 313 308 307 306 309 306 303 304 302 302 299 295 293 292 292 291 289 288 288 287 287 287 287 286 286 285 285 285 284 284 285 285 286 286 286 287 287 288 289 289
322 317 314 309 306 306 305 304 301 302 302 301 298 295 293 292 291 290 288 288 288 287 287 287 287 286 286 285 285 284 283 283 284 284 285 285 285 286 286 287 287 287 287
317 310 306 304 305 303 299 299 301 300 301 299 295 293 292 290 288 288 288 287 287 287 287 286 286 286 285 285 284 283 283 283 284 285 285 285 286 285 285 285 285 286 286
305 303 306 304 300 300 300 298 300 300 297 294 293 291 289 288 287 287 286 287 287 287 286 286 286 286 285 284 284 283 283 284 284 285 285 284 285 284 285 285 286 286 286
303 304 298 298 300 297 299 300 298 293 293 292 290 289 288 287 286 286 286 286 286 287 287 286 286 285 284 284 283 283 284 284 284 284 284 284 285 285 286 286 286 286 286
299 300 300 299 297 297 298 300 292 292 291 289 288 288 287 286 285 285 285 285 285 286 286 285 285 284 284 283 284 284 284 283 283 284 284 284 285 285 286 286 286 286 286
301 301 298 299 300 301 296 292 291 289 288 288 287 286 285 284 284 284 285 285 285 285 285 285 284 283 283 284 284 284 283 283 283 284 285 283 285 285 285 285 286 286 286
302 300 299 300 296 291 291 290 289 288 287 286 286 285 284 283 283 285 285 285 285 285 284 283 283 283 284 284 283 283 284 283 283 284 284 283 285 284 284 285 286 285 286
300 295 293 291 291 290 288 287 288 287 286 285 284 283 283 282 283 285 285 285 284 283 283 283 283 284 284 284 284 284 284 283 283 282 283 283 283 282 282 282 284 285 286

GFSMA_850_thetae_027.txt.gz
Theta_e
323 324 323 324 321 318 321 322 322 321 322 316 310 308 304 303 303 304 304 304 305 308 307 306 306 305 304 303 301 300 300 300 300 300 301 301 300 300 300 300 302 307 310
320 323 323 323 322 323 324 323 321 322 322 311 308 305 304 303 303 303 303 304 304 304 304 304 304 303 301 300 300 299 299 299 299 299 300 300 300 300 300 300 300 300 299
319 324 325 323 324 326 325 324 322 323 319 309 307 305 304 303 303 303 303 303 303 303 302 301 301 301 299 298 298 299 299 299 299 299 299 299 299 299 299 299 299 300 300
326 328 326 320 324 327 327 325 323 323 313 308 307 306 305 303 303 302 303 303 302 302 301 301 300 299 298 298 298 298 298 298 299 299 298 298 298 298 298 298 299 299 300
332 331 329 322 324 327 328 325 324 323 310 309 309 306 305 303 302 302 302 302 302 302 300 300 299 299 298 298 298 298 298 298 298 298 297 297 297 297 298 299 300 302 303
332 332 330 325 325 328 328 326 325 320 310 310 309 306 305 303 303 302 302 302 301 302 302 299 299 298 298 298 298 297 297 296 296 297 297 296 296 299 301 302 303 304 305
332 331 330 328 328 328 328 326 324 315 310 311 309 306 304 303 303 302 302 302 302 302 301 299 299 298 298 298 297 297 297 296 295 296 298 299 300 302 303 303 304 304 305
332 331 331 328 327 327 329 325 324 313 311 312 310 307 304 304 303 302 302 302 302 302 300 299 298 298 297 297 296 296 296 295 294 295 298 300 301 302 302 303 303 304 304
332 331 331 331 329 328 329 325 324 312 312 312 312 309 306 305 304 303 302 301 301 300 299 298 297 297 296 296 296 295 294 293 293 295 298 300 301 301 301 302 302 303 303
331 332 331 330 330 330 330 326 323 313 312 313 312 311 311 309 306 303 301 300 299 299 298 297 297 296 295 295 295 294 293 292 292 296 298 299 299 300 300 301 301 302 302
328 330 331 330 331 329 329 326 323 311 312 313 312 312 311 310 308 306 302 301 299 298 298 297 296 295 295 294 293 292 291 291 291 291 294 296 297 298 299 299 300 300 300
328 328 328 329 330 330 329 327 320 311 312 312 312 311 311 310 309 307 304 301 299 298 297 296 295 295 294 293 292 291 290 290 289 289 291 294 295 296 297 297 297 297 298
327 327 327 329 328 329 329 326 316 311 312 311 311 310 310 309 308 306 303 299 297 297 296 295 295 294 292 291 291 290 289 289 289 288 289 292 293 293 293 294 295 295 296
326 326 326 327 328 328 327 326 312 310 310 310 310 309 308 307 306 305 301 297 295 294 294 295 294 292 290 289 289 288 288 288 288 288 287 288 290 291 291 292 293 293 293
328 326 325 326 327 325 325 322 310 309 309 309 308 307 307 307 304 301 299 296 293 292 292 293 292 291 289 289 288 287 287 287 286 286 286 286 288 289 289 290 290 291 292
326 327 325 326 325 323 320 316 308 307 307 306 308 306 307 306 300 297 295 294 293 292 290 290 289 289 289 288 288 287 286 286 285 285 285 285 287 288 288 289 290 290 290
327 326 326 326 323 322 316 309 307 305 306 307 304 303 304 303 298 294 293 293 292 291 289 289 288 287 287 287 286 286 286 285 285 285 285 285 287 287 288 288 289 289 290
326 326 325 324 320 311 308 307 303 308 306 304 306 305 300 299 295 292 293 292 290 289 288 288 287 287 287 286 286 285 285 285 284 285 285 285 286 286 287 287 288 289 289
324 324 323 317 309 307 306 303 307 305 306 305 303 299 296 295 293 292 291 289 288 288 287 287 287 286 286 286 285 285 284 284 284 285 286 286 286 286 286 287 287 287 287
319 317 314 312 307 305 304 305 304 304 301 299 298 298 294 292 291 289 288 288 287 287 287 287 286 286 286 285 285 284 283 284 285 286 286 285 285 285 285 285 286 285 285
314 313 310 304 304 303 302 302 301 298 299 299 294 293 290 289 288 288 287 287 287 287 286 286 286 286 285 285 284 283 283 284 284 285 285 285 285 286 286 286 286 287 287
306 305 302 302 302 302 302 302 300 298 296 292 294 290 288 287 287 286 286 286 286 286 287 286 286 286 285 284 284 283 284 284 283 284 284 285 285 286 287 286 286 286 286
303 302 302 303 301 299 301 298 296 296 297 290 289 288 287 287 286 285 284 284 284 284 286 286 285 285 284 283 284 284 284 284 283 284 284 285 285 286 286 286 286 286 286
302 302 302 301 301 301 300 299 298 292 288 287 287 287 286 285 284 284 284 285 285 285 285 285 284 283 283 284 284 284 283 283 283 284 285 285 286 286 286 286 286 287 286
303 302 302 300 298 298 297 295 288 287 287 287 286 285 284 283 283 283 285 285 285 285 284 283 283 283 283 283 283 283 284 283 284 285 285 284 285 284 285 286 285 286 286
300 299 298 299 295 291 288 287 287 287 287 286 285 284 283 282 282 285 285 285 284 283 283 283 283 283 283 284 284 284 284 283 283 283 283 283 283 282 282 283 284 285 286

GFSMA_850_thetae_030.txt.gz
Theta_e
326 327 328 326 325 322 319 320 321 321 321 321 313 309 306 304 303 304 304 305 307 309 308 306 305 305 304 302 301 301 300 300 300 300 300 301 301 301 301 300 300 300 303
324 324 324 324 324 321 319 322 322 321 321 322 312 308 305 304 303 303 303 304 304 304 304 304 303 302 301 301 300 300 300 300 300 300 300 300 300 300 300 300 300 300 300
322 323 323 324 322 322 323 324 323 321 322 321 310 307 305 304 303 303 303 303 303 303 302 302 301 301 299 299 299 299 299 300 300 300 299 299 299 299 299 299 299 300 300
319 321 321 325 324 323 325 325 325 322 322 318 308 307 306 304 303 303 303 303 302 302 301 301 300 300 299 298 298 299 299 299 299 299 299 298 298 298 298 298 298 299 299
320 319 323 327 325 322 325 326 326 323 323 315 308 308 306 304 303 302 303 302 302 301 301 300 300 299 299 299 299 299 298 298 298 298 298 298 297 298 300 301 303 303 303
327 327 330 330 327 322 325 327 327 324 323 312 308 308 306 305 303 302 302 302 302 301 302 302 300 299 299 299 299 298 298 297 297 297 296 297 297 299 303 304 304 305 306
332 332 332 331 328 324 325 327 326 324 323 311 309 307 306 304 303 303 302 302 302 302 302 302 300 299 299 299 298 298 297 296 296 296 296 298 300 302 303 304 304 305 305
333 332 330 330 328 327 326 326 326 325 323 311 310 308 305 305 304 303 303 303 302 302 302 301 300 299 298 298 297 297 296 296 296 295 296 299 302 302 303 303 304 304 304
333 333 332 330 329 327 327 327 327 326 323 313 311 309 307 307 306 304 303 303 303 302 302 300 299 299 298 298 296 296 296 295 294 293 297 300 301 301 302 303 303 304 304
330 332 332 330 329 329 328 328 328 327 324 315 311 311 310 309 306 306 305 304 303 302 300 299 299 298 297 296 296 295 294 293 292 292 295 299 300 300 301 301 302 302 303
329 327 330 330 330 330 329 330 329 328 324 314 312 312 312 311 310 309 307 307 304 302 300 299 298 297 296 295 295 294 293 292 291 291 291 294 297 298 299 300 300 301 301
329 329 327 328 328 329 330 329 329 328 325 316 311 312 312 312 311 310 309 308 305 302 300 299 297 296 295 295 294 292 291 291 291 290 290 291 295 296 297 297 297 298 298
329 329 328 327 327 327 328 329 328 325 324 315 310 311 311 311 311 310 309 307 305 302 300 298 296 295 294 294 292 291 290 290 290 289 289 289 292 293 293 293 294 295 296
325 328 329 327 326 326 327 328 327 324 320 313 312 308 309 309 309 309 308 305 301 299 298 296 295 294 293 291 290 289 289 289 288 288 288 288 288 288 290 291 292 293 293
324 326 327 329 327 326 327 327 326 323 318 314 312 309 307 307 307 307 307 308 299 295 294 296 294 293 291 290 290 289 288 288 287 287 286 286 286 286 288 290 290 291 291
323 323 326 327 328 326 326 326 322 320 313 312 308 309 306 307 305 303 302 301 296 294 292 293 292 291 289 289 289 288 287 287 286 286 286 285 285 287 288 289 290 291 291
323 326 325 326 327 326 323 321 319 314 308 305 304 307 306 304 304 304 297 296 294 293 291 291 289 289 288 288 288 287 286 286 286 285 285 285 286 287 288 288 289 289 290
323 325 325 325 324 323 320 317 312 308 305 303 305 306 306 301 304 303 301 294 292 291 290 288 288 288 287 287 286 286 286 285 285 285 286 286 286 286 286 287 288 288 289
322 322 321 321 321 320 318 311 307 305 301 304 304 304 303 296 296 296 293 292 290 289 288 287 287 287 286 286 286 285 285 285 284 285 286 286 286 286 286 286 287 287 287
319 317 318 318 318 314 308 305 302 302 304 304 304 302 297 295 296 295 291 290 288 288 287 287 287 286 286 286 285 285 284 283 284 286 286 286 286 286 286 286 286 286 286
318 315 315 313 308 305 302 303 304 303 302 302 301 298 293 293 295 292 289 288 287 287 287 286 286 286 286 285 285 284 283 284 285 286 286 286 286 286 287 287 287 287 286
313 311 306 305 303 303 303 302 303 302 302 300 300 296 297 291 288 288 287 286 285 285 285 286 286 285 285 284 284 283 284 284 284 285 284 284 285 287 287 287 287 287 287
304 304 303 302 301 302 302 302 302 302 301 299 299 294 287 288 287 286 285 284 284 284 285 285 285 285 284 283 283 284 284 283 283 284 284 284 286 286 287 287 287 287 287
299 300 300 301 302 301 300 300 299 299 300 293 286 287 287 287 286 284 283 284 285 285 285 285 284 283 283 284 284 284 283 283 283 285 284 284 286 286 286 286 287 287 287
300 300 299 299 299 299 298 298 299 292 287 287 287 287 286 285 283 283 284 285 285 285 284 283 283 283 283 283 283 283 284 283 284 285 285 284 286 285 285 286 286 286 286
298 298 298 298 298 298 294 288 288 287 287 287 286 285 283 282 282 284 285 285 284 283 282 282 282 283 283 284 284 284 284 284 283 283 284 283 284 284 282 284 285 286 286

GFSMA_850_thetae_033.txt.gz
Theta_e
327 328 328 327 325 321 319 318 319 320 320 321 321 312 308 305 304 304 305 306 309 310 307 305 305 304 304 302 302 301 300 300 300 301 301 301 301 301 301 301 301 301 300
324 325 328 328 327 324 322 319 319 321 320 321 321 311 307 305 304 303 304 304 305 305 305 304 303 302 302 302 300 300 300 300 301 301 301 301 301 301 300 300 300 300 300
322 324 325 325 324 324 323 319 321 322 321 321 321 311 307 305 304 303 303 304 304 303 303 302 302 301 300 299 299 300 300 300 300 300 300 300 300 300 300 300 300 300 300
319 321 323 323 323 323 323 322 324 324 321 322 321 310 307 306 304 303 303 303 303 302 302 301 301 300 300 299 299 299 299 299 299 299 299 299 299 299 299 299 299 299 299
325 319 320 322 321 324 324 324 325 325 323 323 320 309 307 306 304 303 303 303 302 302 302 301 300 300 300 299 299 299 299 299 298 298 298 298 297 297 299 301 301 302 303
333 330 321 320 321 325 326 324 326 326 324 323 319 308 308 306 304 303 303 303 302 302 302 302 302 301 300 300 299 299 298 298 297 297 297 297 297 297 300 304 305 306 306
334 333 327 320 323 328 327 322 326 326 325 323 316 308 307 306 304 303 303 303 302 302 302 302 302 301 300 299 299 299 298 297 297 297 296 297 298 301 303 304 305 305 305
330 333 331 326 328 330 327 323 325 325 325 323 315 308 306 306 305 303 303 303 303 303 302 302 302 301 300 299 299 298 297 297 296 296 296 297 301 303 303 304 304 305 306
328 329 330 330 330 330 327 326 326 325 325 325 320 310 308 308 307 305 304 303 303 303 303 303 302 301 300 299 299 298 297 296 296 295 294 296 301 302 303 303 304 304 304
330 329 329 331 329 329 328 327 326 326 326 326 321 313 310 310 308 307 306 304 303 304 303 302 301 300 300 299 298 297 296 295 294 293 293 294 297 300 301 302 302 303 303
331 331 329 328 330 329 328 328 327 327 327 327 324 320 311 310 310 309 310 308 306 305 303 302 301 300 299 298 297 296 295 294 293 293 292 292 294 298 299 300 301 301 301
327 330 330 328 329 328 328 328 328 328 328 328 325 321 313 311 311 310 309 310 309 306 304 302 301 300 299 297 295 295 294 293 292 292 292 291 292 296 297 297 297 298 298
321 322 327 328 328 328 327 327 328 328 328 327 326 319 311 311 311 310 310 310 309 306 304 302 300 299 297 295 295 294 292 291 291 291 291 290 290 290 291 292 294 295 296
322 324 323 325 328 328 328 326 327 328 327 326 324 317 311 310 310 311 311 308 307 305 305 303 300 297 295 294 293 292 291 290 290 290 289 289 288 288 288 288 290 292 293
320 322 325 324 325 326 327 327 326 327 326 324 322 317 309 308 311 311 308 307 304 303 302 299 297 297 294 293 291 290 290 289 289 288 288 287 287 286 287 288 290 291 292
316 320 325 326 325 326 327 328 327 326 323 320 317 313 309 309 310 307 306 306 302 300 296 298 297 294 293 291 290 289 288 287 287 287 287 286 286 286 287 289 289 290 291
314 319 322 325 326 326 326 326 325 324 321 316 312 308 309 308 306 303 303 304 299 295 296 295 294 292 291 290 289 288 287 287 287 287 287 286 286 287 288 288 288 289 290
315 318 321 322 323 324 324 322 322 321 321 310 307 306 305 303 304 305 302 301 298 295 294 292 291 290 289 288 288 287 287 286 286 286 285 286 287 287 287 287 287 288 289
317 318 320 321 320 320 320 319 318 315 310 306 306 304 303 304 304 302 303 294 294 292 293 290 288 288 288 287 286 286 285 285 285 285 286 287 287 286 287 287 287 287 287
316 317 318 319 319 317 316 315 313 307 304 303 303 303 304 303 302 298 299 299 298 292 288 287 287 287 286 286 286 285 285 284 284 285 286 287 286 286 287 287 287 287 287
313 313 315 316 316 312 309 306 302 301 302 302 302 302 300 300 300 299 300 293 289 288 288 287 286 286 286 285 285 285 284 283 285 286 287 286 287 287 287 287 287 287 287
311 309 309 308 309 305 302 299 301 301 302 303 302 301 300 300 299 295 288 287 286 286 286 286 286 285 285 285 284 284 283 284 284 286 285 284 286 287 287 287 287 287 287
305 303 303 301 300 300 300 300 301 302 301 300 299 298 299 293 287 286 286 286 285 284 284 285 285 285 285 284 283 283 284 284 283 285 284 283 286 286 287 287 287 287 287
302 302 301 299 299 299 299 300 300 299 299 298 299 295 287 286 286 286 285 284 284 284 285 285 285 284 283 283 284 283 283 283 283 285 284 283 287 286 286 287 288 288 287
299 299 299 299 299 298 297 299 299 299 300 292 288 286 286 285 284 284 283 284 285 285 285 284 283 282 282 282 283 283 283 283 283 285 285 284 286 284 286 287 288 287 287
298 298 297 297 297 298 298 297 291 287 287 287 286 285 284 284 284 283 285 285 285 284 282 282 282 282 282 283 284 284 284 284 284 284 285 283 285 284 282 287 286 286 287

GFSMA_850_thetae_036.txt.gz
Theta_e
331 332 333 332 330 329 325 318 320 320 320 320 320 320 312 307 308 317 320 315 320 317 310 306 305 305 304 303 302 301 301 301 301 301 302 301 301 301 301 301 301 301 301
328 330 331 332 330 328 323 320 319 319 320 320 320 320 311 307 307 311 318 308 307 307 305 304 304 303 302 302 301 301 301 301 301 301 301 301 301 301 301 301 301 301 301
326 329 330 329 330 328 326 323 320 319 321 320 320 320 311 307 305 305 307 313 305 305 304 303 303 302 301 300 300 300 301 301 301 300 300 300 300 300 300 300 300 300 300
322 322 330 329 328 327 324 324 321 321 322 321 321 321 311 307 306 305 304 304 305 305 303 303 302 301 300 300 300 300 300 300 300 300 299 300 299 299 298 299 299 299 299
333 326 326 329 328 326 324 324 322 323 323 323 321 321 312 307 306 305 304 304 303 303 303 302 302 301 300 300 300 299 299 299 299 298 298 298 298 298 297 300 300 302 304
334 332 327 323 327 325 323 324 324 324 324 324 322 320 313 307 306 304 304 303 303 303 302 302 301 302 301 300 300 300 299 299 298 298 298 298 298 297 297 301 306 306 307
333 334 333 331 325 321 322 322 325 324 325 325 322 319 313 307 306 304 304 303 303 303 302 302 302 302 302 301 300 300 300 299 298 298 297 297 297 298 301 304 305 306 306
330 331 332 333 331 324 321 322 327 325 324 325 323 312 308 307 306 305 304 303 303 303 303 303 302 302 302 301 301 300 299 299 298 297 297 296 298 301 304 304 305 306 306
330 331 329 331 331 330 324 325 329 326 323 325 325 319 310 311 307 306 305 304 303 303 303 303 303 303 302 301 300 300 300 298 297 297 296 296 295 298 303 304 304 304 305
329 331 329 331 330 329 329 328 329 327 324 325 324 324 321 312 309 307 306 305 304 304 303 304 304 303 303 301 300 300 299 298 297 296 295 294 294 297 300 302 303 304 304
322 327 328 328 329 329 329 328 329 327 326 326 325 325 322 316 310 309 308 308 306 305 304 303 304 303 303 302 301 301 299 297 296 296 295 293 293 296 299 300 301 301 302
319 320 324 326 327 329 329 327 328 328 327 326 326 325 325 323 316 309 308 308 309 307 305 304 303 302 301 300 300 299 297 296 295 294 293 293 292 294 295 296 298 298 298
318 318 319 322 325 327 328 328 328 328 327 327 326 326 325 322 319 313 310 309 308 307 306 304 303 301 300 300 298 296 295 295 294 293 293 292 291 291 290 290 292 295 296
325 316 320 324 325 326 326 327 327 327 327 327 327 326 325 322 316 310 310 309 307 306 306 302 303 302 300 298 295 295 293 294 292 291 291 291 290 290 290 289 289 289 292
321 321 318 323 327 327 327 327 326 326 327 327 327 327 325 321 314 310 308 307 307 306 305 300 299 299 296 296 294 293 292 291 291 291 290 289 289 289 289 288 288 289 291
317 317 318 318 322 326 326 325 326 326 326 326 326 326 320 313 311 308 306 308 309 310 301 299 296 296 298 296 292 294 291 290 290 289 288 288 287 287 287 287 289 290 291
312 314 316 318 320 321 323 324 324 324 323 323 322 321 315 318 308 305 307 308 309 305 303 303 297 294 297 299 294 290 289 288 288 287 287 287 286 286 286 288 289 289 290
313 314 315 320 321 322 323 322 322 322 322 322 320 317 313 308 305 305 304 304 304 304 301 299 300 301 301 297 293 289 288 287 287 287 287 286 286 286 287 288 288 288 289
315 315 316 319 318 318 319 320 319 317 317 317 316 311 305 303 303 303 304 304 302 301 300 300 299 297 291 289 288 287 287 287 287 287 286 286 287 288 288 288 287 287 288
311 313 314 315 316 315 315 316 317 315 312 311 308 304 304 302 303 303 302 300 300 299 296 297 293 289 288 287 286 286 287 287 286 286 285 287 287 288 288 288 287 287 288
310 310 313 314 314 312 310 311 310 310 308 305 302 301 301 302 302 301 300 300 299 297 296 290 288 287 287 287 288 287 286 286 285 285 287 287 286 287 288 288 288 288 288
311 311 313 310 308 306 304 302 301 302 300 300 301 302 302 301 300 299 298 299 296 289 287 286 287 287 287 287 287 286 286 285 285 286 286 286 286 287 288 288 289 288 288
308 306 304 303 303 302 300 298 298 299 301 301 301 300 300 299 298 298 292 287 286 285 285 287 287 287 287 286 286 284 284 285 285 285 285 285 287 286 287 288 289 289 288
301 300 299 298 298 298 298 299 299 300 300 299 299 298 297 295 291 287 286 285 284 284 284 285 285 286 285 285 285 284 284 284 285 285 285 285 286 285 286 287 288 289 288
298 298 297 297 298 296 298 298 297 297 297 298 294 288 287 287 286 284 283 284 284 285 285 285 284 283 282 282 283 283 283 284 284 285 285 284 286 285 285 288 288 288 288
297 297 297 296 296 297 295 297 297 293 289 287 287 286 285 284 283 283 285 286 285 285 284 283 283 283 282 282 284 284 284 284 283 283 285 284 285 284 284 288 287 287 288

GFSMA_850_thetae_039.txt.gz
Theta_e
334 333 332 332 331 330 330 328 324 320 320 320 319 319 316 313 316 321 322 321 321 320 318 309 305 305 304 303 303 301 301 301 301 302 302 302 302 302 302 302 302 302 301
334 334 334 333 332 331 330 328 324 320 317 318 319 319 318 313 315 317 321 313 316 315 309 306 304 304 303 303 301 301 301 301 302 302 302 302 302 301 301 301 301 301 301
332 333 333 332 333 333 331 328 325 320 317 317 318 319 319 314 312 313 318 316 309 306 305 305 304 303 302 302 302 301 301 301 301 301 301 302 302 302 301 301 301 300 300
331 331 332 332 333 334 332 329 325 320 318 319 320 319 320 316 312 312 312 314 311 306 305 304 303 302 302 301 301 301 301 301 301 302 301 301 301 301 300 300 300 300 299
333 331 331 332 330 332 331 329 325 321 320 319 319 318 320 317 311 311 310 308 309 309 306 304 303 302 301 301 301 301 301 301 301 302 301 300 300 300 300 299 299 300 301
335 333 331 331 332 331 331 328 324 322 321 320 320 319 320 318 311 310 308 308 306 305 305 304 303 302 301 301 301 301 301 301 301 300 300 299 299 298 298 298 300 304 307
336 335 334 332 331 331 329 328 324 322 322 320 318 319 317 319 313 309 308 307 306 305 303 303 303 303 302 302 302 301 301 301 301 300 299 299 298 298 299 302 306 307 307
334 336 334 333 332 331 330 329 325 322 322 324 322 320 315 314 318 311 307 307 306 305 304 303 303 303 303 304 303 302 302 302 302 300 299 299 298 298 300 303 305 306 307
333 336 334 334 333 331 331 330 327 323 322 324 324 322 317 315 314 312 308 307 306 305 304 303 303 303 303 303 304 303 302 302 301 300 299 298 297 296 296 299 303 305 305
328 333 333 334 333 332 331 330 329 326 322 324 325 323 321 316 312 310 309 307 306 305 304 303 303 303 304 303 303 303 303 302 301 299 298 297 297 296 296 298 302 303 304
325 323 331 335 332 331 330 329 328 328 325 323 328 324 323 321 318 313 311 310 307 306 304 303 303 303 303 303 302 302 302 301 300 299 297 296 295 295 296 299 301 302 302
331 329 326 331 334 330 329 328 328 328 327 324 328 325 324 324 323 317 312 311 310 309 306 303 303 302 302 302 301 302 301 300 299 297 297 295 294 294 294 294 294 295 297
330 329 327 331 334 332 332 329 327 327 328 325 327 327 325 325 325 324 317 311 309 307 307 305 303 302 301 302 301 300 300 298 296 297 296 296 294 293 293 292 291 291 294
328 328 327 324 326 329 328 328 328 326 326 326 326 327 326 326 324 325 325 314 307 306 306 306 305 301 300 300 299 300 297 295 297 296 294 294 292 292 292 290 290 290 289
324 326 326 327 322 323 327 325 326 325 325 325 325 324 323 323 323 324 320 312 307 306 306 301 302 301 302 299 300 295 294 294 295 297 295 292 292 291 290 289 289 289 289
316 322 323 325 324 325 326 326 325 324 324 323 322 322 322 321 320 315 310 306 306 305 304 302 301 303 299 297 294 297 299 301 302 301 298 292 291 290 289 289 289 288 289
310 312 317 322 322 322 323 321 321 322 321 320 320 319 319 319 317 312 308 312 315 314 305 304 304 298 295 297 300 302 302 302 301 295 291 290 289 288 288 288 287 288 289
312 313 314 314 315 318 318 318 317 317 317 316 316 315 316 314 314 311 310 307 303 303 306 305 301 301 302 301 301 300 301 294 291 291 289 289 288 287 286 287 288 289 289
312 312 313 314 315 315 315 317 316 316 314 313 313 312 313 311 308 307 305 301 302 303 303 303 303 301 300 299 299 298 294 291 288 288 288 288 287 286 287 288 288 288 288
310 311 311 311 312 312 313 314 315 313 312 309 307 307 306 306 304 302 302 303 304 303 302 301 300 299 298 296 294 289 288 288 288 287 287 286 286 288 288 288 288 288 288
309 309 310 310 311 311 311 309 311 309 307 305 303 302 300 300 302 302 303 303 302 301 300 298 296 294 291 288 288 288 288 288 287 286 286 286 287 287 288 288 289 289 289
308 307 306 306 307 307 308 305 306 303 302 302 301 301 301 300 302 300 300 299 299 298 297 294 289 287 287 288 288 288 287 287 285 285 285 286 287 287 288 289 289 289 288
303 304 304 303 306 305 302 300 298 298 299 299 299 299 299 299 298 297 297 297 297 291 287 286 287 288 288 288 287 287 286 285 285 284 285 286 287 288 288 289 289 289 288
303 301 301 301 301 298 298 298 298 298 298 298 297 297 296 297 298 292 291 288 287 285 285 285 286 286 286 286 285 285 285 285 284 285 285 286 287 287 288 289 289 289 289
300 300 299 299 298 298 297 297 297 297 297 296 297 297 290 287 287 287 286 285 285 285 286 286 285 285 284 283 283 283 283 283 284 285 286 285 287 286 288 290 290 290 289
298 298 298 297 297 297 297 297 298 295 290 288 287 286 285 285 284 283 283 286 287 286 285 284 283 284 283 282 283 283 284 284 284 284 286 286 287 286 285 289 289 288 288

GFSMA_850_thetae_042.txt.gz
Theta_e
332 332 330 331 328 326 328 330 326 322 319 320 319 319 319 317 315 318 321 319 319 317 316 314 307 305 305 304 303 302 302 302 303 303 303 302 302 302 302 302 302 302 302
333 333 330 331 332 330 330 330 328 323 320 318 318 318 319 318 314 316 318 317 314 313 313 311 306 304 304 303 303 302 302 302 302 302 303 303 302 302 302 302 302 302 301
333 334 334 332 332 330 331 331 329 325 321 318 317 318 319 319 315 315 315 315 312 310 308 307 305 304 303 303 302 302 302 302 302 303 303 303 303 302 302 302 301 300 301
331 332 333 332 333 333 329 331 330 326 323 319 317 317 319 319 319 314 313 313 311 310 307 305 305 304 303 303 302 302 302 302 303 304 303 303 303 303 302 301 300 300 300
335 333 331 332 331 332 329 331 331 329 325 320 318 318 318 319 319 316 312 311 311 310 308 306 305 304 303 302 302 302 302 303 304 304 304 303 304 303 302 301 300 300 301
336 335 333 331 331 331 332 330 330 330 327 321 318 317 317 318 319 317 313 311 310 309 308 307 305 304 303 302 302 302 302 302 303 304 304 303 302 302 301 300 300 300 302
337 335 333 333 331 331 332 330 330 330 326 321 318 316 313 316 317 317 315 312 310 308 307 306 305 304 303 302 302 302 302 302 302 303 303 302 301 300 300 300 301 303 305
335 336 333 331 331 332 332 332 330 329 327 322 319 316 313 315 319 319 316 313 311 309 307 306 305 304 303 303 303 303 303 302 302 302 303 302 301 300 299 299 300 304 307
329 330 335 334 330 331 331 331 331 330 329 324 321 319 317 318 319 319 318 316 311 309 308 306 305 304 304 303 304 304 304 303 302 302 302 301 300 300 300 298 299 301 305
324 325 331 334 336 332 330 330 330 330 329 327 321 320 320 321 318 316 316 313 310 308 308 307 306 304 303 303 304 304 304 304 303 302 302 301 300 299 299 299 299 302 303
329 326 328 330 333 333 333 329 329 329 328 328 327 323 320 321 317 318 317 316 310 309 308 307 306 304 302 304 303 304 305 304 303 302 302 300 299 299 299 297 298 296 295
330 330 329 329 329 330 330 330 331 329 328 327 327 324 322 322 322 317 317 318 316 313 310 307 305 305 303 302 302 302 304 304 302 300 300 299 297 298 298 297 295 294 294
329 329 328 329 328 327 328 328 328 328 326 326 326 326 324 321 323 323 318 316 315 311 308 306 304 302 302 302 301 301 302 301 301 300 299 296 297 297 296 295 294 294 293
326 327 327 326 327 328 326 325 326 326 326 326 324 323 321 322 321 322 319 317 311 309 311 310 307 300 299 300 299 299 298 298 297 297 295 296 297 300 298 293 293 292 291
318 322 325 325 325 325 327 323 323 323 323 324 323 323 321 320 320 319 317 315 314 312 306 304 304 302 298 300 302 305 299 295 296 297 298 302 305 305 304 294 292 291 290
315 316 315 318 323 322 323 322 322 322 322 323 322 320 319 318 318 318 318 315 313 310 307 304 303 308 309 305 304 304 301 298 296 302 304 304 303 298 293 292 291 289 289
311 311 310 312 315 318 319 319 319 320 320 321 321 319 317 317 316 316 315 314 311 307 305 308 306 307 301 300 300 301 296 298 302 304 305 302 294 293 292 290 289 288 288
311 311 312 312 313 314 318 318 316 316 316 317 317 316 315 314 313 312 311 308 306 306 305 305 304 304 304 302 299 296 300 302 302 301 300 296 290 288 288 288 287 287 288
310 310 310 310 311 311 313 313 312 312 314 315 315 314 312 310 309 308 306 305 304 305 305 305 304 303 302 300 300 300 299 300 299 297 292 288 288 287 287 287 288 288 289
310 310 310 310 310 311 311 311 311 311 312 312 313 311 309 308 305 304 303 303 302 302 302 302 302 301 300 299 299 298 297 290 289 289 288 287 287 286 286 288 288 288 288
308 309 308 308 308 308 307 308 310 309 309 308 307 304 303 303 301 300 300 301 301 300 300 299 300 298 298 298 293 288 288 288 288 288 287 286 286 286 287 287 288 288 288
307 306 307 306 305 305 303 304 304 303 303 302 301 301 300 299 299 299 299 299 299 299 298 297 297 296 289 288 288 288 288 288 287 286 285 285 285 287 288 288 288 289 288
305 305 305 304 303 301 299 299 299 300 299 298 298 298 298 297 297 297 297 297 297 296 293 290 287 288 288 288 287 287 287 286 285 284 284 287 287 288 288 289 289 289 289
303 302 300 300 300 299 299 298 298 298 298 298 297 297 296 296 296 296 295 290 288 286 285 286 286 285 286 286 286 286 285 284 284 284 284 286 287 288 289 289 289 289 289
300 299 299 299 299 298 297 297 297 297 296 296 296 296 294 290 287 286 285 284 285 286 286 287 286 285 284 284 283 283 283 283 283 285 286 286 288 288 289 290 290 290 289
298 298 298 298 298 297 296 296 293 289 288 288 287 286 285 284 283 283 284 285 286 287 286 286 285 283 283 283 282 283 283 284 284 284 286 286 287 286 287 290 290 289 289

GFSMA_850_thetae_045.txt.gz
Theta_e
327 331 331 329 325 322 318 320 322 321 320 319 319 319 318 318 317 316 317 318 317 315 314 313 311 305 305 305 304 303 303 303 303 303 303 303 303 303 303 303 303 303 302
330 331 331 330 329 329 326 326 326 327 323 319 319 318 318 318 318 316 317 317 316 314 313 312 310 305 305 304 304 303 302 302 303 303 303 303 303 303 303 303 303 303 302
331 331 332 332 331 330 329 329 329 329 328 323 319 317 317 318 318 317 316 316 315 314 312 312 309 305 305 304 304 303 302 303 303 304 304 303 303 303 303 303 303 302 302
333 331 332 333 332 331 333 331 329 330 330 326 322 318 316 316 316 317 316 315 314 314 312 310 308 305 304 304 304 303 303 303 303 305 305 304 304 304 303 303 302 301 302
336 334 332 330 330 331 332 333 331 329 329 328 325 321 317 316 317 316 317 317 315 313 312 310 307 306 304 304 303 303 303 303 304 305 306 305 304 304 304 303 302 301 301
337 337 335 334 331 330 330 331 332 329 329 329 328 325 319 316 316 317 316 317 317 314 313 310 308 307 305 303 303 302 302 302 303 305 306 306 306 305 305 304 304 302 302
334 336 335 335 334 333 332 331 331 331 329 329 329 325 318 316 315 316 316 315 316 317 315 311 309 307 305 304 303 302 302 302 302 303 305 306 306 305 305 304 303 303 302
331 330 332 336 335 334 333 332 331 331 330 329 329 325 316 316 317 317 317 317 316 315 315 313 310 308 306 304 303 302 302 302 302 302 303 305 306 304 304 303 302 302 303
326 327 329 329 334 334 334 332 331 329 330 330 329 326 315 316 319 319 318 318 317 315 314 314 310 308 307 305 303 302 302 302 302 302 302 303 304 304 303 303 302 302 302
325 326 326 328 328 328 331 333 332 331 329 328 329 327 325 321 320 320 321 320 318 315 313 311 310 308 307 305 304 303 302 302 302 302 301 301 301 301 301 301 301 302 303
328 326 327 325 327 327 328 330 330 332 329 329 328 327 325 322 318 318 319 320 319 316 313 311 310 308 307 306 305 303 302 302 300 302 300 301 299 300 300 300 301 300 299
323 327 327 326 327 328 328 328 327 329 331 329 328 328 326 323 319 316 316 317 318 317 315 312 309 308 306 305 304 303 302 302 301 299 299 298 297 297 298 298 299 298 297
325 327 329 328 328 327 327 327 326 325 326 328 328 327 327 326 322 320 318 316 315 315 315 312 309 307 305 304 303 301 304 301 301 299 297 296 297 296 296 298 299 301 300
319 321 324 324 325 326 325 325 326 325 324 325 325 327 326 325 324 322 319 317 314 312 312 311 310 307 303 302 301 301 300 299 299 300 300 298 301 297 296 299 303 303 304
314 315 319 322 323 322 324 323 322 322 322 321 322 322 321 321 321 321 321 318 316 312 311 310 308 306 306 304 306 300 305 306 306 307 303 299 299 296 301 304 304 303 297
313 313 314 316 316 316 319 321 321 320 320 319 320 319 321 322 321 320 318 318 315 312 310 311 310 310 309 308 305 305 311 306 308 302 300 298 298 302 301 299 295 294 294
310 311 311 311 311 312 316 316 314 317 317 318 318 317 317 317 317 317 316 314 312 310 310 309 307 307 305 305 306 302 303 302 301 300 298 297 300 300 294 293 293 289 289
310 310 310 310 310 310 312 313 315 315 315 313 313 314 315 315 313 313 313 313 311 307 305 304 305 304 304 303 304 303 303 302 299 298 298 299 300 297 291 290 289 289 288
310 310 310 310 310 310 310 311 311 311 311 311 312 312 312 311 310 311 310 310 308 305 303 303 303 303 303 302 302 299 299 298 297 299 299 297 293 289 288 287 287 288 290
309 309 309 309 309 309 309 310 309 309 308 308 309 308 308 309 309 307 305 304 304 303 302 301 302 301 301 301 298 298 297 296 297 293 289 289 288 287 287 286 287 288 288
307 307 307 308 309 308 309 309 308 308 308 307 307 307 307 305 304 302 300 300 300 300 300 300 300 299 298 297 297 296 295 290 289 288 288 287 286 285 285 286 287 287 288
306 306 307 306 306 305 304 304 304 304 303 303 302 302 301 300 299 299 299 297 297 297 297 297 297 296 295 295 291 288 288 288 288 287 286 285 284 286 287 288 288 288 289
303 304 303 303 303 301 300 300 299 300 300 299 299 299 299 298 298 298 298 297 296 295 294 294 293 291 288 288 288 287 287 287 287 286 284 284 286 288 288 289 289 288 288
301 301 301 300 300 300 299 299 298 299 299 298 298 297 297 296 296 296 296 294 291 287 286 286 286 286 286 286 286 286 285 285 284 284 283 285 287 288 288 288 289 289 289
299 299 299 299 299 299 298 298 297 296 295 295 294 291 290 287 287 286 285 285 285 286 286 287 286 286 285 285 285 284 283 283 283 284 285 285 287 288 289 290 289 289 289
299 297 296 294 293 290 289 289 288 288 287 287 286 286 285 285 285 284 284 284 284 285 286 286 286 285 283 282 283 282 283 283 284 284 286 286 286 286 288 289 289 289 289

GFSMA_850_thetae_051.txt.gz
Theta_e
324 323 319 322 324 325 323 321 318 319 321 321 320 319 318 318 318 318 317 316 317 319 320 319 318 314 311 306 305 305 304 303 303 303 304 304 303 303 304 304 303 303 303
327 327 326 325 326 327 327 327 326 321 321 322 323 321 319 318 318 317 317 317 317 318 319 318 318 317 314 308 305 305 304 303 303 303 303 303 303 303 303 304 303 303 303
332 331 330 329 328 329 330 331 330 328 327 326 326 327 326 324 320 317 317 317 316 317 317 318 318 316 315 312 306 305 304 302 302 303 303 303 303 304 304 303 304 303 303
335 334 332 331 331 331 331 332 332 331 329 330 330 328 327 328 327 323 318 316 316 316 316 317 317 316 315 313 309 306 304 302 302 302 303 304 304 304 304 304 304 304 303
334 334 333 332 333 333 332 332 332 332 331 330 331 331 330 329 328 327 326 322 317 316 316 316 316 316 315 314 313 312 306 303 302 302 303 304 304 304 304 304 304 303 304
336 335 335 335 335 335 335 333 332 332 332 331 331 331 331 330 328 327 326 326 324 319 316 316 316 316 315 313 313 315 315 309 302 301 301 302 303 303 304 303 303 303 302
336 337 337 336 336 335 334 334 334 333 333 332 332 331 331 330 328 328 327 326 327 326 320 316 315 315 315 314 312 310 314 313 310 302 301 301 301 302 302 302 302 302 303
336 336 334 332 331 332 332 332 332 333 332 332 331 330 329 328 327 327 327 327 325 326 323 318 316 315 315 314 313 311 309 311 312 309 303 301 301 301 301 302 303 306 305
333 334 332 332 332 331 332 329 330 331 332 331 331 329 328 326 326 325 325 324 323 323 322 318 315 313 313 314 314 312 309 308 311 312 310 309 306 303 303 303 306 305 305
320 321 321 322 323 325 326 327 326 326 328 329 330 330 329 329 326 325 324 324 323 323 322 320 318 315 313 313 314 313 311 310 307 309 309 309 309 308 308 307 305 304 308
316 317 317 317 318 323 324 325 325 322 326 327 327 328 328 327 327 326 322 324 324 324 322 321 320 319 315 312 312 312 311 308 308 306 305 307 308 309 308 307 306 306 307
312 312 312 313 314 317 324 325 326 327 326 325 325 326 327 326 324 323 323 322 321 322 320 321 320 318 317 315 311 310 310 310 306 308 304 306 307 308 307 306 306 307 306
312 312 312 313 315 320 321 322 328 328 326 325 325 325 324 322 322 323 322 321 320 320 319 318 318 319 318 318 318 311 308 309 309 305 305 304 304 305 305 303 303 303 304
313 313 313 313 314 318 322 326 327 327 324 322 322 324 321 319 320 320 318 319 316 316 316 316 315 315 315 315 315 314 311 306 308 304 303 303 303 302 302 305 304 303 303
312 312 313 313 313 314 316 319 322 323 322 321 318 320 319 319 318 316 317 317 317 314 314 314 314 313 313 312 311 311 311 307 306 305 305 303 304 302 303 302 300 301 300
311 310 310 311 311 312 312 313 315 316 317 318 320 320 319 317 318 319 316 314 315 313 312 313 312 312 312 310 309 307 307 306 304 302 302 301 302 301 302 300 299 299 299
310 309 309 310 310 310 310 310 311 311 312 313 313 313 314 313 312 314 315 314 313 311 310 309 309 309 309 308 306 304 300 300 300 300 299 300 300 300 300 299 298 298 298
310 309 309 309 309 309 309 309 309 309 309 310 311 311 310 310 310 309 309 310 309 309 308 307 307 307 306 305 304 300 299 299 298 299 299 299 298 299 298 297 296 297 297
308 308 309 309 309 309 309 309 309 309 309 309 309 308 307 306 307 307 307 307 307 307 306 305 304 303 302 302 301 300 299 299 298 298 298 297 297 298 298 297 295 294 294
308 308 308 308 308 308 308 308 308 308 308 308 307 306 306 306 305 306 306 306 306 304 303 301 301 300 300 300 300 299 297 297 297 297 297 297 297 297 297 294 292 291 289
306 306 306 307 307 307 307 308 307 307 306 305 305 304 304 303 303 302 302 302 301 301 300 300 299 299 298 299 298 297 296 296 296 295 295 296 294 291 289 288 287 287 286
306 306 306 305 305 305 304 303 304 303 303 302 302 301 300 300 299 299 299 299 300 299 299 298 298 297 297 296 295 295 294 294 292 291 289 288 288 287 287 286 286 286 286
305 304 304 304 303 302 301 302 301 301 301 300 300 299 298 298 297 297 297 297 297 297 296 295 295 294 293 291 290 288 288 287 287 287 286 286 286 285 285 285 285 286 287
303 302 302 301 301 300 297 294 292 291 290 290 290 289 289 288 287 287 287 287 286 286 286 286 286 286 286 286 286 286 286 285 285 285 284 284 285 285 286 287 287 288 288
301 301 299 295 292 291 290 290 290 289 289 288 288 287 287 286 286 286 285 285 285 285 285 285 286 286 286 286 285 285 284 283 283 283 283 283 285 286 287 288 288 288 288
297 293 291 290 290 290 289 289 288 288 288 287 287 286 286 285 285 284 284 284 284 284 284 284 284 284 284 283 283 282 282 282 282 284 285 285 285 285 287 287 287 287 288

GFSMA_850_thetae_054.txt.gz
Theta_e
324 325 320 318 318 319 323 323 322 319 318 320 321 321 319 319 318 318 317 317 317 317 318 319 319 318 316 314 308 305 305 304 304 304 304 304 304 303 303 303 303 303 303
325 327 327 324 324 326 327 327 327 327 325 321 321 322 323 321 320 319 318 317 317 317 317 318 318 318 317 315 313 306 305 304 303 303 303 303 303 303 303 303 303 303 303
330 331 330 330 329 328 329 329 330 330 329 328 327 327 327 327 327 327 324 319 316 316 316 316 317 318 317 318 315 312 306 304 303 302 303 303 303 303 303 303 303 303 303
333 333 332 331 331 331 331 330 330 331 331 331 330 329 330 330 329 328 327 326 323 320 317 316 316 317 317 317 317 315 312 305 303 302 302 302 302 302 302 303 303 303 303
334 333 333 332 333 333 333 333 333 332 332 331 332 331 331 331 331 330 329 328 327 326 324 319 316 316 316 316 316 317 316 313 306 303 302 301 302 302 302 302 302 302 303
334 335 335 335 335 335 335 334 334 334 334 333 332 332 332 331 331 330 329 327 327 327 326 325 321 316 315 316 316 316 318 318 313 306 302 301 301 301 301 301 302 302 303
335 335 336 336 336 336 335 334 334 334 333 333 332 331 331 331 329 328 329 328 327 326 327 326 324 320 315 315 315 315 315 317 317 314 308 303 301 301 301 301 303 302 303
335 335 336 336 336 334 333 332 332 332 332 331 331 331 331 328 328 326 325 325 325 325 325 324 322 320 315 314 314 314 314 315 317 316 313 310 307 304 305 307 308 308 309
336 335 335 334 333 334 332 331 330 331 330 328 329 330 329 326 326 326 326 325 326 324 324 323 321 318 316 314 313 313 314 314 313 316 315 312 310 310 309 309 309 311 310
323 323 323 322 324 324 325 325 327 327 326 326 325 326 328 328 327 326 324 324 324 322 324 322 323 322 320 316 313 313 313 313 312 313 316 315 313 311 310 309 309 309 308
316 316 316 316 317 317 317 318 321 325 325 325 327 327 328 326 325 324 322 323 322 322 322 321 321 320 320 319 317 312 312 313 312 312 310 310 308 308 310 310 310 308 308
311 311 311 311 311 312 312 314 319 327 327 326 327 326 325 325 325 324 322 323 321 320 320 319 319 319 318 318 318 316 311 310 312 311 310 310 309 307 308 311 309 309 307
313 313 312 312 312 312 313 316 318 319 324 326 325 325 324 323 322 320 319 319 319 318 317 316 316 316 316 316 315 315 315 315 313 311 310 308 309 307 307 309 308 307 304
312 312 313 313 313 313 313 316 323 323 324 326 324 322 322 320 318 318 319 318 317 315 315 315 314 314 314 314 313 313 312 312 312 311 309 309 307 308 306 308 306 305 303
311 311 311 311 312 312 313 314 316 321 321 322 321 320 320 322 318 317 317 317 314 315 314 312 312 312 312 312 312 311 311 310 309 309 308 307 306 306 305 304 303 303 302
310 310 310 310 310 310 311 312 312 314 315 317 318 318 319 320 318 316 314 314 314 313 311 311 310 309 308 308 308 309 308 308 306 306 305 305 303 302 302 303 301 301 301
309 310 309 309 309 309 310 310 310 311 311 312 313 313 312 312 313 311 310 311 311 310 310 310 309 308 308 307 307 307 306 304 303 302 304 303 301 300 301 300 299 299 300
309 309 309 309 309 309 309 309 309 309 309 309 309 309 309 308 307 307 307 307 308 308 307 307 307 307 306 306 305 304 302 301 300 301 300 299 299 299 298 298 298 297 298
308 308 308 308 308 309 309 309 309 309 308 308 308 307 307 307 306 305 305 305 305 305 305 305 303 304 304 303 303 302 301 299 298 298 298 298 298 298 297 297 296 296 296
307 307 307 308 308 308 308 308 308 307 308 308 307 306 306 306 305 305 305 305 305 304 304 303 302 302 302 301 301 300 299 298 298 298 298 298 297 296 296 296 296 296 296
306 306 306 306 307 306 306 306 306 306 306 305 305 304 303 303 303 303 303 302 302 301 300 299 299 299 299 299 298 298 297 297 296 296 296 295 295 296 295 294 292 290 289
305 305 305 305 305 304 303 303 303 302 302 302 302 301 301 301 300 300 300 299 299 298 298 298 297 297 296 295 295 294 294 294 293 292 292 291 290 289 288 287 287 287 286
303 304 303 303 302 301 301 301 301 299 297 295 294 293 292 292 291 290 289 289 290 289 289 288 288 288 289 288 288 287 287 286 286 286 286 286 286 286 285 285 285 285 285
302 302 301 300 300 299 294 291 290 290 290 289 289 288 288 287 287 287 287 286 286 286 286 286 286 286 286 286 286 286 285 285 284 284 283 284 284 284 285 286 286 287 287
301 300 299 294 291 291 290 289 289 289 289 289 289 288 287 286 286 286 286 285 285 285 284 284 284 285 285 285 285 284 284 283 283 283 283 284 285 286 287 287 288 288 288
300 295 291 290 290 289 289 289 289 289 288 288 287 287 286 286 285 285 285 285 284 284 284 284 283 283 283 283 282 282 282 282 282 284 285 285 285 286 287 287 287 287 288

GFSMA_850_thetae_057.txt.gz
Theta_e
324 324 322 316 316 316 318 323 323 323 320 319 320 320 321 321 319 319 318 318 317 316 321 318 318 318 318 317 315 312 307 305 304 304 303 303 303 303 304 304 304 304 304
322 324 326 326 322 324 326 328 328 328 327 326 325 325 324 325 325 325 325 324 320 316 316 316 317 317 318 317 317 315 312 306 304 303 303 303 303 303 303 303 303 303 304
326 328 330 330 329 329 328 328 329 330 330 330 330 329 328 329 329 328 328 328 326 323 320 317 316 316 317 318 318 318 316 312 305 304 303 303 303 303 303 303 303 303 304
333 333 332 332 331 331 331 331 330 330 330 330 330 331 331 330 330 330 330 330 329 327 326 324 320 316 316 318 319 321 320 317 313 305 303 303 303 303 303 303 303 303 304
333 333 333 333 333 333 333 333 333 333 333 333 333 332 331 331 331 331 330 329 328 327 327 326 325 323 317 316 319 321 322 321 317 313 306 303 302 302 303 302 303 303 303
334 333 333 334 335 335 335 335 335 335 334 333 333 332 332 331 330 330 330 329 328 328 328 327 326 324 321 317 315 317 319 321 320 318 315 306 302 302 301 301 302 302 302
335 335 335 334 335 336 335 335 334 333 332 332 332 330 328 328 327 329 328 326 326 326 326 326 325 323 321 318 316 315 316 318 319 319 318 316 309 305 302 302 304 307 306
335 335 335 334 334 334 335 335 334 333 332 332 331 331 329 325 325 325 326 325 325 325 325 324 323 323 321 318 317 314 314 315 317 319 320 318 316 311 310 309 310 310 309
333 334 335 335 334 334 333 332 334 333 331 331 331 330 327 325 325 326 325 324 324 323 323 324 323 321 322 322 319 314 314 314 315 316 319 319 316 314 310 310 310 310 311
327 330 330 328 326 325 324 324 325 327 329 329 327 326 326 324 325 325 323 323 323 322 322 321 321 321 321 321 320 317 315 313 314 315 315 318 317 316 312 310 306 307 310
315 315 315 315 315 315 316 316 317 318 320 326 328 326 326 326 325 324 322 322 322 322 321 320 320 319 319 320 319 318 319 316 312 314 315 314 315 316 314 312 311 309 307
311 311 311 311 311 311 311 311 311 312 314 322 329 326 325 326 325 324 323 322 320 319 318 316 316 316 316 316 316 316 316 317 315 312 313 314 314 313 311 311 312 311 310
313 313 313 313 312 312 312 312 312 313 316 317 323 326 325 325 325 324 321 319 318 316 316 313 315 314 313 314 314 314 314 314 314 313 314 314 314 313 312 311 309 311 311
311 311 311 311 312 312 313 313 313 314 322 323 325 326 325 323 323 323 321 317 316 315 313 313 313 312 311 313 313 312 312 312 311 311 310 312 313 313 311 310 309 310 309
310 310 310 310 310 310 311 312 313 314 318 325 324 324 323 320 319 318 319 317 315 314 313 312 311 310 310 310 309 308 309 309 309 308 309 309 311 310 311 308 308 307 307
309 309 309 310 309 309 310 311 312 312 314 317 319 319 319 319 317 316 316 314 313 312 312 311 311 309 308 308 307 307 306 307 307 307 307 307 308 308 307 306 305 304 304
309 309 309 309 309 309 309 309 310 310 311 312 313 313 313 313 314 313 310 310 309 310 310 309 308 308 307 307 306 305 305 306 305 305 304 305 306 306 305 304 304 301 301
309 309 309 309 309 309 309 309 309 309 309 309 309 310 309 308 308 308 307 307 306 307 306 306 306 306 305 305 305 305 305 305 304 302 302 304 304 303 303 302 300 300 300
308 308 308 308 308 308 308 309 308 308 308 308 307 307 307 307 307 306 306 305 304 304 304 305 305 304 303 303 302 303 304 303 303 301 300 301 300 300 300 299 298 298 297
307 307 307 307 307 307 307 307 307 307 307 307 307 307 306 306 306 305 305 305 304 304 304 303 302 302 301 300 301 301 302 301 301 300 299 299 299 299 298 298 297 297 297
306 306 306 306 306 306 306 306 306 306 306 306 305 304 304 303 303 303 303 303 302 302 301 300 298 298 298 299 299 298 298 297 297 297 297 297 297 296 296 296 296 296 295
305 305 305 305 304 304 304 304 304 303 303 302 302 301 300 299 299 298 298 298 297 297 297 297 297 296 296 296 295 294 293 291 290 289 289 289 289 289 289 289 289 288 288
302 303 304 303 303 302 302 302 302 298 295 293 292 291 290 290 289 289 288 288 288 288 288 287 287 287 287 287 287 286 286 286 286 286 285 286 285 285 285 285 285 285 285
300 302 302 301 301 300 294 291 291 290 289 289 289 288 288 288 288 288 287 287 286 286 286 286 286 286 286 286 286 285 285 285 284 284 284 284 284 285 286 286 286 287 287
299 300 300 297 291 291 290 289 289 289 288 288 288 288 287 287 287 287 286 286 286 285 285 285 285 284 284 284 284 284 284 283 283 283 284 285 286 287 287 287 287 288 288
300 298 293 290 290 289 289 289 289 289 288 288 287 287 286 286 286 286 285 285 285 285 285 284 284 284 284 283 283 283 283 283 283 284 285 285 286 286 287 287 287 288 287

GFSMA_850_thetae_060.txt.gz
Theta_e
324 324 322 316 315 316 317 319 322 325 324 322 319 319 320 321 322 322 321 322 321 318 317 323 318 317 318 317 317 317 314 308 305 304 304 304 304 304 304 304 304 304 304
323 323 325 326 322 320 322 326 329 328 328 328 327 327 326 326 327 327 326 326 327 326 321 318 316 318 317 318 317 317 317 315 308 304 304 303 303 303 303 304 304 304 304
327 324 326 329 329 328 327 327 328 328 329 330 330 331 330 329 329 329 329 329 329 329 327 325 322 318 317 318 322 321 319 318 316 309 304 303 303 303 303 303 304 304 304
331 332 331 332 331 331 331 330 331 331 330 331 332 332 331 331 331 330 330 330 330 329 328 327 326 324 320 320 321 323 323 321 319 317 313 305 303 303 303 303 303 304 304
332 332 333 333 333 333 333 333 332 332 333 334 333 333 332 332 331 331 330 330 330 329 329 329 327 326 324 321 319 320 320 321 321 320 318 315 305 303 302 302 302 303 304
334 334 333 333 334 334 334 334 334 334 334 334 333 333 333 332 330 327 327 328 329 328 327 328 328 327 325 323 321 319 318 320 320 320 319 318 317 309 303 302 302 303 304
335 335 335 335 335 334 334 335 333 333 333 332 332 331 332 330 327 325 327 327 325 325 325 325 326 326 324 324 322 319 318 317 318 320 320 319 318 318 316 304 303 309 310
336 335 335 334 334 334 333 333 334 334 334 333 333 332 331 327 326 325 325 325 325 324 324 324 324 324 323 320 320 319 317 316 317 319 320 321 321 320 318 316 309 304 309
332 333 333 333 333 335 335 335 334 334 334 333 332 332 329 326 325 325 324 323 324 323 324 323 322 323 322 323 322 321 319 316 316 317 317 320 321 318 316 315 313 310 305
324 323 325 328 332 333 332 329 327 326 329 330 331 329 329 329 327 324 324 323 323 322 323 322 322 321 321 320 320 320 319 318 314 314 316 318 318 319 317 314 313 312 311
314 314 315 315 316 316 316 316 316 316 317 319 321 326 325 328 326 326 325 323 322 321 321 321 320 318 318 318 318 318 318 318 318 317 315 316 317 319 317 316 314 313 311
312 311 311 312 311 311 311 311 311 311 311 312 314 319 326 328 326 324 325 323 323 320 319 318 317 316 316 315 314 315 315 315 316 317 317 315 316 318 318 317 315 313 313
312 312 312 312 312 312 312 312 312 312 312 313 315 317 317 325 325 325 324 321 319 318 316 314 315 313 314 313 313 313 314 314 314 314 314 314 315 315 316 317 314 313 313
312 312 311 311 311 311 312 312 313 313 314 317 321 324 324 323 325 325 322 320 318 316 315 314 312 313 312 311 310 311 311 312 311 311 311 311 311 313 313 316 313 313 311
311 311 310 310 310 310 310 310 312 312 313 320 319 321 321 322 323 322 321 318 317 317 315 313 312 312 311 310 309 309 307 307 307 308 309 308 308 309 311 313 312 311 311
310 310 309 309 309 309 309 310 310 312 313 316 317 318 319 318 319 320 319 317 315 314 313 312 311 311 310 309 308 307 306 305 306 306 306 307 307 307 308 310 310 309 309
309 309 309 309 309 309 309 309 309 310 311 312 314 314 315 314 314 314 314 313 312 310 309 310 309 308 307 307 306 306 305 305 305 305 305 305 306 307 308 306 307 306 306
309 309 309 309 309 309 309 309 309 309 309 309 310 310 311 310 309 309 309 309 307 307 306 306 306 306 306 306 305 304 304 304 304 304 303 303 305 305 305 305 305 305 303
308 308 308 308 308 308 308 309 309 309 308 308 308 308 308 307 307 307 307 307 306 305 304 304 304 304 304 303 303 303 303 303 304 303 303 302 303 303 303 303 303 303 302
307 307 307 308 308 308 307 307 307 308 308 307 307 307 307 307 307 306 306 305 305 305 304 304 302 302 301 301 301 301 301 301 301 301 301 301 301 300 300 300 300 300 299
306 306 307 307 307 307 306 306 306 307 307 307 306 306 305 305 305 304 304 304 304 303 302 300 298 298 298 298 298 298 297 297 297 297 298 298 298 299 299 298 298 298 298
304 305 305 305 305 305 305 305 305 305 304 303 303 302 300 298 296 294 294 295 294 293 295 296 296 295 294 293 291 290 288 288 289 289 288 287 288 288 288 288 289 289 290
302 303 304 304 303 303 303 303 303 302 300 297 294 292 291 290 289 289 289 289 288 288 288 288 287 287 287 287 287 287 287 286 286 286 286 286 286 285 285 286 286 286 286
301 301 302 302 301 301 301 299 294 292 291 290 291 290 289 289 289 288 288 287 287 287 287 287 286 286 286 286 286 286 285 285 285 285 284 285 285 286 287 287 288 287 287
300 299 301 300 299 294 291 290 290 290 290 290 290 289 289 288 288 287 287 286 286 286 286 286 285 285 285 284 284 284 284 284 284 284 285 286 286 287 288 288 288 288 288
298 299 298 294 290 290 290 289 289 289 290 289 288 288 288 287 287 287 286 285 285 285 285 285 284 284 284 284 284 283 283 283 284 285 286 286 287 287 288 287 288 288 288

GFSMA_850_thetae_063.txt.gz
Theta_e
327 326 328 324 326 327 328 329 330 330 330 330 328 327 325 325 324 323 323 324 325 325 323 320 326 319 318 317 317 317 317 316 311 306 304 304 304 304 304 304 304 304 305
333 330 332 329 327 324 327 329 332 333 333 333 332 331 330 330 328 327 327 328 328 328 328 326 322 319 321 320 320 318 317 317 317 311 306 304 304 304 304 304 304 304 304
334 333 333 333 332 331 329 330 332 332 333 333 333 333 333 332 332 331 329 329 329 329 329 329 327 326 323 322 323 323 321 320 318 317 315 307 304 303 304 304 304 304 304
330 334 334 334 334 334 334 333 333 334 334 333 333 333 333 333 332 332 331 330 330 329 329 328 328 327 326 324 324 325 325 323 321 320 319 317 311 304 303 303 304 304 304
333 332 335 335 335 335 335 334 335 334 334 334 334 334 334 334 333 333 332 332 331 331 329 329 328 328 328 326 325 324 324 324 323 321 320 319 318 316 306 303 303 304 304
335 334 335 335 336 336 337 336 336 335 335 335 334 334 333 333 332 332 332 330 329 329 329 326 326 327 327 327 326 324 322 323 323 323 321 320 319 319 318 314 305 303 303
336 335 335 337 336 337 337 336 335 333 334 334 333 332 332 332 332 329 326 327 327 327 324 324 325 325 324 323 323 323 322 320 321 321 321 321 320 320 319 319 317 309 303
336 336 335 335 338 337 336 338 336 336 335 334 333 333 330 329 328 327 327 325 324 325 324 324 324 323 323 323 321 321 320 319 319 319 321 322 322 320 320 320 319 317 311
334 334 334 335 335 338 338 338 337 332 332 331 330 329 328 328 327 326 326 325 322 323 324 323 324 322 323 321 321 322 322 320 319 319 320 320 320 322 321 319 318 316 314
332 331 327 325 323 323 325 328 331 332 334 330 329 329 327 327 326 324 324 324 324 323 322 322 322 322 321 320 319 319 320 320 320 318 317 317 320 320 320 320 318 316 314
318 317 315 314 314 314 314 315 315 315 315 316 319 325 327 324 325 322 324 322 324 323 322 321 320 319 317 317 316 317 317 317 317 318 318 318 318 319 319 321 321 317 315
313 313 312 311 311 311 311 311 311 311 311 311 312 316 321 323 322 323 323 322 322 323 322 319 316 317 315 313 315 314 313 313 314 314 315 316 317 317 319 318 319 317 316
312 312 311 312 312 312 312 312 312 312 313 313 314 317 321 324 323 322 324 324 322 321 320 317 316 314 313 313 312 311 311 313 313 313 314 315 315 315 315 316 316 317 319
312 312 312 312 312 312 312 311 311 312 312 317 318 319 318 321 321 320 321 320 322 320 318 316 315 314 312 313 311 310 309 309 309 310 311 311 311 311 311 312 313 314 314
313 312 312 311 311 310 310 310 310 311 317 313 314 319 319 321 319 321 322 321 321 318 317 316 314 313 312 312 311 310 308 308 307 306 307 308 309 309 309 309 309 312 314
312 311 311 310 310 309 309 309 309 310 311 313 315 316 319 320 319 319 319 319 318 317 316 314 313 312 311 311 309 308 307 307 306 304 306 306 306 307 307 308 308 310 311
311 310 310 309 309 309 309 309 309 309 310 312 315 315 315 314 315 316 316 315 314 312 312 311 310 310 310 309 307 306 306 306 305 305 305 304 305 305 306 307 308 308 309
310 310 309 309 309 308 309 309 309 309 309 310 310 310 311 311 311 310 309 310 310 309 308 307 307 307 306 306 306 305 305 305 304 304 303 303 303 304 306 306 306 306 307
308 308 308 308 308 309 308 308 309 309 309 309 309 309 309 308 308 307 307 308 307 307 306 305 305 305 304 305 304 304 304 303 303 303 303 303 302 303 303 304 304 304 304
307 307 307 307 308 308 308 308 307 308 308 308 308 307 307 307 307 307 307 306 306 305 305 304 303 302 302 302 302 302 301 301 301 301 300 301 301 301 301 301 302 301 301
305 306 306 307 307 307 307 307 307 307 307 307 307 307 306 306 306 305 305 304 304 303 302 301 299 298 298 298 298 298 297 296 294 293 295 297 298 298 298 298 298 299 299
304 304 305 306 306 306 306 306 306 306 306 306 305 304 303 299 296 296 294 295 295 294 294 295 295 295 294 293 291 290 289 288 289 289 289 288 288 288 288 288 289 288 289
301 302 303 304 304 304 304 305 304 304 303 302 300 296 293 291 291 290 291 290 290 289 289 288 288 289 289 288 287 287 287 287 287 287 286 286 287 287 287 287 287 287 287
301 302 302 301 302 302 301 302 302 300 295 293 291 290 290 290 290 290 289 289 289 289 288 288 287 288 287 287 287 286 286 286 286 286 286 286 286 287 288 288 289 289 288
300 300 300 300 300 300 300 296 292 290 290 290 289 289 289 289 289 289 288 288 288 287 287 287 287 287 286 286 285 285 285 285 285 286 286 287 287 288 288 289 289 289 289
299 299 299 299 299 295 290 289 289 289 289 289 289 289 289 289 289 288 287 287 287 286 286 286 286 286 286 286 285 285 284 284 284 286 288 287 287 288 288 289 289 289 289

GFSMA_850_thetae_066.txt.gz
Theta_e
329 326 325 325 323 324 325 327 326 327 329 330 329 328 327 326 326 325 324 326 326 326 327 327 325 327 322 321 320 318 317 317 317 316 310 306 305 304 304 304 304 305 305
333 327 332 328 324 323 321 323 326 332 332 332 332 331 331 330 330 329 328 327 327 328 328 329 328 327 325 324 324 324 323 321 318 317 317 310 306 304 304 304 304 304 305
334 332 330 333 330 328 327 327 329 330 331 330 330 331 332 332 331 330 330 329 328 328 328 328 328 327 326 325 325 325 325 325 324 322 318 318 313 306 304 304 304 304 305
332 331 331 329 332 333 333 331 330 331 331 332 332 332 333 333 333 332 332 331 331 331 329 328 329 329 328 327 325 326 326 326 325 324 322 320 318 317 307 304 303 304 304
332 330 332 333 334 334 333 333 332 333 334 334 333 332 332 332 333 332 332 333 332 331 330 330 326 327 326 327 327 325 325 326 326 325 324 321 320 319 319 313 305 303 303
334 334 333 334 335 335 335 335 334 333 333 333 332 332 331 332 332 332 330 330 330 330 328 328 326 324 325 325 326 326 324 323 324 324 324 323 321 320 319 319 318 316 307
336 335 334 335 336 335 334 334 334 333 333 332 332 332 332 330 331 330 331 330 326 327 327 325 323 323 323 323 323 323 322 322 322 323 323 323 323 321 321 320 319 319 318
336 336 336 335 337 335 334 333 333 332 331 330 330 330 329 327 327 325 328 329 326 325 325 324 323 323 323 322 322 321 321 322 321 322 322 322 322 322 322 321 320 320 319
337 334 333 334 335 336 335 333 332 331 330 329 328 329 329 327 327 326 326 326 325 324 323 322 322 323 323 320 320 320 319 319 320 320 319 320 321 322 322 322 321 319 319
329 331 332 332 329 325 323 322 321 324 327 328 327 328 328 326 326 324 323 323 324 323 323 323 322 322 322 320 319 319 318 318 318 319 319 319 317 318 320 321 321 320 319
328 323 319 317 316 314 313 312 312 313 313 314 314 320 322 322 322 323 322 322 320 322 322 322 321 319 317 316 316 315 315 315 316 316 317 316 316 317 318 319 320 320 319
316 315 314 313 312 312 311 311 311 311 311 312 312 312 317 319 322 321 321 323 322 322 322 321 320 318 316 315 313 313 313 313 313 313 313 313 314 314 315 316 318 318 319
313 313 313 312 312 312 312 312 312 312 312 312 312 315 321 321 318 319 322 320 320 322 322 320 319 317 315 315 312 312 311 310 310 309 311 313 313 314 314 315 315 316 317
312 312 312 312 312 312 312 312 311 311 311 311 313 316 317 320 319 319 319 318 316 320 320 319 318 316 315 313 312 312 311 309 309 308 308 308 311 311 311 311 311 311 312
312 312 312 312 312 312 311 310 310 309 310 311 310 313 313 316 318 318 318 316 321 320 319 318 316 316 314 312 311 311 310 308 308 307 306 305 306 307 309 309 309 309 309
312 312 312 312 311 311 310 309 309 309 309 310 313 314 314 315 316 316 320 317 319 319 318 316 315 314 313 312 310 308 308 307 306 306 305 305 305 306 306 307 308 308 309
312 312 311 311 311 310 309 309 308 309 309 309 312 312 312 313 313 314 315 316 316 315 314 314 313 311 310 308 308 307 306 306 305 304 304 303 303 304 304 305 306 307 307
312 311 310 310 310 309 309 308 308 308 308 309 309 310 311 311 311 311 311 312 313 312 311 309 307 306 307 306 306 305 305 304 304 304 303 303 303 302 303 304 306 307 307
309 309 308 308 309 309 308 308 308 308 308 308 308 309 309 309 309 308 307 308 308 308 307 307 306 305 305 305 304 304 303 303 303 303 303 303 302 301 302 303 303 304 304
307 307 307 307 307 307 307 308 307 307 308 308 308 307 307 307 307 307 306 306 306 306 306 305 304 302 302 303 303 303 302 302 301 300 299 300 300 300 300 301 301 302 302
306 306 306 306 306 307 307 307 307 307 307 307 306 306 306 306 306 306 306 306 305 305 304 303 302 300 298 297 297 297 297 296 294 292 291 291 292 294 295 297 298 299 299
304 304 304 305 305 306 306 306 306 305 305 305 305 305 304 303 301 300 300 298 298 296 295 296 295 293 293 293 292 290 290 289 289 289 289 288 288 288 288 288 288 288 288
301 301 301 302 302 304 305 304 305 304 304 304 303 302 299 294 291 291 291 290 290 290 289 289 289 290 290 290 289 288 288 288 288 287 288 287 287 287 287 287 288 288 288
301 301 300 301 301 302 303 302 303 302 301 300 297 293 290 290 290 290 290 290 290 289 288 288 288 288 288 288 288 287 287 287 287 287 287 287 287 288 289 289 289 289 289
299 300 301 300 300 301 300 300 300 297 293 290 290 290 290 290 290 289 289 288 289 288 288 287 287 287 287 286 286 286 286 286 286 287 287 287 288 289 289 289 289 289 289
300 300 300 299 298 299 298 296 291 289 289 289 289 289 289 289 289 288 288 288 288 288 288 287 286 286 286 286 286 286 286 286 286 286 288 288 288 288 289 289 289 289 289

GFSMA_850_thetae_069.txt.gz
Theta_e
324 321 322 322 320 318 318 320 320 322 322 327 327 328 327 328 328 327 326 326 326 327 327 328 328 327 328 325 324 324 322 319 318 317 316 311 306 305 305 305 305 305 305
329 326 325 325 323 322 321 321 322 325 330 330 331 331 330 330 330 329 328 328 328 328 328 328 328 328 328 327 325 325 324 325 324 320 318 317 313 307 305 304 305 305 305
330 328 326 326 327 326 326 324 326 328 330 331 330 330 330 332 332 332 332 331 330 330 330 330 328 328 328 327 327 327 326 326 325 325 323 321 318 316 308 304 304 304 305
331 328 326 328 329 330 331 331 330 329 329 330 331 332 332 332 331 331 332 332 332 332 330 330 329 327 326 327 327 327 327 327 327 326 325 323 321 319 317 308 304 303 304
333 329 328 330 330 332 332 332 332 332 333 333 332 331 331 331 330 330 331 332 331 329 328 327 327 326 325 325 325 326 326 326 326 326 326 325 323 321 319 319 313 305 304
334 332 331 332 333 334 333 333 333 333 332 331 331 330 330 330 330 331 331 329 329 329 330 328 326 327 323 324 324 324 324 325 324 324 324 324 324 323 321 320 319 319 316
336 335 334 334 334 335 334 333 333 332 331 330 330 329 329 328 327 327 326 326 331 330 327 327 327 324 323 323 322 322 322 322 322 323 324 324 323 323 322 321 320 320 319
336 336 336 335 335 334 334 334 333 330 330 330 328 328 328 327 326 326 325 325 329 329 327 326 322 322 322 322 321 319 319 320 319 320 321 322 323 323 323 322 321 321 320
336 336 336 337 339 337 334 332 332 331 330 329 328 328 329 327 327 326 325 324 327 325 324 324 322 322 322 322 320 319 319 319 318 318 318 319 319 321 322 322 323 322 321
333 333 332 331 333 334 332 328 326 325 327 322 321 323 327 328 327 325 323 322 323 323 323 322 322 322 321 321 319 317 316 317 317 317 317 318 319 318 317 319 320 321 322
330 327 329 333 331 322 316 314 313 312 312 312 313 313 314 316 322 324 322 319 321 320 321 323 321 320 320 318 317 316 314 313 314 315 315 315 316 317 316 317 318 319 320
331 330 321 315 314 313 312 312 311 311 311 312 312 312 312 312 314 319 319 320 318 318 320 322 321 321 319 318 316 314 312 312 311 311 311 312 312 312 312 313 314 315 317
328 317 314 313 313 312 312 311 312 312 312 312 312 312 312 313 317 318 317 318 318 319 320 321 319 319 318 317 314 313 312 311 310 310 309 309 308 311 312 313 314 314 315
315 314 313 313 312 312 312 312 312 312 311 311 310 311 313 317 317 319 318 320 320 319 318 318 318 318 318 316 314 313 311 311 310 309 308 307 307 307 310 311 311 311 311
314 313 313 312 312 312 312 312 312 311 310 309 310 311 310 314 315 315 318 318 319 320 317 318 318 317 316 315 313 311 309 309 308 307 306 305 305 307 308 309 310 310 309
313 312 312 312 312 312 312 311 311 310 309 309 309 309 310 314 314 314 316 315 317 319 318 317 317 316 314 312 311 310 309 307 307 306 305 304 304 304 306 307 307 307 308
313 312 312 312 312 311 311 310 310 309 309 308 308 308 310 312 312 314 315 316 317 317 317 316 314 313 312 311 308 306 307 306 305 304 304 303 303 303 303 304 305 305 306
312 312 312 311 311 310 310 309 309 309 308 308 308 308 308 310 310 310 311 312 311 313 314 313 312 310 308 306 305 305 305 304 304 304 303 303 303 302 302 303 304 305 306
312 312 311 310 309 308 308 308 308 308 308 308 308 308 308 308 308 308 309 309 308 309 309 309 308 306 305 304 304 304 304 302 302 302 302 302 302 302 302 302 303 303 303
311 310 308 307 307 307 307 307 307 307 307 307 307 307 307 307 307 307 307 306 306 306 307 306 306 304 303 302 302 302 302 301 301 300 299 299 299 299 300 301 301 302 301
309 307 306 306 306 306 306 306 306 306 306 306 306 306 306 306 306 306 306 306 306 306 305 305 304 302 300 299 296 297 297 297 295 293 291 290 290 290 291 292 295 298 299
307 305 305 304 304 305 305 306 306 305 305 305 305 305 305 305 305 304 304 303 302 301 300 300 299 296 293 293 293 291 290 290 288 289 289 289 289 288 288 288 288 288 288
305 305 303 301 302 301 301 304 305 303 302 302 303 303 302 300 295 293 291 290 290 290 290 290 291 291 291 291 290 289 289 288 288 288 288 288 288 288 287 288 288 288 289
304 302 301 301 301 301 300 302 302 302 301 301 301 300 297 291 290 289 290 290 290 289 289 289 289 289 289 289 288 288 288 287 287 287 287 287 287 288 288 289 289 289 289
303 300 299 300 301 300 300 300 301 301 300 299 295 291 289 289 290 289 289 289 289 289 288 288 288 288 288 287 287 287 287 286 286 287 287 288 288 289 289 289 289 289 289
301 299 300 300 300 299 299 299 298 296 292 290 289 289 289 289 289 288 288 289 288 288 288 288 288 287 287 287 287 287 286 285 285 286 288 288 288 289 289 289 289 289 289

GFSMA_850_thetae_072.txt.gz
Theta_e
323 319 317 319 319 318 318 319 320 320 321 324 327 328 329 328 327 327 327 327 327 327 327 327 327 327 328 328 326 325 324 324 323 319 317 316 312 307 305 305 305 305 305
327 325 323 322 322 320 320 320 321 322 325 328 329 329 329 328 329 330 331 330 330 330 330 330 329 328 327 327 326 326 326 325 325 324 323 320 318 314 307 305 304 305 305
331 328 325 324 325 324 324 324 323 324 327 329 329 329 329 330 331 331 330 331 331 331 332 330 329 329 328 323 325 326 327 327 326 326 325 324 322 319 317 308 304 304 304
333 330 328 326 328 329 329 329 328 328 328 329 330 331 331 330 331 330 330 330 331 331 330 328 327 327 324 324 323 325 326 327 326 327 326 325 324 322 319 317 309 305 304
335 333 330 328 329 329 331 332 332 332 331 331 331 330 330 330 329 329 329 330 330 332 331 328 327 326 326 326 322 323 324 325 326 326 325 325 324 324 322 319 318 314 309
335 335 331 329 331 332 333 332 332 332 331 331 330 329 329 329 329 327 327 328 328 330 330 328 328 326 327 325 322 322 322 323 323 323 324 324 324 324 323 321 320 319 318
335 335 333 332 332 333 333 333 333 332 331 330 329 328 328 327 327 326 326 326 325 326 327 326 326 325 325 321 322 322 320 320 320 320 321 322 324 324 323 322 321 320 320
335 335 335 334 334 333 334 333 333 332 331 329 328 328 327 327 325 324 325 325 324 326 325 326 326 323 321 321 321 320 319 318 318 318 319 318 319 322 323 323 322 321 321
335 335 335 335 335 334 334 333 332 330 330 329 328 329 328 327 327 326 326 326 325 325 326 324 323 322 320 321 321 320 319 319 318 318 318 317 317 318 319 321 323 323 321
335 335 335 336 336 335 334 333 333 331 327 326 323 327 323 326 326 324 323 323 324 324 323 322 322 321 322 322 321 320 316 316 315 314 315 316 317 318 319 319 319 319 320
330 332 330 332 330 328 328 330 325 318 315 313 312 312 312 313 317 325 322 322 321 319 320 320 321 322 322 320 319 317 316 314 312 312 313 314 314 314 315 316 316 317 318
326 325 325 324 326 325 319 314 313 312 311 311 311 312 312 312 313 313 317 320 320 318 318 318 320 320 320 319 318 317 314 313 312 311 311 310 310 310 311 312 311 312 313
324 323 324 325 320 314 313 313 312 311 311 312 312 312 312 312 312 312 315 316 317 317 318 319 319 319 318 318 318 316 314 312 311 311 310 310 308 308 308 310 312 312 313
322 322 325 317 314 313 313 312 312 312 312 312 311 311 311 311 311 313 316 316 318 317 317 319 318 317 317 317 316 315 314 311 310 310 309 308 307 307 307 307 310 311 310
325 321 316 317 314 313 312 312 312 312 312 311 311 310 309 310 311 311 315 315 316 318 316 316 318 316 316 315 315 313 312 310 308 308 307 306 305 305 309 309 310 310 310
317 315 313 313 312 312 312 312 312 311 311 310 310 309 309 310 310 311 313 313 314 317 317 316 316 316 316 313 313 312 310 310 309 307 305 304 304 304 305 306 307 307 308
315 313 312 312 312 312 312 312 311 311 310 309 309 308 308 309 309 311 312 313 316 314 314 317 315 313 312 312 311 309 309 307 306 305 304 303 303 302 303 304 304 305 306
313 312 312 311 311 312 311 310 309 309 309 309 308 308 308 308 309 309 309 310 311 312 313 313 313 312 311 310 308 306 305 305 305 304 303 303 302 302 302 302 303 304 305
312 311 311 311 311 310 309 309 308 308 308 308 308 308 308 307 307 307 308 308 309 310 309 310 311 310 308 306 304 304 304 304 303 302 302 302 301 301 301 301 302 302 303
311 311 311 310 309 307 307 307 307 307 307 307 307 307 307 307 307 307 307 307 307 307 307 307 307 306 305 304 303 303 302 302 301 300 299 299 298 298 299 300 300 302 302
311 311 310 308 307 306 306 306 306 306 306 306 306 306 306 306 306 306 305 305 305 305 305 305 305 304 302 302 300 300 299 299 297 296 293 291 290 290 290 291 294 297 299
310 309 308 306 306 305 305 305 305 305 305 305 304 304 304 305 305 305 305 304 304 304 304 303 302 302 299 295 294 293 292 291 289 289 289 289 289 289 288 288 288 288 288
309 307 306 305 304 302 301 300 301 304 302 301 301 301 301 303 302 298 296 294 293 292 292 292 292 293 292 292 292 291 290 289 288 288 288 288 288 288 288 288 288 288 289
307 305 305 304 302 300 301 300 299 300 299 300 300 299 301 300 296 291 289 290 290 290 290 289 289 290 290 290 289 289 288 288 288 287 288 288 287 287 288 289 289 289 289
305 304 303 302 299 300 300 300 300 301 298 298 299 299 298 292 289 289 289 289 289 289 289 289 288 288 288 287 287 287 287 287 286 287 287 288 288 288 289 289 289 289 290
304 303 302 299 300 300 300 300 300 299 299 299 298 293 289 289 290 289 289 289 288 288 289 288 288 288 287 287 287 287 286 286 286 286 287 288 289 289 289 289 289 289 289

GFSMA_850_thetae_075.txt.gz
Theta_e
325 322 319 318 318 316 318 319 322 323 323 323 327 327 328 328 327 328 327 328 328 329 329 330 329 328 326 326 325 326 326 325 324 324 322 320 318 314 308 306 305 305 306
325 323 320 321 322 320 320 321 322 323 324 327 329 329 329 329 328 329 329 329 330 331 331 331 329 328 327 326 323 324 325 325 326 325 325 324 322 319 316 310 306 305 305
331 328 327 324 324 323 322 323 323 323 325 327 329 329 329 329 330 330 329 329 329 329 331 330 329 328 326 323 323 323 325 325 325 326 325 325 324 323 320 318 310 306 305
335 333 331 327 326 326 326 326 327 326 327 328 328 330 331 330 329 329 329 328 328 329 329 330 329 326 325 325 323 322 322 325 325 326 325 325 325 324 323 320 318 311 307
335 335 333 329 327 328 329 330 331 331 331 330 331 330 329 329 329 328 328 328 327 328 330 331 329 326 325 326 324 322 322 323 323 324 325 325 324 324 323 323 320 318 314
335 336 335 332 329 329 330 331 332 330 331 331 330 329 328 328 328 328 327 326 326 326 326 327 328 326 326 325 324 321 322 321 321 322 322 322 324 324 323 323 322 320 319
335 335 335 333 330 331 331 331 332 331 331 330 329 329 327 327 326 324 324 323 324 326 325 325 325 327 326 324 321 321 321 319 318 318 319 319 319 321 324 322 321 321 320
334 335 334 335 333 332 333 332 332 331 331 330 329 328 328 325 323 323 322 320 325 325 325 324 324 326 324 322 319 321 320 319 319 318 318 318 317 317 319 323 324 323 322
335 334 333 333 334 334 333 332 332 331 331 329 327 327 327 325 325 323 325 323 325 324 325 325 325 323 322 322 319 321 321 320 319 316 316 315 317 317 317 318 319 321 324
333 332 333 333 333 333 333 332 332 332 331 328 328 328 327 326 327 321 321 323 322 322 323 323 322 321 321 321 321 321 320 317 316 315 313 312 314 317 317 318 319 319 319
332 333 332 331 330 327 326 324 324 327 327 323 314 313 312 312 312 316 317 313 319 317 321 320 320 319 320 320 319 320 318 317 315 313 312 311 312 312 313 314 315 315 317
330 330 328 325 323 322 322 323 322 319 315 312 311 311 311 312 313 313 314 314 314 316 320 319 318 318 319 320 319 319 318 316 314 313 311 311 310 310 309 309 310 311 311
328 327 325 323 322 321 323 319 314 313 312 311 311 311 311 311 312 313 314 313 315 314 316 317 317 318 319 317 317 317 316 315 313 312 311 310 310 308 307 308 307 310 312
325 324 325 324 325 325 320 313 313 313 312 312 311 311 311 311 311 312 313 314 315 317 317 317 317 318 316 316 316 317 316 314 312 311 309 308 307 307 307 308 306 310 311
324 324 322 322 324 318 314 314 313 312 312 312 311 311 310 310 309 310 312 311 314 315 315 317 317 316 316 315 315 315 314 312 311 309 309 307 306 305 309 310 309 310 311
321 320 320 320 319 319 315 312 312 312 311 311 311 310 310 309 309 310 309 310 312 313 312 314 315 315 315 315 314 313 312 311 311 308 308 306 305 304 305 307 307 307 308
320 319 318 317 317 315 312 312 311 311 311 310 310 309 309 308 308 309 309 311 311 312 315 312 314 314 314 313 311 311 311 309 307 306 305 305 304 302 303 304 304 305 306
317 317 316 314 313 312 312 311 311 310 309 309 309 309 308 308 308 308 308 309 309 311 311 311 312 312 312 311 310 309 308 307 305 304 304 303 303 302 301 302 303 303 304
315 313 313 312 311 311 311 311 309 308 308 308 308 307 307 307 307 306 307 307 307 307 308 308 309 309 310 309 308 306 305 304 304 303 302 302 301 301 302 301 301 302 302
312 312 311 311 311 310 310 308 307 307 306 307 306 307 306 306 306 306 305 306 306 305 306 307 305 307 307 306 305 304 303 303 302 301 300 300 300 299 300 300 300 301 301
311 311 311 310 310 309 307 306 306 306 306 305 306 306 306 305 305 306 305 305 305 305 305 304 304 305 305 304 304 302 301 301 300 299 298 296 293 292 291 292 295 297 299
310 310 310 309 309 307 305 305 304 304 304 304 304 303 303 302 303 305 305 305 304 304 303 302 302 302 302 302 300 295 294 295 293 291 290 290 290 290 289 289 288 289 289
310 309 308 308 306 305 304 303 301 299 300 300 301 300 301 300 300 303 301 298 298 300 299 300 299 298 297 295 293 293 292 290 289 289 288 288 288 288 288 288 288 288 288
309 308 307 306 305 304 302 300 300 299 298 299 299 299 298 299 300 298 293 290 289 289 290 289 290 291 292 292 291 291 290 289 288 288 288 287 288 288 288 288 289 289 289
308 307 307 305 304 302 300 299 300 299 299 298 298 298 298 299 296 290 289 289 289 289 289 289 289 289 289 289 288 288 288 287 287 287 287 287 288 288 289 289 289 289 289
308 307 306 304 302 299 299 299 300 300 300 297 298 298 299 294 289 289 289 288 288 288 288 288 288 288 287 287 287 287 287 286 286 286 286 287 288 288 289 289 289 289 289

GFSMA_850_thetae_078.txt.gz
Theta_e
321 321 321 319 317 317 317 316 318 321 323 323 325 327 328 328 327 327 327 328 329 330 330 330 330 327 327 326 325 322 323 325 325 325 324 323 322 320 317 311 307 306 306
325 325 322 319 320 319 319 319 321 321 322 323 327 328 328 328 327 328 328 329 329 329 329 330 329 327 327 326 322 322 323 324 324 324 325 325 324 323 321 317 312 307 306
324 328 326 322 323 323 321 322 322 322 323 325 327 328 328 328 329 329 329 328 327 328 328 328 328 329 326 325 324 322 321 323 325 326 325 325 324 324 323 321 318 311 307
332 333 331 329 326 325 324 323 324 324 325 327 328 329 330 330 329 328 328 328 327 327 326 326 327 328 327 325 325 322 321 321 321 323 324 325 324 324 323 323 321 318 311
332 334 334 332 330 327 327 328 328 329 330 330 330 330 329 329 329 328 326 328 327 327 326 327 328 329 326 325 324 323 321 320 321 321 321 323 324 324 323 322 323 321 318
334 334 335 335 332 330 329 329 330 332 330 330 330 329 328 328 327 327 326 325 325 325 325 326 325 326 326 326 325 323 320 321 321 320 319 319 320 321 323 323 322 322 320
334 333 334 335 334 332 330 330 331 331 330 330 329 328 328 328 324 323 322 320 319 319 323 325 323 325 326 327 325 320 318 321 320 319 318 318 318 317 319 323 323 322 321
334 334 334 334 335 333 331 332 332 331 330 330 329 328 327 323 321 321 322 321 321 322 325 324 324 323 325 325 322 320 319 321 320 319 319 318 317 317 317 317 319 324 323
334 332 333 333 332 333 333 332 331 331 330 329 329 329 327 324 325 323 321 320 322 321 322 322 321 324 324 322 321 320 319 321 320 319 316 315 314 315 316 317 317 318 322
333 333 332 331 331 331 331 330 329 329 329 329 329 330 330 329 328 322 315 317 318 320 322 322 322 322 321 320 319 320 321 320 319 316 316 314 313 311 313 317 318 318 319
331 331 330 329 330 330 328 327 325 325 325 323 320 319 316 312 312 313 313 312 313 315 316 316 320 320 319 319 318 318 318 319 318 317 315 315 313 310 310 310 312 315 315
327 328 329 330 329 326 325 325 325 323 319 318 316 312 312 311 312 313 314 313 313 313 313 313 318 319 318 318 318 319 319 318 317 315 315 313 312 310 309 309 308 309 309
329 327 326 325 327 324 323 324 322 322 322 314 312 312 311 311 311 312 312 313 314 313 314 314 315 316 317 317 317 317 316 317 316 314 313 312 309 308 307 307 307 307 307
329 328 328 326 323 323 324 324 322 317 314 313 312 312 311 311 311 310 311 313 313 313 314 314 314 317 316 317 316 315 315 316 315 313 311 311 309 307 306 310 308 309 310
327 326 324 323 323 322 321 320 321 315 315 312 312 311 311 311 310 310 310 309 314 312 312 314 313 314 316 316 316 315 314 314 313 312 311 310 309 306 307 309 309 309 310
325 325 324 324 323 322 322 320 315 317 312 312 311 311 311 310 309 309 309 310 310 311 314 312 312 312 314 315 314 314 313 313 312 310 310 308 306 305 304 306 306 307 307
324 324 325 325 324 322 317 316 315 313 312 311 311 310 309 309 309 308 308 309 309 310 310 311 311 313 311 313 312 312 311 311 310 310 307 305 305 304 302 303 304 304 305
325 325 323 318 316 316 315 313 312 311 311 311 310 309 308 308 308 308 308 308 308 308 309 310 311 311 311 312 310 310 309 309 308 307 305 305 304 303 302 302 303 303 304
318 318 317 316 314 313 312 311 311 311 311 309 308 307 307 307 307 307 306 306 306 306 306 307 307 308 308 310 310 309 309 308 306 303 303 303 302 302 302 301 301 302 302
314 314 313 312 312 311 311 311 310 309 308 307 306 306 306 306 305 306 305 305 305 304 304 304 304 304 305 306 307 307 306 304 303 302 302 301 301 300 300 300 300 301 301
312 312 311 311 310 310 310 310 309 307 306 306 305 305 305 304 303 303 303 303 303 304 303 304 303 302 303 304 304 303 302 302 300 301 300 299 298 296 295 294 296 297 299
311 310 310 310 310 310 309 308 306 305 304 304 303 302 301 301 301 300 300 302 303 302 302 301 301 300 302 301 301 301 300 297 298 298 297 294 292 290 290 290 289 290 290
310 309 309 309 308 308 307 306 305 304 302 299 299 300 300 300 300 299 300 300 298 300 301 299 300 299 299 299 299 297 294 293 292 291 289 289 289 289 289 288 288 288 288
309 309 309 308 308 306 305 304 304 302 300 299 298 298 298 298 299 299 298 294 290 289 289 290 291 293 293 295 293 293 293 291 290 289 288 288 288 288 288 288 288 288 289
309 308 308 308 307 306 305 304 302 300 300 299 299 299 298 298 298 298 293 289 289 289 289 289 289 289 289 290 290 290 289 288 288 288 288 287 288 288 288 288 289 289 289
308 308 308 307 307 305 304 303 301 300 300 300 299 298 297 296 297 292 289 289 289 289 288 288 288 288 287 288 287 287 287 287 287 287 287 287 287 288 288 289 289 289 289

GFSMA_850_thetae_081.txt.gz
Theta_e
319 318 317 318 318 317 317 317 317 317 319 322 322 325 326 327 326 326 326 327 328 329 330 330 329 328 326 327 325 321 322 322 324 324 324 324 323 322 320 317 310 307 306
322 321 321 321 319 317 316 317 317 321 322 323 323 326 327 328 328 327 328 328 328 328 328 327 327 327 327 326 325 323 323 321 321 323 323 324 324 324 323 321 317 310 306
322 325 325 323 319 321 320 320 320 322 322 323 326 328 328 328 328 329 328 328 327 327 326 326 326 326 326 326 325 325 323 321 320 320 322 324 324 323 323 323 321 317 309
318 323 327 326 323 324 323 322 322 323 323 324 327 328 329 329 328 328 328 327 327 326 327 326 325 325 326 327 324 324 324 321 319 320 321 322 324 324 324 323 323 321 317
321 329 333 332 331 327 325 325 324 324 326 328 330 329 329 328 328 326 328 327 326 326 325 325 325 326 326 326 325 323 324 321 319 320 320 320 321 323 324 323 322 322 321
331 332 333 335 333 331 328 328 329 329 331 330 330 329 329 327 328 327 325 325 324 322 319 321 324 325 324 325 325 325 324 320 319 320 319 318 318 319 320 323 323 322 322
333 334 334 334 334 333 331 329 330 331 331 329 329 327 328 328 324 323 320 318 319 317 317 322 324 323 323 324 325 324 321 319 319 320 319 318 318 318 317 317 320 324 322
333 334 334 333 333 334 333 331 331 331 329 329 329 328 327 325 322 321 322 321 315 318 318 324 324 323 323 323 324 323 321 320 320 320 320 319 318 316 316 315 316 317 322
333 333 333 333 332 332 332 331 331 330 330 328 328 328 325 325 325 324 321 317 315 320 316 317 321 318 321 323 323 320 319 319 320 320 319 317 316 315 314 315 317 318 318
330 332 332 332 332 331 331 330 330 329 328 327 327 327 324 325 325 324 314 312 313 313 315 316 317 321 321 321 320 319 318 317 320 319 316 316 316 315 314 311 314 318 318
330 329 328 329 331 330 330 330 328 327 325 324 325 322 319 319 313 312 313 312 312 313 313 313 313 316 319 319 319 319 318 319 319 317 315 316 316 314 312 310 309 311 317
329 330 329 329 326 328 329 326 324 324 323 324 323 323 318 312 312 312 312 312 312 312 312 312 312 313 316 318 319 318 317 318 317 317 316 316 315 312 309 308 308 308 309
326 329 327 327 326 325 325 324 322 323 321 321 320 319 317 312 312 311 311 312 313 312 311 312 312 314 314 315 317 317 317 316 315 316 316 315 313 312 309 307 307 307 307
328 328 328 328 326 326 326 323 323 323 324 322 316 314 314 312 311 311 311 311 313 312 312 312 312 314 313 317 316 315 315 314 314 315 315 313 313 311 308 309 311 309 310
327 327 328 327 326 325 323 323 324 323 320 318 315 313 312 311 311 311 310 310 311 311 311 311 312 313 313 312 315 315 315 314 314 314 314 312 312 309 306 309 309 310 310
325 325 326 324 324 324 324 324 321 319 317 316 313 312 311 311 311 310 309 309 309 312 310 310 311 311 311 312 312 314 313 313 312 312 311 311 310 306 305 305 307 307 308
322 325 325 324 324 324 323 321 320 316 315 313 312 311 311 311 310 309 309 308 309 309 309 310 310 310 310 312 311 311 312 311 310 310 310 310 306 305 304 303 303 305 304
318 324 325 325 325 325 323 319 315 315 313 312 311 311 310 309 308 308 308 308 308 309 309 309 309 309 310 311 311 311 310 309 308 308 308 307 305 304 303 302 301 303 303
318 322 323 322 319 317 316 315 313 312 311 311 310 309 308 308 307 307 307 307 306 307 306 306 306 307 307 307 308 309 308 307 307 307 306 303 303 302 302 302 301 301 302
316 316 316 316 315 314 313 312 311 310 310 310 309 308 307 307 306 306 304 305 305 305 305 304 304 304 304 305 305 306 306 306 306 305 303 301 300 300 300 301 301 301 301
313 313 313 313 312 312 311 310 310 310 310 309 307 307 306 305 304 303 303 303 303 304 303 303 303 302 303 303 304 305 304 304 303 302 301 300 299 299 298 298 298 298 299
312 312 312 311 311 310 310 310 310 309 307 306 305 304 303 301 301 301 301 300 300 301 302 302 302 301 301 301 301 302 302 301 300 298 299 299 298 296 293 291 290 290 290
311 310 310 310 309 309 309 309 309 307 306 305 303 302 301 301 301 301 300 299 299 301 300 300 300 300 299 300 300 300 299 299 295 294 292 290 290 290 289 289 289 288 288
310 309 309 309 309 308 308 308 307 306 305 303 302 300 300 300 300 300 300 300 297 293 291 291 293 295 297 297 296 296 295 293 292 291 290 289 289 289 288 288 288 288 288
309 309 308 308 308 307 307 307 306 305 303 301 301 300 300 300 300 299 298 298 293 289 289 289 289 289 290 291 292 292 292 291 290 289 289 288 288 288 288 288 288 289 289
309 308 308 308 307 306 306 306 305 304 303 301 300 299 300 299 298 297 298 291 289 289 289 289 289 288 288 288 288 288 288 288 288 287 288 287 287 288 289 289 289 289 289

GFSMA_850_thetae_084.txt.gz
Theta_e
316 317 317 317 317 317 318 318 318 318 318 318 321 322 326 328 328 326 326 326 327 328 329 329 328 327 327 327 327 323 322 321 321 323 323 323 324 323 322 320 314 308 306
317 317 317 317 317 317 317 317 317 317 320 322 328 327 328 327 328 328 328 329 328 327 327 327 327 326 326 327 326 326 324 322 319 320 321 322 323 324 324 323 320 315 308
322 321 320 321 322 320 319 317 317 319 324 323 325 329 330 331 331 330 331 331 329 327 327 326 325 324 325 326 327 326 325 324 320 319 319 321 324 322 323 323 323 320 315
330 325 327 327 325 321 321 320 321 321 324 326 328 330 330 331 331 331 330 330 330 328 328 326 327 327 326 325 326 326 325 324 322 319 319 320 320 323 324 323 323 323 321
334 326 321 325 328 324 324 324 323 323 327 326 327 330 331 331 331 330 329 329 329 325 327 327 322 325 325 326 325 325 325 324 323 319 319 319 318 319 321 324 323 322 322
326 324 320 331 333 331 329 326 325 324 326 329 331 331 331 331 330 330 329 329 327 321 320 317 318 324 324 325 324 325 324 325 321 319 319 319 318 317 318 319 321 323 322
332 332 329 333 334 334 332 329 327 328 329 331 330 328 330 330 329 328 326 322 322 315 315 316 323 325 325 323 324 325 324 324 321 319 320 320 319 318 318 317 317 317 323
331 332 332 333 333 334 334 332 329 330 331 331 329 331 328 328 326 324 326 319 317 312 315 314 319 324 323 320 322 323 324 322 320 319 320 320 319 318 316 316 315 315 316
329 330 331 332 333 333 333 333 332 330 330 329 328 329 328 326 326 325 324 319 313 315 315 313 315 319 317 321 323 323 322 320 319 318 320 320 318 316 315 315 315 314 316
331 331 331 331 330 332 332 332 331 330 330 329 328 327 326 328 325 323 322 317 313 313 313 313 313 312 318 321 322 321 320 319 318 317 319 317 317 316 316 316 313 312 315
327 329 330 329 328 328 330 331 331 329 329 329 326 325 324 320 318 319 318 318 315 316 313 312 312 312 313 317 319 319 319 319 318 318 318 317 316 316 316 314 311 308 310
325 325 326 329 329 328 329 328 327 329 325 324 322 322 322 323 320 313 314 317 317 316 313 312 311 312 312 314 317 317 317 317 316 317 316 316 316 316 314 313 310 307 307
327 325 324 325 328 327 328 328 326 325 323 323 322 323 323 319 313 313 312 312 313 313 314 314 312 312 311 314 314 316 317 316 317 316 315 315 315 314 313 312 309 309 307
328 327 327 328 328 327 325 324 325 323 323 323 321 322 321 313 313 312 311 311 314 314 313 313 313 311 312 312 314 315 315 314 315 314 314 314 314 314 312 309 310 311 311
328 326 327 327 328 327 326 326 326 324 322 322 324 318 314 315 312 311 311 311 311 314 313 313 313 311 313 313 313 312 313 314 314 314 313 313 313 313 312 308 309 310 310
325 326 326 327 327 327 326 324 323 323 324 324 319 315 315 313 312 311 311 311 310 312 312 311 311 309 310 311 311 311 311 312 312 312 312 312 311 310 309 306 306 308 307
318 324 326 326 326 326 325 323 323 324 322 318 315 315 313 312 311 311 310 309 309 309 309 310 310 310 309 309 310 310 311 310 310 310 310 309 309 309 306 305 304 305 305
316 318 324 326 326 324 324 324 324 320 319 316 315 313 311 311 311 310 309 308 308 308 308 308 309 308 308 308 310 310 310 309 309 308 308 308 308 306 304 304 302 301 303
316 317 321 325 325 325 324 324 322 320 316 314 312 312 311 311 310 309 308 308 308 307 308 308 307 306 306 306 306 306 307 308 307 306 306 306 306 304 303 303 302 301 302
315 317 321 323 324 324 323 320 316 315 313 312 311 311 310 309 308 307 307 306 306 304 305 305 305 305 305 305 305 305 305 306 306 305 305 305 303 302 302 301 301 301 301
314 315 316 316 317 316 315 314 313 312 311 310 310 310 309 308 307 306 306 304 303 304 304 304 304 304 303 303 303 303 304 304 304 304 303 303 301 299 299 299 299 299 299
313 313 313 314 313 313 312 311 311 310 310 310 309 308 307 305 304 302 301 301 302 302 302 303 303 302 302 302 302 302 302 302 302 302 302 299 299 299 298 296 294 292 291
311 311 312 312 311 311 310 309 309 309 308 307 306 305 304 302 301 301 301 301 301 300 300 301 301 301 301 301 300 301 301 301 300 300 296 292 293 293 292 290 290 289 289
310 310 310 310 309 309 308 308 308 307 306 305 305 304 303 303 301 300 301 301 300 300 298 295 296 298 299 298 298 298 298 298 297 295 293 291 290 289 289 289 288 288 288
310 310 309 309 308 308 307 307 307 306 305 304 304 302 302 302 301 301 301 300 300 296 292 290 290 290 290 291 293 294 294 294 293 292 290 289 288 288 288 288 288 288 288
309 309 308 308 307 307 307 306 307 306 305 304 303 302 302 301 300 300 299 298 299 293 289 289 289 289 289 289 290 291 291 290 290 288 288 287 287 288 288 288 288 289 289

GFSMA_850_thetae_087.txt.gz
Theta_e
326 330 330 329 330 327 329 328 327 326 323 324 325 325 325 327 328 328 328 326 325 327 328 328 328 327 326 327 327 326 324 323 320 319 321 323 323 324 323 322 320 315 309
326 330 330 329 328 328 325 324 324 325 324 325 327 329 329 330 331 331 330 331 329 327 327 326 327 326 326 326 326 326 327 325 322 319 318 318 321 322 322 323 323 321 314
325 326 327 324 319 320 324 325 324 324 326 328 329 329 329 331 331 331 331 331 331 329 327 327 326 326 325 324 325 327 327 325 324 321 319 318 319 321 323 323 323 323 322
326 321 325 326 330 330 323 325 322 322 329 330 329 329 330 332 331 332 331 331 330 330 330 329 328 326 326 326 324 325 326 325 323 323 319 318 318 319 321 323 323 323 322
328 326 326 326 331 332 328 327 328 328 329 328 328 329 331 331 332 331 330 329 329 329 329 328 326 319 321 325 325 325 325 325 324 324 320 319 319 318 317 320 322 323 322
334 335 330 325 332 332 330 329 329 329 329 328 328 329 331 331 331 330 330 329 329 328 325 325 319 324 327 324 325 324 324 324 324 324 320 319 319 318 317 317 317 319 322
332 332 331 327 331 333 333 331 330 329 328 328 330 331 331 331 330 330 329 328 325 325 315 315 316 321 328 327 323 323 325 325 324 324 319 319 319 319 318 318 317 317 317
331 331 332 330 332 333 333 333 331 329 329 329 331 331 331 330 329 328 326 327 324 322 318 314 313 312 318 323 322 320 323 323 324 320 318 318 319 320 319 317 316 315 314
329 330 330 330 332 332 333 334 333 330 330 331 331 330 329 328 327 326 327 325 322 320 322 318 312 312 313 315 316 322 323 323 321 320 318 318 317 319 318 316 316 316 315
329 329 330 330 330 331 331 331 331 332 331 331 330 328 329 328 327 326 326 322 317 316 317 318 315 313 312 313 319 322 323 322 320 318 318 317 318 317 316 316 316 314 313
323 325 329 331 330 330 329 329 329 328 331 330 329 329 327 325 324 323 323 320 319 318 317 317 315 313 312 312 314 317 319 319 318 317 318 317 318 317 316 316 315 314 312
323 324 327 327 328 328 326 327 327 325 325 327 330 328 326 323 323 322 322 318 317 318 317 314 313 312 312 311 312 314 318 316 317 317 316 316 317 316 315 315 314 313 309
322 322 324 323 324 326 326 326 325 326 327 328 328 323 324 322 323 324 319 314 314 315 315 315 314 313 312 312 312 313 315 316 317 316 316 316 315 314 314 314 314 312 310
325 324 323 323 324 324 325 327 326 327 326 324 324 323 322 322 322 320 313 313 315 315 314 313 314 313 311 310 313 312 314 314 315 315 314 314 314 314 313 313 311 310 311
328 327 327 326 327 327 327 327 325 326 325 323 323 323 322 322 320 314 313 311 311 313 314 314 314 313 311 312 311 313 313 312 313 313 313 313 312 312 312 312 311 308 311
328 326 326 327 327 327 327 327 326 325 325 325 323 321 322 321 314 314 312 311 311 311 313 313 312 311 310 309 310 310 310 310 310 311 311 311 311 311 311 310 308 306 307
323 325 326 326 327 327 327 327 326 326 324 323 322 323 322 316 314 313 311 311 311 310 311 312 311 310 309 308 309 309 309 309 309 310 310 310 310 309 309 308 306 305 304
317 318 323 326 327 326 327 327 326 324 323 322 323 322 317 315 313 311 311 311 310 309 309 309 310 308 308 308 308 308 309 310 309 309 308 308 307 307 307 306 304 303 302
316 316 317 321 325 326 326 325 325 324 323 324 321 319 316 315 312 311 310 310 309 308 308 308 307 308 307 306 306 306 306 307 307 307 307 306 306 305 306 304 303 302 301
315 316 317 320 323 325 325 325 324 324 322 320 319 316 314 312 311 310 309 308 308 307 307 306 305 306 305 305 305 305 305 305 305 305 305 304 304 304 304 302 301 301 301
313 314 316 318 320 323 324 324 324 322 320 317 314 312 311 310 310 309 308 307 307 306 305 304 304 304 304 304 304 304 303 304 304 304 303 303 303 302 301 300 300 300 299
312 313 313 314 315 317 319 319 317 315 314 312 311 310 310 309 308 306 306 305 305 304 303 303 303 303 303 303 303 302 302 302 302 303 302 302 302 300 299 299 298 296 294
311 312 312 312 313 313 313 313 312 311 310 309 309 308 307 307 306 304 304 303 302 301 301 301 301 301 302 302 301 301 301 301 301 301 300 299 296 296 297 295 292 290 290
310 311 311 311 311 311 311 311 310 309 308 308 308 307 306 305 304 303 303 302 301 300 300 300 298 299 299 300 299 299 299 298 299 298 298 296 293 290 290 289 289 288 289
307 309 310 310 310 310 310 309 308 308 308 307 306 305 305 304 303 303 302 301 300 299 299 296 292 291 291 293 294 295 295 296 296 294 293 292 290 289 288 288 288 288 288
306 307 309 309 309 309 309 308 308 307 307 306 305 305 304 303 303 301 300 300 298 299 298 294 291 290 289 290 290 291 293 293 293 292 290 289 289 288 288 288 288 288 289

GFSMA_850_thetae_090.txt.gz
Theta_e
332 327 325 317 319 321 319 320 321 324 325 322 322 324 324 323 326 327 327 326 325 325 326 327 327 326 325 325 326 326 325 325 322 319 318 319 321 322 323 323 322 321 316
332 327 326 320 321 324 325 329 326 326 325 323 324 326 326 328 329 330 330 329 330 329 327 326 326 325 325 324 323 325 327 328 325 322 320 318 318 319 322 321 322 322 321
328 329 331 330 329 329 326 325 323 324 325 324 324 328 329 329 330 329 330 331 331 330 329 329 327 326 325 325 325 324 325 326 326 323 322 320 318 318 319 322 322 323 322
326 327 328 326 324 322 320 323 323 324 324 325 328 328 328 330 331 331 331 331 331 329 330 329 328 328 325 323 323 323 324 325 325 323 322 321 319 317 317 318 321 323 323
327 323 322 322 323 325 325 324 322 321 321 324 328 328 329 330 331 331 331 330 329 329 329 327 325 321 319 319 320 323 324 323 325 324 324 320 319 318 317 317 316 318 322
331 328 328 327 330 331 331 328 326 326 327 328 327 327 329 331 331 331 330 329 329 329 327 321 317 314 318 322 321 323 323 322 323 324 323 320 319 318 318 318 317 317 317
332 331 330 329 328 332 332 329 329 327 328 328 328 328 329 330 330 330 329 329 329 326 320 314 313 314 316 317 320 322 322 324 325 323 324 320 318 317 319 319 318 316 316
332 333 334 332 328 328 331 332 332 330 329 328 328 329 330 330 329 330 329 328 325 324 321 315 314 312 312 313 313 316 320 321 323 323 321 319 318 318 317 319 317 316 315
331 331 331 332 331 330 332 332 333 332 331 329 328 330 331 330 330 329 328 326 326 319 319 321 317 313 312 313 313 312 318 322 323 321 320 319 317 317 316 318 317 316 316
329 328 329 329 329 330 331 331 331 331 331 331 330 329 329 328 328 326 326 326 324 319 318 318 317 315 314 312 312 315 320 323 322 321 319 319 317 317 318 317 316 316 316
327 323 323 324 326 329 329 330 330 328 328 329 327 327 329 329 327 326 325 322 320 319 317 317 316 316 313 313 312 312 315 319 320 319 318 317 316 316 317 316 316 315 315
325 325 325 323 323 323 327 329 326 327 327 326 326 325 329 328 327 325 322 321 321 319 318 318 317 314 314 312 312 311 312 316 318 317 317 316 315 314 315 314 315 314 314
326 325 324 323 322 327 327 328 327 326 325 324 325 326 326 327 324 323 322 322 322 317 317 316 313 314 314 312 311 311 312 314 315 315 316 315 314 315 314 314 314 313 313
325 325 322 323 324 324 323 325 326 325 324 324 326 326 327 323 322 321 322 323 318 314 314 314 314 314 314 312 310 312 312 313 314 314 313 314 313 313 313 313 312 313 311
326 324 323 323 324 323 324 325 325 325 325 323 326 325 325 323 322 322 322 318 313 313 313 313 314 314 313 312 311 311 311 313 312 312 313 312 313 312 312 311 311 311 311
327 327 326 326 326 326 326 326 326 324 325 325 325 324 323 323 322 322 318 314 313 311 311 312 313 313 312 311 310 309 310 310 310 309 310 311 311 310 311 311 311 310 308
326 327 326 326 326 325 326 326 327 326 324 325 325 324 324 323 321 322 315 314 313 311 311 312 313 312 312 311 309 308 309 309 309 308 309 310 309 309 309 309 308 307 306
317 319 321 321 324 325 326 326 326 326 326 325 325 325 324 322 323 318 315 314 312 311 310 310 310 311 310 308 307 307 307 307 308 308 308 308 308 308 308 307 306 306 304
315 316 316 317 320 324 325 325 328 327 327 326 325 323 322 323 320 316 315 313 311 310 310 309 310 308 308 306 306 306 306 306 306 306 306 306 306 307 307 305 305 303 303
312 313 315 316 318 320 324 325 325 326 326 325 323 323 321 319 316 314 312 310 310 309 308 307 309 308 305 306 306 305 305 305 305 305 304 304 305 305 305 304 303 302 302
311 312 313 314 315 317 321 323 322 324 324 323 321 320 316 314 313 312 310 309 309 308 308 307 307 306 304 304 304 304 304 304 304 304 304 303 303 303 303 302 301 300 299
309 311 312 313 313 315 316 319 321 321 320 319 318 316 314 313 311 310 309 309 308 307 306 306 305 303 302 302 303 303 303 303 302 302 303 302 302 301 301 300 299 298 297
307 308 311 311 312 312 314 316 318 317 316 315 314 313 311 310 309 309 308 307 305 304 303 302 302 302 301 302 303 302 302 301 301 301 301 301 300 299 294 296 297 295 291
305 306 308 310 310 311 311 312 312 313 312 312 311 310 309 309 308 308 306 305 303 302 302 301 300 301 301 301 301 301 300 299 299 299 299 298 298 296 292 290 289 289 289
304 305 306 307 309 310 310 310 310 310 310 310 309 308 308 308 306 306 304 303 302 302 301 300 301 300 297 297 297 297 297 297 296 296 297 297 294 292 290 289 289 289 289
303 304 304 306 306 307 309 309 309 308 308 308 308 307 306 306 305 304 303 303 302 301 301 301 299 295 292 291 291 291 292 294 295 295 293 292 291 290 289 289 288 288 288

GFSMA_850_thetae_093.txt.gz
Theta_e
332 319 320 329 322 322 323 322 320 318 318 321 322 322 323 323 321 324 326 326 325 325 324 325 325 324 323 324 323 325 326 327 325 323 320 317 317 317 319 321 321 322 321
334 328 324 322 321 322 322 321 319 321 323 323 320 322 323 323 328 328 328 329 328 329 328 326 324 325 325 324 323 322 325 327 327 325 322 321 319 317 318 319 320 321 322
333 333 326 322 317 320 320 322 324 324 325 323 323 324 324 326 328 329 330 329 329 329 328 329 327 326 326 324 324 324 324 326 325 325 323 321 320 319 317 318 319 321 321
332 332 329 323 320 323 327 325 325 322 323 324 324 324 328 329 328 331 331 330 330 329 328 329 329 328 324 320 318 323 323 324 325 325 323 322 320 319 317 318 316 318 321
331 330 329 330 329 328 326 324 321 322 323 323 323 326 327 328 329 330 331 330 330 329 329 329 328 321 317 316 318 319 322 324 323 324 323 323 320 318 318 318 317 316 317
328 328 330 329 328 325 322 323 323 323 321 321 322 325 327 329 330 330 330 330 328 328 328 328 325 315 314 316 318 321 321 323 322 323 324 323 320 319 318 318 318 317 317
329 328 326 325 326 327 327 328 327 325 324 326 328 327 326 328 330 330 330 329 328 328 328 328 315 313 313 314 316 319 322 321 322 324 324 323 320 318 318 317 317 318 316
329 330 328 329 330 331 332 331 329 328 328 328 328 328 328 328 328 328 330 329 328 329 328 320 316 314 313 312 313 314 316 320 322 323 324 321 319 318 317 316 316 318 316
330 330 329 330 331 329 330 331 331 331 331 330 329 328 330 330 329 329 329 330 328 328 322 318 318 318 314 313 312 313 313 318 321 322 322 320 320 317 317 316 317 316 316
328 328 328 329 332 330 327 329 331 332 331 330 330 329 328 329 328 327 329 327 327 325 318 319 317 316 315 314 313 312 314 320 323 322 321 320 319 316 316 316 317 316 316
326 324 325 328 328 329 329 329 329 329 328 329 330 329 328 326 327 327 325 326 326 322 319 318 317 317 315 314 313 312 312 315 320 320 319 319 319 316 314 314 316 315 315
329 327 326 325 325 325 325 326 328 328 325 327 326 327 327 326 326 326 326 324 323 321 321 320 317 317 316 314 313 312 311 312 314 317 318 318 317 315 315 314 314 314 314
327 325 325 325 324 324 324 325 324 326 327 327 326 325 325 325 325 327 326 323 324 322 322 319 318 316 314 314 313 311 311 311 313 315 314 314 315 315 313 314 313 312 312
324 322 325 325 323 322 323 325 326 326 327 326 325 324 324 325 325 326 327 322 322 323 319 317 315 314 314 313 313 311 311 312 312 313 313 314 313 313 312 312 313 311 311
321 324 324 324 323 323 323 324 323 324 325 326 324 324 325 323 322 322 321 321 321 322 317 314 314 313 313 314 313 311 311 310 311 312 311 312 312 311 311 311 312 311 310
325 325 325 324 323 323 324 324 323 325 323 323 325 323 324 323 323 323 321 320 322 321 315 313 312 313 313 313 312 311 310 309 310 310 310 309 309 310 310 310 310 310 309
326 326 326 326 325 325 324 323 324 325 325 323 323 322 324 324 323 323 322 322 321 317 313 312 312 312 313 313 312 311 309 308 308 308 308 307 308 309 308 308 308 308 308
316 316 318 320 323 325 325 325 325 325 325 325 324 323 324 324 324 323 322 322 317 313 312 311 311 312 312 311 311 309 307 307 306 306 306 307 308 308 308 308 307 307 306
312 313 315 315 316 317 318 321 325 326 326 324 326 325 325 325 324 323 322 321 314 312 311 311 311 310 310 309 308 307 305 306 306 305 305 305 305 306 306 306 306 304 304
310 311 311 312 314 316 317 317 323 324 323 324 324 325 324 325 324 323 321 317 313 312 311 310 309 308 309 308 307 305 305 305 305 304 305 304 304 304 304 305 304 303 302
306 308 310 311 312 313 315 316 319 320 321 322 322 322 322 322 322 321 318 313 312 311 310 309 308 307 307 306 306 304 304 304 304 304 304 304 303 303 303 303 302 301 300
303 304 307 310 311 312 313 314 316 318 319 321 321 321 320 319 320 317 314 312 310 310 309 308 307 306 305 304 304 302 302 303 303 303 303 302 302 302 302 300 300 300 299
303 303 304 306 309 311 311 312 313 315 317 318 319 319 318 317 315 314 312 310 309 308 308 307 306 305 305 304 301 302 302 302 302 301 301 301 302 301 300 300 295 297 297
302 303 303 304 306 307 310 310 311 311 313 314 314 314 314 314 313 311 309 308 307 306 306 305 304 303 303 303 302 302 302 301 300 300 300 300 300 299 299 296 291 290 290
297 300 301 303 304 306 307 309 309 309 310 311 311 311 310 309 309 308 308 307 305 305 304 303 303 303 303 302 301 300 300 299 298 298 298 297 297 297 295 292 290 289 289
292 293 297 300 302 303 304 305 307 308 309 309 309 309 308 308 306 306 307 305 304 304 303 303 303 303 302 300 296 295 296 295 296 295 295 295 295 293 290 290 289 288 288

GFSMA_850_thetae_099.txt.gz
Theta_e
334 336 336 335 331 329 333 329 322 320 319 319 319 318 318 319 320 320 319 324 324 324 323 323 324 324 322 322 322 322 323 324 326 327 325 323 321 319 317 317 317 318 319
325 330 335 334 332 328 330 330 326 322 320 319 319 320 320 321 321 321 319 324 326 326 326 327 324 322 323 322 322 322 323 322 325 326 325 325 322 320 320 318 317 317 318
327 325 325 333 332 332 329 328 327 323 320 319 319 321 322 321 322 322 324 326 327 327 327 326 326 325 325 326 324 324 323 324 324 327 324 324 322 321 320 318 318 316 315
328 327 329 330 331 323 330 326 325 323 321 318 318 320 320 321 322 322 325 327 328 329 328 328 327 327 328 326 324 320 317 320 323 324 323 323 324 322 320 318 318 317 317
327 326 329 324 323 318 324 329 326 324 321 320 321 323 322 322 323 325 326 328 329 329 329 329 328 327 328 327 318 315 317 317 320 322 324 323 323 322 320 319 318 317 317
325 323 321 327 324 321 321 326 327 324 321 322 324 324 323 323 323 326 328 327 330 330 330 330 328 327 327 326 316 314 316 318 320 321 323 323 323 323 320 319 318 317 316
324 327 324 325 327 325 322 325 322 323 325 326 325 324 324 323 324 326 327 328 329 330 330 329 328 327 327 326 314 314 315 315 317 321 321 322 323 323 321 319 318 317 316
326 325 325 327 325 326 328 326 319 323 325 327 325 324 324 323 322 325 327 328 329 329 329 328 328 327 327 325 315 313 313 313 313 315 321 323 323 322 321 319 317 316 315
327 327 326 327 327 327 328 328 325 325 326 326 324 325 326 326 325 325 326 328 329 329 328 328 327 327 327 323 316 315 314 313 312 318 321 321 322 322 320 319 317 315 315
327 327 327 327 327 325 329 328 326 328 328 325 325 326 326 327 327 327 326 326 329 329 329 329 328 327 327 319 318 315 314 314 312 319 319 319 320 320 319 319 317 314 313
326 325 328 327 329 327 328 329 329 329 327 326 328 326 327 328 328 328 328 327 327 327 328 329 328 327 324 319 318 315 314 313 312 312 317 319 320 320 318 317 316 314 313
326 326 325 328 327 326 327 329 328 327 328 328 327 327 327 328 328 328 328 327 325 324 325 328 326 325 323 322 317 317 314 313 312 311 314 317 318 319 317 316 315 314 313
326 326 325 327 328 326 326 326 326 326 325 326 325 326 327 327 326 326 326 325 326 325 326 325 324 323 320 320 320 317 313 313 312 311 311 315 317 317 316 314 313 313 311
327 326 325 325 326 325 326 326 326 326 326 326 326 326 326 326 325 324 324 326 326 325 325 325 323 321 320 320 319 316 314 313 311 310 311 313 314 315 313 313 313 312 311
325 326 326 326 326 326 326 326 324 324 323 323 324 324 324 323 323 323 324 325 327 325 323 323 322 321 321 320 318 315 314 313 312 310 310 309 310 310 311 311 311 310 309
322 322 323 324 324 324 324 325 325 324 323 324 324 324 324 324 323 324 326 327 326 325 323 322 321 322 320 317 316 314 313 313 312 310 310 309 309 309 310 309 310 309 308
321 323 322 321 322 322 324 323 324 323 323 323 324 324 323 324 324 324 323 325 324 324 321 319 320 319 317 316 314 314 313 313 312 311 310 309 308 309 309 307 307 308 307
311 312 314 315 318 321 323 324 323 322 322 323 323 323 324 323 323 323 323 321 321 321 320 320 321 320 318 315 314 313 313 312 312 311 309 307 307 308 308 306 307 306 306
305 306 308 310 311 313 315 318 323 324 324 323 322 322 322 323 324 324 321 322 321 322 321 320 320 320 319 314 313 313 312 312 311 309 307 306 306 305 306 305 305 305 305
304 304 304 304 306 309 311 312 314 316 318 320 323 323 322 324 324 325 324 321 322 323 323 323 322 322 320 315 312 312 312 312 310 308 307 306 305 305 304 304 303 303 304
298 300 301 303 303 304 306 309 311 312 314 315 319 318 321 321 322 322 323 323 323 322 323 321 320 319 317 313 312 312 311 310 307 307 306 305 304 304 304 304 303 303 303
295 295 295 296 299 302 303 305 308 310 311 312 313 315 316 318 319 321 322 321 322 321 321 321 319 320 316 313 312 311 310 308 306 306 305 304 303 303 303 303 302 302 301
292 293 293 293 294 295 298 301 303 305 308 310 310 311 312 314 317 318 319 320 320 321 320 320 320 320 315 312 311 310 309 308 306 305 303 303 303 303 302 302 301 301 300
292 292 291 291 292 292 293 293 296 301 302 305 308 309 311 311 313 315 317 318 319 318 317 316 314 313 312 311 312 311 308 306 304 304 302 302 302 302 301 301 300 300 300
289 289 290 290 290 291 291 291 294 295 298 301 303 306 308 309 311 311 312 313 314 314 314 313 313 312 313 311 312 308 306 304 303 302 302 301 301 300 300 300 299 299 299
288 288 288 289 289 289 289 290 291 298 299 299 301 302 306 307 309 309 309 309 310 312 312 311 311 310 309 308 306 306 304 303 303 301 301 301 300 299 298 298 298 297 295

GFSMA_850_thetae_102.txt.gz
Theta_e
331 334 337 336 336 337 327 330 328 320 318 317 317 318 318 318 319 320 319 320 323 323 322 322 323 323 322 320 321 321 321 323 324 326 327 325 323 321 319 319 318 317 317
327 328 333 335 336 335 328 332 332 327 321 318 318 318 318 318 319 320 320 320 324 325 325 324 325 324 322 321 321 321 320 322 324 327 326 325 324 321 320 319 318 317 315
326 326 326 330 334 334 332 332 332 330 325 321 319 319 319 319 320 320 321 320 323 326 326 326 327 325 324 325 325 324 326 325 324 325 326 324 324 322 321 319 318 317 317
327 327 326 326 329 333 333 332 330 329 326 323 320 319 320 322 321 321 321 323 326 327 328 327 327 326 327 327 326 326 321 316 317 325 323 323 323 324 322 319 319 318 317
327 326 327 327 328 330 333 331 324 328 327 324 321 319 320 321 321 321 321 322 324 327 328 328 328 328 327 327 327 325 317 315 317 318 322 324 323 322 322 320 319 319 317
325 328 327 328 329 326 328 327 323 324 326 325 324 319 320 323 322 322 322 324 325 327 329 329 329 329 327 327 327 323 315 317 316 317 320 323 323 322 322 321 319 318 317
326 327 327 327 327 328 324 324 322 322 323 322 325 322 324 324 323 322 323 324 327 327 329 330 329 329 328 327 326 326 314 314 315 314 320 323 322 322 323 321 319 318 317
326 326 326 325 324 325 324 320 319 319 320 322 325 325 327 325 323 322 322 324 326 327 328 329 330 328 328 327 327 327 316 313 313 313 314 319 323 323 323 321 319 318 316
327 326 326 326 326 326 325 325 322 321 320 321 321 324 325 324 322 321 321 321 323 326 328 328 329 328 328 327 327 326 317 314 313 313 317 321 322 321 321 321 319 318 316
326 327 327 327 325 326 325 326 326 324 326 324 321 325 326 324 325 324 323 322 323 326 327 328 329 328 328 327 327 325 318 315 314 314 320 321 320 320 320 319 318 317 317
324 326 326 327 327 327 327 326 326 326 325 325 322 325 326 326 325 327 327 326 325 324 326 328 327 328 328 327 327 326 318 317 315 313 317 321 321 322 321 319 317 316 315
324 324 325 326 327 326 326 327 326 325 323 326 327 324 327 326 325 327 327 327 327 327 326 327 327 326 325 327 326 322 318 320 314 313 312 314 319 321 320 319 317 315 314
326 325 324 325 326 326 325 328 328 326 324 326 326 327 327 326 327 326 325 326 326 327 326 325 324 323 324 326 325 320 318 318 314 313 312 315 318 317 318 318 315 314 312
325 326 325 326 326 325 325 324 325 324 325 326 326 326 326 326 325 325 326 326 326 325 324 324 324 323 325 326 323 320 318 318 314 313 311 313 314 315 317 316 315 313 312
323 324 324 324 324 326 325 325 326 324 322 324 325 325 325 326 325 326 326 325 324 324 324 324 325 324 325 324 322 319 319 318 315 312 311 311 311 311 312 313 310 310 311
321 322 322 322 322 324 324 324 325 325 325 323 321 323 324 323 322 323 324 323 323 324 323 324 324 324 325 323 320 319 319 315 313 311 311 310 310 309 309 308 309 308 309
311 312 313 318 321 322 321 322 321 321 324 324 324 324 322 320 321 323 324 324 324 325 324 322 323 324 322 320 320 319 317 314 313 312 311 310 310 309 308 308 309 308 307
304 305 307 310 311 313 316 319 321 321 323 321 322 323 323 322 322 324 323 323 323 323 323 321 321 320 319 318 318 317 315 314 313 313 312 311 311 309 307 308 308 307 306
301 302 303 304 305 307 310 312 314 317 320 322 322 322 321 322 321 321 323 323 323 322 321 321 320 319 319 318 317 317 315 314 313 312 312 311 309 307 307 307 307 306 305
296 297 297 298 300 302 303 305 308 310 312 315 318 320 321 322 322 322 322 323 322 323 321 321 321 320 320 319 317 316 314 313 313 312 311 309 308 307 306 305 305 304 303
294 295 295 295 295 295 297 300 302 304 306 309 311 313 315 317 320 320 321 321 322 323 322 321 322 321 320 319 319 317 313 313 312 311 311 308 307 306 305 305 304 304 303
293 293 293 293 293 294 294 294 294 296 300 303 305 308 310 312 315 317 318 319 319 320 321 321 320 321 320 318 318 317 313 312 309 310 310 307 306 305 304 303 303 303 303
292 292 292 292 292 292 292 293 293 293 293 294 298 302 305 309 310 313 314 316 318 318 317 318 320 320 320 320 319 319 315 312 311 310 307 305 304 304 303 303 303 302 302
288 288 289 289 289 290 290 291 291 291 292 293 294 296 300 301 306 308 311 312 314 316 317 316 316 317 318 319 319 319 314 311 309 308 306 305 304 303 303 303 302 301 301
286 287 287 287 287 288 288 288 289 289 290 291 293 294 296 299 301 305 307 309 311 313 315 317 317 314 314 314 313 313 311 308 310 309 308 305 303 302 302 302 301 300 300
287 286 286 286 287 287 287 287 288 288 288 289 288 294 297 299 301 302 305 307 309 310 311 312 313 312 312 311 312 311 311 310 311 308 308 304 303 302 301 301 300 299 299

GFSMA_850_thetae_105.txt.gz
Theta_e
331 331 333 333 336 335 334 335 330 319 316 315 315 317 318 318 319 319 319 319 320 321 322 321 321 322 323 322 321 321 321 321 323 325 326 326 325 322 320 320 319 318 316
327 328 331 333 335 335 334 335 331 324 319 316 315 316 317 318 319 319 320 320 319 322 323 323 323 323 324 323 322 322 322 321 324 325 328 327 324 323 322 321 319 318 317
329 327 326 326 328 334 334 334 329 329 331 322 318 318 318 318 318 319 320 321 321 320 325 325 325 326 324 323 324 325 323 326 327 325 327 325 324 323 323 321 320 318 318
327 327 327 327 326 327 332 333 333 331 333 329 323 320 318 318 318 319 320 321 321 320 324 326 326 326 325 325 326 326 326 323 318 316 325 324 325 324 325 321 320 319 319
328 327 327 327 326 327 329 331 330 331 332 328 328 325 320 319 320 322 322 321 322 322 325 326 327 327 326 326 326 326 325 318 314 316 317 321 324 324 322 321 321 320 318
327 326 325 326 327 327 329 329 330 329 331 325 325 328 324 321 319 321 321 321 321 322 323 326 328 328 328 328 327 326 326 319 314 314 316 318 322 323 322 321 321 319 318
325 325 326 327 327 328 328 328 326 326 328 325 322 321 323 322 320 319 322 321 321 322 324 326 329 329 329 329 327 326 326 324 314 314 314 318 323 323 322 322 322 320 318
325 325 326 327 328 327 328 328 327 324 327 323 323 322 324 320 320 321 323 322 322 322 323 326 327 329 329 329 328 327 326 326 316 313 313 314 319 321 322 322 321 320 318
326 326 326 326 326 325 325 324 324 324 322 322 321 321 322 323 324 322 321 321 320 321 321 324 327 328 329 329 328 327 326 326 318 314 314 314 318 321 322 321 320 320 319
325 326 326 327 326 326 326 326 326 325 324 323 320 319 320 323 324 323 322 320 319 319 319 321 326 327 327 328 328 327 326 326 321 316 314 315 319 319 320 321 320 318 317
324 324 325 324 325 327 326 326 326 326 325 325 325 324 321 321 323 325 325 324 323 323 321 321 324 327 327 327 327 327 326 326 321 316 315 317 322 323 322 321 319 318 317
324 324 324 324 324 324 325 326 326 326 326 326 325 326 325 324 323 324 325 325 324 325 325 323 325 326 326 325 326 326 326 326 322 316 318 317 321 322 322 322 319 318 317
324 323 325 325 324 324 325 325 326 326 326 326 327 326 325 324 325 324 325 325 325 325 326 325 325 326 326 326 324 325 326 324 323 318 317 314 316 321 322 322 319 318 316
323 322 324 326 325 326 326 326 326 325 326 326 327 327 324 322 322 325 325 324 325 325 325 324 325 325 326 324 324 324 324 324 322 320 315 313 314 317 318 320 318 317 315
320 318 321 323 323 324 324 324 326 324 324 326 326 325 321 321 324 325 324 324 324 324 325 323 325 325 324 323 322 324 324 324 321 318 316 316 315 315 318 317 316 315 313
309 309 311 315 319 321 322 322 324 323 324 326 324 324 324 323 324 325 324 324 324 324 324 323 323 323 323 322 322 324 323 321 319 318 318 315 313 313 312 313 311 312 309
306 304 304 306 309 310 314 318 321 321 321 322 321 324 323 321 324 324 324 323 323 321 321 323 323 322 323 324 324 323 321 321 318 319 314 311 311 311 310 309 309 309 308
301 301 302 303 304 305 307 310 311 315 319 321 321 322 321 322 323 321 322 323 322 320 321 322 322 323 323 323 322 321 318 317 318 314 313 313 312 311 310 310 309 308 309
298 297 298 297 298 299 301 303 305 308 310 312 314 317 321 320 321 322 322 323 323 321 320 323 323 322 321 320 319 317 316 317 316 314 313 313 311 310 310 310 307 307 308
295 295 295 295 295 295 295 296 297 298 301 303 306 310 312 316 319 320 321 321 321 321 321 321 322 321 320 319 317 315 316 316 315 314 314 313 312 311 310 308 306 307 307
293 293 293 293 293 294 294 295 295 295 295 296 296 299 302 306 310 313 316 318 320 321 321 318 321 320 320 319 318 317 317 316 315 315 314 314 312 311 309 308 306 305 305
290 290 290 290 290 291 292 292 292 293 294 294 295 296 295 296 300 305 310 313 315 317 318 319 321 320 320 320 319 318 317 314 311 314 313 313 311 310 308 306 305 305 304
288 288 288 288 288 288 288 289 289 290 290 292 292 293 294 295 295 296 300 307 310 313 314 316 317 318 320 319 320 319 319 317 317 317 315 312 310 308 307 305 304 303 303
287 287 287 287 287 287 287 287 287 288 288 288 289 290 291 292 294 295 297 299 302 307 311 313 313 315 316 317 318 319 319 316 314 312 312 311 310 308 305 304 303 303 303
287 287 287 287 286 286 286 287 287 287 287 287 288 288 289 289 291 294 297 299 300 303 307 309 310 314 313 316 316 316 314 312 310 310 310 310 309 307 304 303 303 302 302
286 286 286 286 286 286 286 287 287 287 287 287 287 287 288 288 292 294 295 297 299 300 303 307 308 310 313 313 313 314 314 312 308 308 309 309 309 307 302 302 302 301 301

GFSMA_850_thetae_108.txt.gz
Theta_e
332 333 331 333 333 335 336 336 335 334 329 322 318 322 325 324 325 325 323 319 319 320 320 321 320 321 323 323 321 320 321 321 322 323 325 326 325 324 321 321 320 318 317
330 330 331 332 333 334 335 336 335 335 331 323 321 319 320 320 321 323 321 322 320 319 321 323 324 325 324 324 322 322 322 322 321 324 325 328 327 324 323 322 321 319 318
327 327 327 329 328 328 332 334 334 335 332 329 323 321 321 321 319 319 319 319 321 321 320 323 324 324 324 325 325 322 325 323 326 328 327 327 325 324 323 323 321 319 319
327 328 328 327 327 329 328 332 332 333 333 330 328 324 318 320 319 322 321 319 320 322 321 320 325 325 326 326 324 325 327 326 327 320 316 319 327 325 323 325 322 320 319
328 329 329 328 330 329 328 329 330 330 331 331 332 327 326 323 321 322 322 322 321 321 322 322 322 326 327 326 325 325 326 325 324 317 315 316 319 323 326 324 321 321 320
323 328 328 328 327 326 326 328 329 329 330 329 330 329 324 321 327 325 323 323 324 323 321 322 324 326 327 327 326 326 326 326 326 317 315 316 317 320 323 323 321 321 320
324 326 328 326 325 326 329 329 329 331 329 329 331 329 327 324 322 326 323 320 321 322 324 322 322 323 327 328 328 328 327 326 326 321 314 314 315 317 321 323 321 322 321
327 325 325 325 326 327 331 329 329 329 330 328 327 327 327 324 322 323 323 321 319 319 320 322 322 323 326 328 328 329 328 327 326 326 315 313 314 316 320 320 321 322 321
325 325 325 326 326 327 326 328 328 328 329 327 326 326 326 325 324 322 320 320 320 319 319 321 322 321 324 326 328 329 329 328 327 326 320 314 314 315 319 321 321 322 320
326 326 326 326 326 327 327 327 327 326 325 325 325 323 325 323 323 323 322 324 320 321 322 321 321 321 321 325 327 328 328 328 327 326 324 316 315 315 318 323 323 321 320
324 324 324 324 326 326 325 327 327 326 326 327 326 325 321 321 321 321 323 324 323 322 322 321 321 321 322 323 324 326 325 325 326 326 326 319 318 320 324 323 323 321 319
324 324 324 324 325 326 325 326 325 326 326 326 327 327 326 323 321 320 320 321 324 325 325 324 322 322 323 321 323 325 324 325 324 326 326 321 320 323 325 324 323 322 319
324 324 323 323 324 326 325 325 325 326 326 327 326 326 326 325 325 324 323 322 322 322 324 324 323 322 324 324 324 325 325 325 324 325 326 323 321 321 323 324 324 322 320
321 322 322 322 322 323 324 324 326 324 324 325 325 325 325 325 325 325 324 324 324 325 325 325 324 324 323 324 325 324 323 325 324 325 325 324 320 320 322 323 323 322 322
314 314 317 320 320 321 322 323 323 325 325 326 326 325 326 324 326 326 325 325 325 324 325 325 324 323 324 324 324 324 322 323 323 323 324 324 319 319 316 319 318 321 321
307 308 307 308 309 310 311 316 321 321 322 322 322 324 325 324 325 325 324 323 321 322 324 323 323 323 323 323 323 322 322 323 322 322 323 324 320 316 315 317 317 321 318
304 303 304 304 303 304 306 308 310 312 317 320 321 320 322 321 324 324 323 322 323 324 324 323 322 323 323 322 322 321 322 322 322 323 323 323 318 314 316 316 318 318 313
302 298 298 298 298 299 299 301 304 304 306 310 310 314 317 319 321 321 323 323 322 323 324 323 323 323 321 321 320 322 322 323 323 323 322 319 317 316 315 315 314 311 310
297 297 296 296 296 296 296 297 296 297 298 299 301 304 308 311 314 318 320 320 321 322 321 320 321 321 321 321 320 321 321 321 321 320 319 316 316 314 314 313 311 311 310
294 294 294 294 294 294 294 295 295 295 296 296 296 296 297 300 304 308 311 315 318 319 320 319 319 321 320 321 320 321 319 318 315 316 315 315 313 312 312 312 311 310 310
290 289 289 290 290 290 290 290 290 291 292 293 294 294 295 295 295 296 300 305 310 313 315 317 319 320 321 319 320 320 319 316 314 315 314 314 314 313 313 311 311 310 310
288 288 288 288 289 288 288 288 288 288 289 289 289 290 291 293 294 294 295 295 300 307 310 313 314 316 317 318 319 320 318 314 313 314 314 314 313 313 313 312 311 311 308
288 288 288 288 288 288 288 288 288 287 288 288 288 288 288 289 290 291 292 294 295 297 304 308 310 312 312 316 315 319 319 319 317 316 315 314 315 314 313 312 311 310 308
287 287 287 286 286 287 286 287 287 287 287 287 287 287 288 288 288 292 293 293 294 295 297 300 305 307 310 312 313 315 315 319 317 316 314 313 314 314 314 313 311 310 307
286 286 286 286 286 286 286 287 287 289 290 290 289 289 288 288 289 288 290 292 293 294 296 297 298 303 307 309 311 313 314 312 310 313 315 314 314 312 311 310 311 310 305
287 287 287 287 286 286 286 287 287 288 289 289 289 289 289 289 288 288 289 290 290 291 292 293 297 297 301 306 308 310 311 313 311 309 312 312 312 312 307 308 310 306 303

GFSMA_850_thetae_111.txt.gz
Theta_e
335 335 335 337 336 334 334 336 336 336 335 332 330 329 328 328 328 327 327 326 321 319 320 320 321 319 319 321 322 320 320 320 320 323 324 325 327 325 323 322 321 320 318
333 333 334 335 333 333 333 336 336 336 335 332 330 328 326 327 327 326 326 325 323 319 319 320 321 327 325 322 322 322 320 320 322 320 323 325 328 327 325 323 322 321 319
329 330 330 332 333 333 334 335 336 336 335 335 330 324 323 324 324 324 324 324 324 321 320 319 320 323 324 326 327 328 324 322 324 325 329 328 327 326 325 324 322 323 320
330 331 333 333 332 332 331 331 332 334 334 333 333 327 320 322 322 322 322 323 323 323 321 320 319 320 324 324 324 325 324 324 324 327 326 319 316 321 326 325 324 324 320
328 328 330 330 332 332 332 332 331 331 332 331 331 332 328 321 319 319 319 323 323 322 323 322 320 320 320 325 326 325 323 326 327 325 322 316 315 316 322 324 326 324 321
324 326 327 327 328 330 331 330 329 329 330 333 331 331 330 330 326 324 323 322 323 324 324 321 322 320 321 323 325 326 325 324 325 325 324 316 315 317 318 324 325 323 321
323 324 322 320 321 324 326 326 329 331 331 331 331 330 329 329 331 326 321 324 323 323 324 325 322 320 320 321 323 326 326 326 326 325 324 322 315 315 316 319 322 322 322
324 322 322 321 319 327 325 326 327 331 329 329 330 328 329 328 329 328 327 324 324 323 322 323 320 319 319 320 320 322 326 327 327 327 325 326 317 314 314 317 320 321 321
328 328 327 326 326 326 328 327 326 329 329 330 328 329 327 326 326 327 326 325 324 322 323 320 319 319 319 320 320 321 325 327 328 328 327 326 323 315 314 320 321 320 320
326 328 327 327 327 327 327 328 328 328 328 328 329 328 326 326 325 325 325 325 324 323 322 320 320 320 319 320 320 320 322 325 328 328 328 326 325 320 319 325 324 324 323
328 327 328 326 326 326 327 327 327 327 327 327 327 326 326 326 325 325 324 324 324 324 324 325 325 321 319 321 321 321 321 324 326 327 326 326 326 326 323 326 325 324 324
325 326 327 327 327 326 326 326 326 326 326 326 327 327 326 326 326 325 323 322 322 322 323 323 323 321 322 322 323 324 321 323 326 325 323 326 325 325 325 326 326 325 324
322 323 323 321 323 322 322 323 325 326 325 325 325 324 326 326 325 326 325 323 323 322 322 323 326 323 322 323 322 322 323 323 326 325 323 323 323 325 324 324 325 325 325
320 320 320 321 322 321 321 323 324 323 323 324 325 324 324 325 326 327 326 325 324 323 323 323 323 323 323 323 322 323 324 324 325 324 324 324 323 324 324 324 324 324 326
311 310 311 312 312 318 318 318 321 321 322 323 324 324 325 326 326 325 325 326 325 324 324 324 324 324 325 325 324 323 322 324 324 323 322 320 320 322 323 324 322 323 324
306 306 306 306 304 305 306 307 308 312 315 317 320 320 321 321 322 322 323 324 325 325 325 325 324 324 324 323 323 322 322 323 324 324 322 321 320 321 322 323 322 321 323
307 307 306 303 302 302 306 306 302 304 308 309 309 313 312 315 318 319 321 321 324 324 324 324 324 322 323 323 323 323 322 323 323 322 322 321 321 322 322 323 322 320 320
296 296 296 297 298 298 297 299 306 305 298 297 302 303 301 307 311 310 314 319 320 320 320 322 322 323 324 323 323 322 322 322 321 321 320 320 321 322 322 323 320 319 318
295 294 294 294 295 295 294 295 295 294 294 295 296 296 296 296 297 300 302 310 313 316 317 319 320 323 321 322 322 321 320 320 320 320 320 320 320 321 322 321 319 318 316
291 291 291 290 290 291 290 290 290 291 291 291 292 292 293 294 295 296 296 296 298 301 307 311 316 317 319 319 320 319 321 320 320 320 320 321 320 320 319 320 318 316 318
289 289 289 290 290 289 289 289 289 289 289 289 290 290 290 290 290 291 293 294 294 295 296 300 306 311 313 315 316 319 318 320 319 319 319 318 316 318 319 317 316 316 313
289 289 289 288 288 288 288 288 288 288 288 289 289 289 289 289 289 289 290 292 292 293 295 299 303 306 308 311 313 314 316 317 317 318 318 316 315 317 316 315 316 314 312
288 288 288 288 288 288 287 287 287 287 287 288 288 288 288 289 289 289 290 291 290 292 293 296 298 301 303 306 308 311 312 314 315 317 317 314 314 315 314 314 313 313 313
287 287 287 287 287 287 287 287 287 287 288 289 290 290 289 289 289 291 290 289 289 289 291 291 293 296 299 301 305 307 308 310 312 313 315 313 314 314 314 314 313 313 312
287 287 287 287 287 287 287 287 288 288 289 289 290 290 290 290 290 288 288 288 288 289 288 288 289 291 294 296 298 303 307 307 309 311 312 311 313 313 313 314 314 313 313
286 286 287 287 287 287 288 289 288 288 289 289 289 289 289 289 289 289 288 288 288 288 288 288 288 288 288 289 290 296 301 303 306 309 310 310 311 312 308 312 312 312 309

GFSMA_850_thetae_114.txt.gz
Theta_e
336 335 335 335 336 335 334 333 335 336 336 335 332 327 329 328 328 330 329 328 327 323 319 319 319 319 319 319 321 321 319 318 319 321 323 324 325 327 326 324 322 322 321
335 333 333 334 335 336 335 332 332 335 335 335 335 329 329 328 328 327 327 327 326 323 320 318 318 319 321 320 320 321 321 318 319 320 320 322 325 327 327 325 323 322 323
332 333 332 332 335 334 332 331 333 334 335 335 334 332 330 329 327 327 327 326 325 323 321 320 318 318 320 324 327 327 327 324 321 322 323 327 328 327 326 326 324 323 323
331 328 329 329 330 331 332 332 334 335 336 335 335 332 333 326 324 325 323 324 325 323 320 319 319 319 319 320 322 323 326 327 324 324 324 327 325 318 317 323 325 325 325
331 330 329 329 329 331 331 330 331 330 330 331 331 331 331 332 326 322 322 322 322 322 322 322 320 319 319 319 320 323 324 323 321 324 327 325 322 316 315 316 323 323 325
330 330 330 329 330 329 329 328 328 328 329 329 330 330 330 332 331 326 321 320 320 322 323 323 322 320 319 319 319 320 323 324 323 324 325 324 323 317 314 316 321 324 324
327 328 326 327 328 327 324 325 322 325 328 329 330 330 329 329 331 331 329 328 324 321 322 323 323 323 320 320 319 319 320 322 324 323 323 324 324 323 315 315 322 323 322
326 324 324 323 323 322 321 321 321 324 326 329 330 330 329 328 327 329 328 329 329 327 323 323 323 323 321 320 319 319 319 320 321 324 325 325 325 325 320 315 316 323 323
328 325 323 322 322 322 324 322 324 326 326 326 328 328 328 327 326 327 326 326 326 326 327 325 323 324 323 321 319 319 320 320 320 323 326 326 326 326 325 317 315 324 323
327 328 326 325 326 325 325 326 325 327 326 327 327 329 328 327 327 326 325 325 326 325 324 324 324 324 322 322 320 319 319 320 320 320 326 327 327 326 326 325 318 324 324
326 329 327 328 327 327 327 326 326 327 328 327 327 327 327 328 328 327 326 325 325 324 324 324 324 323 322 321 321 319 320 320 320 320 322 326 327 327 327 326 325 326 326
320 323 325 325 324 325 325 325 324 325 325 326 326 326 327 327 327 326 325 325 325 325 325 324 324 325 325 326 326 322 321 320 320 321 321 325 326 326 325 326 324 326 326
317 322 323 322 322 322 322 321 321 322 322 322 325 325 325 325 325 325 325 325 324 323 324 324 325 324 324 324 324 324 324 321 319 322 322 324 326 323 325 323 324 325 325
317 318 320 320 320 320 320 321 320 321 322 323 322 322 323 323 325 325 323 324 324 324 324 325 324 324 324 324 325 325 324 323 321 321 322 324 325 324 322 322 321 321 321
305 308 312 314 315 315 315 315 317 317 319 318 320 321 320 322 323 323 324 323 324 324 325 325 325 324 324 324 324 324 324 322 321 322 324 324 325 325 323 322 320 321 319
304 304 306 306 304 303 303 304 304 305 308 307 310 311 312 313 317 319 317 319 320 319 322 324 324 325 325 325 325 324 323 323 322 322 324 324 323 323 322 321 321 321 321
298 299 302 306 305 305 304 304 303 306 309 305 301 299 303 300 306 304 311 312 314 316 313 319 321 322 325 325 325 325 324 324 322 323 323 322 323 323 322 321 321 321 322
297 296 295 295 295 295 294 294 295 295 296 297 302 305 301 296 297 302 303 298 307 309 307 311 317 318 318 322 322 323 323 323 323 322 322 323 322 322 320 320 320 320 321
292 291 291 290 290 291 290 291 291 291 291 291 291 292 293 294 294 294 295 297 295 298 298 301 308 314 314 317 320 321 322 322 323 322 322 322 322 321 321 320 320 322 321
290 290 290 290 290 290 289 290 290 290 290 290 290 290 290 291 291 290 290 291 292 294 295 295 297 299 304 309 313 315 318 319 318 319 320 321 320 320 320 320 320 320 321
289 289 289 289 289 289 289 289 289 288 289 289 289 289 289 289 288 289 290 293 294 292 292 293 294 296 299 304 307 309 312 313 316 317 318 319 319 319 320 320 320 320 320
288 288 288 288 288 288 288 288 288 288 288 288 288 288 288 288 289 289 290 290 291 292 294 294 293 295 296 299 302 304 306 308 311 315 315 317 317 318 318 319 319 319 319
288 288 288 288 288 288 288 288 287 287 287 288 288 289 289 290 290 289 290 289 288 288 289 291 292 292 292 293 296 299 303 304 304 308 310 311 313 315 316 316 316 318 318
288 288 288 288 288 288 288 287 287 287 288 288 288 289 290 290 290 290 290 288 287 287 288 288 288 288 289 289 289 293 296 300 303 306 307 308 311 312 314 314 315 316 316
288 288 288 288 287 288 288 288 288 288 288 288 289 289 289 289 289 289 289 288 288 288 288 287 287 287 287 287 288 288 289 292 296 300 304 306 308 310 312 313 314 315 315
288 287 287 287 287 287 288 288 289 288 288 288 288 288 287 288 289 289 289 288 289 288 288 288 287 287 287 287 288 288 290 293 295 296 300 304 306 308 310 311 312 314 313

GFSMA_850_thetae_120.txt.gz
Theta_e
334 335 336 335 334 334 333 333 333 332 332 333 334 335 336 333 324 319 320 324 326 327 328 326 323 318 318 317 317 317 317 318 317 317 319 321 323 325 325 325 324 323 321
332 333 335 336 334 335 334 333 334 335 332 332 333 335 335 336 333 322 322 324 326 327 329 327 325 321 318 318 318 318 317 318 319 317 316 318 321 323 324 327 327 325 323
321 331 331 331 335 336 335 334 333 333 334 333 333 334 335 335 334 328 327 325 328 328 329 328 326 323 321 318 318 318 319 318 319 320 317 317 318 319 323 327 327 326 326
311 319 329 330 331 332 333 332 331 331 332 333 331 331 333 334 334 329 329 329 329 329 327 327 326 325 322 320 319 322 323 323 324 323 324 321 320 321 324 328 327 321 320
310 317 319 326 329 329 330 331 331 332 332 332 331 331 332 334 334 334 329 328 327 327 327 326 326 325 324 322 321 320 323 325 326 326 325 325 324 322 324 326 325 316 316
308 317 321 320 326 327 329 329 330 330 330 330 331 333 332 330 329 329 331 330 328 324 324 326 325 324 323 322 321 321 320 319 320 324 324 322 323 322 323 326 322 317 315
310 311 317 320 321 326 327 328 328 328 329 330 329 328 327 327 326 326 326 327 328 328 326 324 322 322 322 322 322 321 321 321 320 320 320 321 323 323 323 326 323 321 315
306 306 307 312 319 325 325 326 327 328 329 328 324 323 325 326 325 326 328 328 327 326 329 328 324 322 322 321 321 321 321 323 322 321 320 320 322 324 324 323 324 322 320
310 309 306 307 314 323 325 326 327 328 327 325 322 323 325 324 325 325 323 324 324 324 326 328 328 328 327 328 327 322 322 322 322 323 321 320 320 322 324 324 324 324 324
313 316 316 312 315 319 323 325 326 326 324 322 324 324 326 327 327 326 325 325 324 324 326 326 325 325 325 326 326 327 327 324 323 323 322 320 320 321 322 324 325 325 325
314 315 318 317 319 320 320 324 325 324 323 323 323 325 326 326 326 326 327 326 326 326 326 325 325 325 325 324 324 324 324 324 324 324 324 324 322 321 320 322 324 325 326
312 313 314 317 319 318 316 317 316 324 325 324 324 324 323 324 324 325 325 325 324 325 325 325 325 324 323 324 324 324 325 324 324 324 324 324 323 323 321 321 322 324 325
308 310 311 313 316 316 315 313 315 317 321 321 321 321 321 321 321 322 322 322 323 323 324 324 324 324 323 323 324 323 323 324 324 324 324 325 324 322 321 321 322 323 324
302 302 307 311 313 314 315 314 313 316 319 319 319 319 319 319 320 320 320 320 319 319 321 320 322 324 323 323 323 323 323 324 324 324 324 324 325 324 322 321 322 322 325
296 299 302 303 306 307 310 310 309 304 305 311 313 313 314 314 313 313 313 314 313 311 314 318 322 323 323 323 323 324 324 323 324 324 324 324 324 324 324 322 323 322 323
295 295 295 298 301 299 301 301 301 302 303 304 304 304 303 302 304 304 303 303 306 307 306 311 314 313 315 316 317 319 319 322 322 324 324 324 324 325 325 325 322 322 323
292 291 292 292 292 292 292 293 293 294 294 295 295 296 298 299 303 303 303 303 300 299 299 300 302 305 309 309 310 314 314 318 321 323 323 324 324 325 326 324 323 323 323
290 291 291 291 291 291 291 291 291 291 291 291 291 291 291 291 292 292 292 293 295 299 301 300 304 304 299 296 304 303 304 313 316 318 320 322 323 324 324 325 323 322 323
290 289 289 289 289 290 290 290 290 290 290 290 289 290 290 290 290 290 290 290 290 291 292 293 293 295 293 292 294 296 298 302 311 315 316 318 320 322 323 323 324 322 322
289 289 289 289 289 288 288 289 289 289 289 289 289 289 289 289 289 289 289 289 290 290 290 290 290 290 290 291 291 292 294 296 299 305 312 314 316 317 319 320 321 322 322
289 289 289 289 289 288 288 288 289 289 288 288 288 288 289 289 289 289 289 289 289 289 288 288 288 288 289 289 289 289 289 290 293 293 299 308 313 314 317 318 319 320 321
289 289 289 289 289 289 289 289 288 288 288 288 288 288 289 289 290 290 290 290 289 289 288 288 287 287 287 287 287 287 288 288 289 291 292 295 299 311 314 313 315 317 318
289 289 289 288 288 288 288 288 288 289 288 288 288 288 288 289 289 289 289 290 289 289 288 288 288 288 288 288 287 287 287 287 287 288 288 289 291 293 301 308 311 312 314
288 288 288 288 288 288 288 288 289 289 289 288 288 288 288 288 287 288 289 290 290 289 288 288 288 288 288 287 286 287 287 288 288 288 289 290 289 290 291 295 299 308 311
287 287 287 288 288 288 287 287 287 288 288 287 287 287 288 288 288 288 289 289 289 289 288 288 287 288 289 287 286 286 286 287 287 287 288 291 293 294 294 293 293 296 306
287 287 287 287 287 287 287 287 287 287 287 287 287 287 287 287 287 288 288 288 288 288 289 288 288 288 288 287 286 285 285 285 286 286 287 288 289 289 291 293 296 301 300

GFSMA_850_thetae_126.txt.gz
Theta_e
308 308 309 320 329 331 331 333 333 333 333 331 330 331 332 331 331 333 335 330 319 319 319 321 325 328 323 322 318 317 316 316 316 317 317 318 319 321 322 323 323 322 322
306 307 308 308 309 319 328 332 332 333 333 333 333 332 332 332 332 332 332 335 328 320 320 322 323 326 328 325 323 318 317 317 317 317 317 317 317 318 320 323 324 324 325
307 305 306 306 307 308 309 313 324 331 330 331 332 333 332 332 332 332 332 333 335 325 321 321 322 326 326 328 327 324 319 317 317 317 318 318 317 317 317 321 322 323 325
308 307 306 306 306 306 307 308 314 320 329 330 330 332 332 332 332 332 332 331 333 334 326 321 321 325 327 327 327 328 328 326 324 320 319 318 318 319 317 317 318 320 323
306 306 306 306 306 306 306 308 308 315 320 328 330 331 331 331 331 331 332 331 331 332 333 327 325 323 328 328 328 327 326 326 326 325 326 324 322 322 322 321 319 320 321
306 305 305 306 306 305 305 305 308 310 317 320 327 328 328 329 330 330 331 331 330 330 331 331 330 326 325 325 329 328 327 326 325 324 323 322 325 326 326 325 325 324 322
309 309 308 309 308 308 307 308 307 306 311 317 326 327 328 328 328 329 330 329 330 330 331 331 327 329 327 325 326 328 327 326 326 323 323 322 322 321 322 325 324 323 323
310 310 310 309 310 311 313 314 316 312 312 312 325 325 326 327 327 328 329 329 330 329 328 326 328 328 328 328 327 328 326 324 324 323 323 323 322 322 322 321 320 323 323
310 310 310 310 312 313 313 314 316 320 319 320 322 324 325 326 327 326 327 329 329 326 326 326 326 327 327 328 327 325 324 325 324 323 323 323 323 322 323 323 322 321 321
310 310 311 312 312 313 313 313 314 315 319 321 323 322 323 324 325 324 324 324 324 325 326 327 327 326 325 325 326 328 327 327 327 327 326 324 326 324 323 323 323 323 322
309 310 310 312 312 313 312 312 313 314 315 320 320 322 322 324 325 324 324 325 325 325 324 324 324 323 325 326 326 325 325 325 325 325 325 325 325 326 326 324 323 323 322
301 301 304 309 310 311 310 310 311 313 315 316 317 318 320 320 319 319 320 323 323 324 323 325 326 326 326 325 325 324 324 324 323 323 324 324 324 325 325 326 325 325 325
297 298 298 299 300 305 308 309 305 309 312 313 315 314 315 315 314 313 314 315 322 324 324 324 324 324 323 323 322 323 323 323 322 322 321 321 323 323 324 324 324 325 325
293 292 292 292 293 294 295 302 307 304 305 310 312 312 312 311 311 312 312 314 313 318 319 321 320 322 322 321 320 320 320 321 322 323 323 322 323 323 323 323 324 324 324
291 291 292 291 291 291 291 292 292 300 303 303 306 307 309 309 310 310 311 310 310 311 315 316 316 317 318 317 316 316 317 319 319 319 321 321 321 322 323 323 324 323 324
291 291 291 291 291 291 291 291 291 291 291 293 295 298 301 304 305 306 304 304 302 304 308 311 312 311 311 310 311 312 309 312 316 313 315 317 318 319 320 321 323 323 323
291 291 290 290 290 290 290 290 290 290 290 290 291 291 292 292 293 292 293 293 294 297 300 302 303 304 305 306 306 306 306 305 305 304 307 310 310 316 317 318 320 322 323
290 289 290 289 289 289 289 289 289 289 289 289 289 289 290 290 290 290 290 290 291 291 291 291 292 291 291 291 292 292 293 295 300 302 301 300 305 306 313 316 317 319 321
290 289 290 290 290 289 289 289 289 289 289 289 289 289 289 289 289 290 290 290 290 289 289 289 289 289 290 289 290 290 290 291 290 291 292 294 296 299 302 310 314 315 317
290 290 290 290 289 289 289 289 289 289 288 288 288 289 289 289 289 289 289 290 289 289 289 289 288 288 288 289 289 289 290 290 291 290 290 291 291 292 294 299 310 313 315
290 290 290 289 289 289 289 289 289 289 289 288 288 288 288 288 289 289 289 289 289 289 289 289 288 288 288 288 288 288 288 288 289 289 289 290 290 291 291 292 293 301 310
289 289 289 289 289 289 288 288 288 289 289 289 288 288 288 288 288 288 288 289 290 290 289 289 289 288 288 288 287 288 288 287 287 288 287 289 288 289 290 290 291 292 293
289 289 288 288 288 288 288 288 288 288 288 288 288 288 287 287 287 288 288 288 288 289 289 289 289 289 288 288 287 289 288 287 286 287 286 286 287 287 288 289 289 290 293
288 288 288 288 288 287 287 287 287 288 287 287 287 287 287 287 287 287 288 288 288 288 288 288 288 288 288 288 288 289 288 288 287 287 286 286 286 286 287 288 288 289 292
288 288 288 288 287 287 287 287 287 287 287 287 287 287 287 287 287 287 287 287 287 287 287 288 288 288 288 289 289 288 287 287 286 286 286 285 285 285 286 287 288 288 289
288 288 288 287 287 287 286 286 287 287 287 287 286 287 287 286 286 286 287 287 287 287 286 286 287 287 287 288 288 287 287 286 285 285 285 284 284 284 284 285 287 287 288

GFSMA_850_thetae_129.txt.gz
Theta_e
309 308 307 307 308 308 311 321 326 329 330 332 332 332 333 330 330 331 331 331 333 330 319 319 319 323 327 325 321 319 316 316 316 316 317 317 318 319 320 321 322 322 321
310 309 309 307 306 306 307 308 309 314 324 329 330 332 332 332 332 331 332 332 331 333 332 320 320 321 324 328 328 323 320 317 317 316 316 317 317 318 319 321 322 323 323
309 308 308 307 307 307 306 306 306 307 308 312 322 329 330 330 331 332 332 332 332 331 332 332 320 320 323 324 327 329 328 323 318 318 317 317 317 317 317 319 320 322 324
306 306 306 306 305 305 306 306 306 306 306 307 308 314 328 328 329 331 332 332 332 331 332 332 332 321 320 322 324 326 327 328 327 329 328 321 318 318 318 317 317 318 321
307 307 306 306 306 305 305 305 305 305 305 305 306 309 314 326 330 330 331 331 331 331 332 331 332 331 322 320 322 326 327 328 326 326 327 327 324 321 319 320 320 318 318
307 307 308 308 309 309 309 309 309 307 308 311 308 307 318 319 325 328 328 330 330 330 332 331 331 332 331 326 321 320 322 326 327 327 327 326 325 326 326 325 324 324 323
310 310 310 310 309 309 312 312 312 312 312 314 313 313 310 320 322 327 327 328 329 329 330 330 330 330 330 328 327 325 324 324 327 327 328 326 324 324 323 323 325 327 326
310 310 310 311 311 312 313 313 312 312 313 314 315 315 317 319 322 324 325 327 327 329 329 329 330 330 330 328 329 328 326 325 326 326 325 325 323 324 324 324 323 322 323
311 311 311 311 311 312 312 313 313 313 313 313 313 315 317 320 321 323 324 326 326 330 331 329 329 327 326 327 327 328 328 327 327 327 327 326 325 322 323 323 323 324 323
307 308 309 310 310 310 311 311 312 312 313 313 312 314 315 318 321 322 323 324 324 324 328 328 326 326 326 326 327 327 328 328 325 325 325 325 325 323 322 323 324 322 324
300 300 300 300 303 308 309 309 310 311 313 313 313 313 315 317 320 320 323 323 323 323 323 324 324 325 327 327 326 324 325 327 326 326 326 326 327 325 326 327 327 323 322
295 294 294 294 295 296 298 306 309 309 309 311 312 314 313 313 313 312 315 317 319 321 323 325 326 326 325 324 324 324 326 325 325 325 325 325 325 325 325 326 327 326 324
293 293 292 292 292 292 293 294 296 306 307 306 308 310 311 312 312 312 313 313 313 313 319 319 314 313 323 321 323 320 324 323 323 323 323 322 322 322 323 323 323 324 325
292 292 292 292 292 292 292 292 292 293 298 304 302 305 306 308 309 310 311 311 311 313 313 313 313 312 308 303 308 311 317 320 320 321 322 322 322 322 322 322 323 323 323
292 292 292 291 291 291 291 291 291 292 292 292 294 294 297 302 304 305 305 306 309 308 311 312 312 312 313 308 305 305 304 311 314 316 318 318 319 320 320 320 321 322 323
293 292 291 291 291 291 291 290 290 290 290 291 291 291 291 292 292 294 295 298 303 305 306 308 309 310 310 309 307 305 305 304 307 308 312 314 314 316 317 317 318 318 320
293 292 291 291 291 291 291 290 290 290 290 290 290 290 290 290 290 290 291 291 292 292 294 297 298 302 303 304 299 294 295 295 300 302 304 304 310 310 310 310 314 316 317
293 291 291 291 290 290 290 290 290 290 290 290 289 289 289 289 289 290 290 290 290 290 290 290 290 291 290 290 291 291 291 291 292 292 292 294 300 304 304 304 307 310 315
294 291 290 290 290 290 290 290 290 290 289 289 289 289 289 289 289 289 289 290 290 290 290 290 290 289 289 289 290 290 290 290 290 291 291 291 291 293 294 296 299 303 307
294 291 290 290 289 289 289 289 289 289 289 289 289 289 289 289 289 289 289 289 289 289 289 289 289 289 289 289 289 289 290 290 290 290 290 290 290 290 291 291 292 294 297
295 291 290 289 289 289 289 289 289 289 289 289 289 289 289 288 288 288 288 288 289 290 289 289 289 289 289 288 288 288 288 289 289 289 289 289 289 290 290 290 290 291 292
295 290 289 289 289 289 288 288 289 289 289 288 288 288 288 288 288 288 288 288 288 290 290 290 289 289 289 288 288 288 288 288 288 288 287 289 288 288 288 288 289 289 290
294 290 289 289 289 288 288 288 288 288 288 288 288 287 287 287 287 287 287 288 288 288 288 289 289 288 288 288 288 288 288 288 288 287 287 287 287 287 288 288 288 288 289
294 289 289 288 288 288 288 287 287 287 287 287 287 287 287 287 287 287 287 287 287 287 287 287 288 288 288 288 288 289 290 289 288 287 287 286 286 286 287 287 287 287 288
293 289 288 288 288 287 287 287 287 287 287 287 287 287 287 287 287 287 287 287 287 287 287 287 286 287 287 287 288 288 289 288 287 287 286 285 285 285 286 287 287 288 287
293 289 288 288 288 287 287 287 286 286 287 287 287 287 287 286 286 286 287 287 287 286 286 286 286 286 286 286 286 286 286 286 286 285 285 285 284 284 284 285 286 286 286